GFSSW_925_spd_000.txt.gz
Wind_Speed
13 14 14 15 15 16 16 17 18 18 17 14 12 12 9 8 9 6 10 5 10 9 9 8 13 15 14 15 16 14 5 3 3 17 7 12 3 6 23 29 23 29 6 23 24
14 14 15 16 17 18 19 19 20 18 15 13 14 12 10 9 10 16 13 11 10 9 14 12 11 12 11 13 11 11 6 8 13 20 11 12 1 9 17 26 11 11 11 18 23
14 15 16 17 18 20 21 23 19 18 15 14 13 11 7 5 8 2 13 16 12 13 13 13 10 11 12 14 14 15 10 31 23 4 10 9 13 5 27 17 10 19 12 13 17
14 15 16 17 19 21 22 24 19 19 16 13 12 9 1 3 3 5 9 11 13 15 14 12 12 10 12 14 15 14 15 26 9 6 10 12 16 10 6 12 17 25 17 15 15
15 15 17 18 19 22 22 25 20 19 16 12 10 3 2 6 4 3 9 12 16 16 16 11 12 11 13 15 14 13 14 17 8 12 11 6 10 12 23 21 21 15 16 16 13
15 16 17 19 20 22 22 24 21 20 15 9 5 1 4 8 6 9 13 15 15 16 16 13 10 12 15 16 19 16 14 14 19 11 13 8 13 18 12 19 18 18 17 15 16
15 17 18 19 20 22 22 24 21 21 12 6 1 3 9 10 5 10 14 14 15 15 10 13 15 13 14 14 18 15 19 14 15 18 18 6 12 3 8 19 5 15 13 14 15
16 18 18 19 20 22 23 24 23 19 8 3 2 2 7 7 6 12 13 14 12 12 12 8 12 13 18 15 20 13 16 14 18 22 4 4 5 10 18 18 8 10 11 12 13
17 18 19 20 21 21 23 22 24 10 4 3 3 6 9 5 10 15 16 13 9 8 9 9 6 13 15 14 14 16 16 20 8 34 8 5 8 16 19 21 13 9 9 11 12
19 19 20 21 22 23 22 22 18 5 3 6 11 8 10 9 13 15 16 11 10 8 7 8 7 12 13 14 13 18 13 6 10 26 13 10 8 17 15 11 11 16 11 10 13
20 19 20 21 21 22 22 9 4 4 10 11 3 12 7 3 8 13 16 14 12 10 12 13 11 14 17 17 17 21 19 14 22 17 3 8 9 4 7 12 8 15 13 11 9
22 22 21 21 20 16 16 8 8 9 11 17 20 20 18 10 10 13 18 13 15 13 14 12 14 17 16 16 16 15 16 16 13 9 4 8 11 9 17 18 33 22 12 12 13
22 23 23 20 20 10 10 8 8 12 7 15 21 19 16 15 16 17 19 19 16 16 16 15 8 15 14 15 14 15 14 15 14 14 6 10 12 13 8 16 22 20 11 10 10
22 23 22 23 9 11 11 3 7 8 6 11 15 10 15 14 16 21 23 19 13 16 17 15 17 16 7 14 13 14 14 12 14 13 11 8 10 6 14 16 6 26 11 7 7
24 23 20 18 15 9 6 8 9 8 6 8 17 13 14 15 4 20 26 19 19 17 12 17 13 15 17 12 13 14 13 8 8 13 14 17 10 7 5 7 7 9 27 5 10
25 24 21 6 7 14 12 10 10 6 9 10 11 12 15 19 13 10 20 17 16 20 18 17 15 11 13 14 13 11 14 6 12 13 13 15 14 7 5 10 5 14 5 12 21
28 23 21 12 9 9 7 9 6 8 7 9 14 13 18 17 18 13 19 19 18 15 18 18 18 12 10 13 13 11 11 9 10 10 13 14 17 7 18 17 12 12 10 18 18
31 24 18 19 13 9 10 8 11 9 22 12 2 14 20 20 19 19 16 18 22 23 13 14 14 20 16 15 13 17 14 11 14 9 4 13 11 5 16 12 9 11 14 22 19
30 14 10 13 15 10 7 12 8 16 16 10 11 14 13 16 17 19 19 19 21 23 19 14 18 10 18 13 14 12 11 16 17 18 5 9 13 9 7 12 10 11 9 18 17
17 14 19 13 14 13 9 17 16 22 19 14 11 14 16 18 13 13 17 18 20 22 20 20 13 13 9 15 16 16 9 9 10 15 14 8 13 8 6 8 6 8 9 15 19
9 5 10 19 15 8 13 19 18 24 13 8 11 16 17 19 14 19 18 16 18 20 20 16 13 14 11 11 13 11 14 13 11 11 12 9 4 1 2 4 1 8 9 13 18
8 7 15 16 9 10 14 21 21 21 14 13 15 18 19 16 13 8 15 16 15 15 17 12 7 12 15 12 11 17 14 16 9 12 12 6 4 13 6 2 13 19 12 14 17
5 9 13 15 10 13 18 23 22 21 16 13 14 16 16 16 11 11 17 8 5 12 5 14 8 11 13 11 14 17 15 14 12 12 13 8 4 13 20 10 16 15 14 13 17
5 4 7 8 12 19 17 18 21 21 17 16 16 16 16 14 15 12 15 9 6 8 7 6 9 11 13 8 7 9 12 14 15 11 14 14 9 9 8 6 10 6 12 17 17
5 6 12 6 10 16 18 19 21 17 12 16 19 19 17 16 15 17 17 17 10 4 8 8 13 14 18 16 10 13 17 16 18 16 12 8 7 13 10 4 6 7 11 14 11
8 6 11 13 14 15 12 20 19 18 18 19 18 18 15 15 15 14 15 15 14 13 11 13 12 13 18 20 17 13 14 9 13 16 18 17 18 11 10 4 2 7 9 11 11
17 14 7 10 14 11 12 15 18 19 19 20 15 18 17 16 17 16 17 7 11 14 9 14 12 12 16 18 18 16 8 13 14 13 14 2 15 16 12 3 7 14 13 12 13

GFSSW_925_spd_003.txt.gz
Wind_Speed
14 14 15 16 16 18 19 19 19 17 16 14 13 13 9 7 7 6 6 9 5 9 4 5 4 11 16 5 9 6 3 3 5 7 7 11 5 4 9 13 7 4 6 9 24
14 14 15 16 17 19 19 22 20 18 17 14 14 13 9 8 7 10 13 11 9 5 7 10 6 9 4 5 5 5 5 11 8 11 10 15 18 13 4 2 5 5 9 27 27
14 14 15 16 17 19 20 22 20 19 18 15 14 12 6 6 4 2 5 13 8 8 9 10 13 6 6 7 8 7 6 9 9 15 18 18 14 12 6 3 7 13 20 20 23
15 15 16 17 18 20 20 21 20 19 18 16 13 9 3 3 4 2 7 13 9 7 11 15 8 5 4 6 10 7 14 13 12 13 10 2 9 12 7 5 1 19 17 18 16
15 16 17 18 19 20 21 21 21 19 19 15 11 5 3 2 6 3 8 9 10 10 12 10 6 6 7 7 10 11 9 8 15 10 4 2 8 11 5 8 7 18 15 14 15
15 17 17 18 19 21 21 21 22 19 18 13 7 4 2 4 3 6 10 12 9 11 12 15 7 8 8 10 9 10 13 7 7 9 4 3 2 4 7 11 12 13 13 9 14
16 17 18 19 20 21 22 22 22 19 17 10 4 4 4 9 5 9 12 10 11 13 11 14 15 6 10 10 12 11 10 9 12 14 8 7 2 6 9 15 16 17 16 12 14
17 17 18 19 21 22 22 24 22 20 12 5 3 2 6 6 9 15 9 11 17 12 19 16 10 9 6 11 12 10 8 5 11 14 9 14 7 5 1 9 3 21 19 17 13
18 18 19 20 21 22 24 25 22 14 5 2 2 3 7 9 8 18 14 16 18 13 8 10 8 5 8 7 6 6 1 7 16 20 15 5 8 5 9 12 15 20 20 20 17
20 19 19 20 20 23 25 25 14 2 1 1 8 5 6 9 11 19 19 18 6 6 5 1 3 4 5 3 6 9 5 3 9 8 12 13 16 10 14 16 12 23 30 22 16
23 22 21 21 21 22 27 9 3 1 4 8 4 5 9 9 18 13 17 12 7 4 6 6 3 7 11 11 14 11 9 10 11 17 4 9 7 13 13 15 12 27 22 31 15
24 25 23 22 22 21 17 3 5 5 9 14 19 20 26 11 7 9 19 7 6 8 8 5 9 13 15 15 12 9 7 7 4 20 13 11 7 5 6 6 13 20 20 29 20
24 26 26 22 21 10 10 16 9 13 4 10 15 12 14 13 9 14 15 11 7 9 9 9 14 12 14 11 10 8 6 8 7 9 10 4 3 3 4 5 5 19 17 9 17
25 26 25 25 10 14 8 9 11 13 3 7 8 9 14 8 11 13 24 13 7 13 12 9 15 17 10 6 7 8 10 12 10 2 3 2 5 4 2 4 1 2 12 8 7
26 26 23 20 16 7 12 14 12 6 4 4 7 10 8 15 4 16 27 13 15 13 7 9 9 10 10 9 8 10 10 9 5 7 7 10 3 5 4 2 5 11 8 8 12
26 26 25 8 11 11 16 14 9 0 7 4 6 6 7 7 14 8 13 9 9 11 12 14 14 11 9 9 11 8 6 8 2 3 4 8 3 3 6 7 3 8 14 13 16
28 26 27 15 6 5 11 5 1 4 7 6 7 12 10 10 14 11 13 12 8 6 9 13 15 13 3 4 11 6 2 4 5 3 7 2 2 4 7 7 6 12 16 12 14
30 28 19 19 16 9 9 1 5 8 11 11 6 13 14 13 15 16 10 12 12 11 6 8 8 13 11 10 9 7 9 6 5 3 4 8 3 5 6 5 9 15 19 13 9
30 17 12 14 10 9 1 3 7 5 8 14 15 7 7 14 13 17 16 14 12 11 9 4 12 12 17 9 11 7 2 11 4 4 3 3 4 5 6 7 8 17 19 14 13
22 8 12 16 12 9 1 5 7 10 15 14 13 7 5 7 8 7 11 14 14 17 16 10 10 9 11 12 8 7 5 2 2 3 6 5 4 4 7 8 3 15 14 15 13
6 3 10 22 20 3 4 6 8 16 14 6 12 10 11 8 10 12 10 7 18 15 16 15 7 13 7 2 9 2 3 3 2 4 5 2 5 9 14 5 5 13 11 16 14
7 3 19 27 3 4 7 5 7 19 21 15 8 7 9 14 13 14 11 10 9 15 12 11 7 5 10 14 6 5 8 8 5 9 1 3 4 16 10 8 7 7 8 11 15
5 4 14 18 4 7 8 17 19 19 19 16 9 6 9 10 7 8 11 6 12 9 6 1 3 1 9 8 5 6 8 6 6 4 3 2 3 4 10 10 7 7 7 5 14
4 3 4 5 5 9 12 13 15 17 20 20 14 7 8 9 9 8 12 7 13 3 4 8 2 8 7 6 2 3 8 8 6 4 6 6 9 8 14 16 7 11 21 13 9
3 2 4 3 3 9 9 12 16 17 14 16 6 6 10 7 8 9 11 10 14 2 3 3 1 3 8 7 13 11 10 8 7 9 7 8 15 12 12 14 8 18 20 21 9
5 4 6 8 8 10 9 8 14 19 16 5 6 10 14 8 8 8 8 6 5 10 3 2 3 4 7 11 15 6 21 10 11 12 8 7 3 7 10 21 18 23 26 23 8
15 9 4 6 8 7 8 12 15 14 19 16 14 12 12 14 6 7 7 6 5 2 3 3 3 1 5 9 12 8 3 6 4 2 3 6 7 8 5 7 15 14 16 11 10

GFSSW_925_spd_006.txt.gz
Wind_Speed
13 13 14 15 16 17 18 19 20 17 17 15 14 13 10 7 6 6 6 5 5 8 7 5 5 6 5 3 3 3 4 3 5 5 4 19 12 16 2 6 4 4 3 12 30
13 14 16 16 17 18 19 20 21 19 19 17 15 14 10 7 6 8 7 9 6 10 7 10 5 6 2 3 2 4 3 8 6 9 7 8 13 17 8 5 3 2 3 27 23
14 15 16 17 18 19 19 20 21 20 20 18 14 13 7 6 1 5 2 12 9 7 8 10 9 3 4 2 4 5 6 5 6 14 11 8 8 1 12 3 8 10 17 17 20
14 16 16 17 18 20 20 20 21 21 20 19 13 10 5 3 2 0 5 13 10 7 8 2 3 2 2 3 2 4 7 10 14 18 4 6 7 6 6 7 15 13 19 13 14
14 16 17 18 19 20 20 21 21 22 20 19 12 7 3 2 6 3 7 13 11 11 9 3 3 3 3 4 6 4 7 9 12 4 7 7 9 6 7 7 16 18 18 14 12
15 16 17 18 19 20 21 21 22 22 19 18 10 7 2 3 3 5 11 12 11 13 6 6 5 3 5 3 1 5 13 11 3 6 5 5 5 5 1 14 20 19 18 15 16
16 17 17 18 20 21 22 23 23 21 18 14 6 5 1 9 4 6 10 9 10 15 4 9 7 3 3 9 2 7 6 8 2 2 4 3 4 8 9 13 18 11 6 5 15
18 20 19 20 21 23 25 25 24 20 15 7 3 2 6 5 10 10 10 6 8 11 13 12 18 5 3 3 8 6 5 4 8 4 5 5 4 0 8 15 15 15 9 13 20
21 22 21 21 22 25 26 28 24 12 4 1 2 1 8 2 8 12 11 7 13 13 15 18 4 3 3 3 5 5 3 6 9 4 3 3 2 8 14 16 13 10 12 7 14
24 25 23 22 23 26 28 29 8 4 3 2 3 3 6 5 9 16 16 12 5 5 3 1 4 1 3 4 4 5 2 5 8 5 5 1 8 6 15 15 13 10 15 17 21
25 26 26 23 22 25 28 8 4 3 1 6 3 4 7 10 11 11 20 6 3 4 2 3 3 7 9 9 7 5 4 8 7 8 1 4 3 2 13 15 13 8 7 12 7
25 26 28 24 21 22 12 3 2 4 8 10 17 14 25 16 5 6 19 6 5 5 2 4 8 13 6 8 8 8 7 6 8 7 4 8 7 12 3 7 14 14 7 5 4
25 26 28 25 19 7 12 11 13 12 2 8 8 7 7 10 8 9 12 6 4 5 5 7 9 3 6 10 8 6 4 6 6 4 1 6 5 7 2 5 9 10 9 9 11
25 26 26 29 6 14 7 20 16 14 3 7 5 8 6 8 5 12 21 7 4 11 8 7 14 15 14 7 5 5 10 5 6 4 2 6 4 2 5 6 11 13 14 14 12
26 26 23 19 14 6 12 16 15 3 3 2 4 5 9 10 4 7 21 4 9 7 6 9 4 3 5 10 6 10 6 7 4 3 2 4 4 6 4 8 13 19 13 14 18
28 25 25 9 13 10 17 11 4 4 6 5 4 6 7 5 5 4 7 3 6 4 7 9 8 4 7 12 9 4 2 6 5 3 4 5 5 5 5 6 5 3 8 12 15
30 24 25 18 5 2 16 4 4 3 5 3 2 4 6 7 8 5 7 7 6 3 5 6 11 9 8 7 4 5 6 4 5 5 6 3 2 7 5 1 5 9 7 5 5
30 24 16 17 11 6 4 5 4 6 7 5 7 5 4 5 6 5 8 7 7 3 3 3 8 10 4 10 8 5 8 6 5 3 6 4 3 5 3 10 4 6 6 10 8
27 13 9 12 9 9 5 3 7 6 4 7 8 0 4 6 5 8 10 14 13 11 9 6 8 3 4 5 9 5 3 7 6 2 3 2 1 7 8 13 5 9 9 8 6
20 9 8 6 13 10 4 5 5 2 6 5 1 3 6 8 1 5 7 9 12 18 8 8 6 15 19 5 5 10 5 3 3 2 4 5 2 5 6 3 6 4 4 5 5
5 4 5 20 17 5 3 6 5 4 8 6 4 5 2 1 2 1 5 7 18 15 16 7 5 19 3 4 6 3 1 4 5 6 5 2 5 6 10 10 10 6 7 3 8
8 2 12 26 4 2 2 3 6 5 7 6 4 6 6 1 2 4 4 1 11 19 11 13 7 8 12 5 6 8 10 6 5 6 3 5 5 2 4 10 11 9 11 9 7
3 3 7 13 3 2 5 5 6 11 8 5 5 3 5 1 3 3 5 7 8 4 7 8 4 1 10 7 6 3 6 4 5 4 5 6 5 3 2 9 3 9 10 6 8
1 4 4 4 1 2 3 5 5 7 9 11 9 5 5 3 4 6 6 8 15 9 6 8 4 9 9 7 2 5 7 2 7 4 5 6 5 4 4 10 8 6 3 7 7
2 2 1 3 4 6 1 4 6 7 5 2 7 6 7 3 5 6 6 8 7 4 6 4 2 3 5 3 1 2 5 7 2 5 6 7 13 17 15 10 8 8 11 10 13
3 3 5 4 5 5 2 3 3 8 5 9 3 14 8 7 9 8 6 2 6 7 6 4 3 1 4 4 5 3 10 3 14 18 4 9 2 8 8 9 8 8 15 18 12
7 6 3 5 6 3 2 8 9 11 6 7 10 8 7 9 8 9 6 5 5 4 4 3 2 3 3 4 4 3 4 3 3 2 6 5 8 11 8 11 15 12 13 19 13

GFSSW_925_spd_009.txt.gz
Wind_Speed
14 14 14 15 16 17 18 18 20 19 19 18 14 10 9 5 6 6 6 6 11 11 9 5 4 4 2 2 3 3 4 1 5 7 4 6 5 1 1 2 2 5 6 8 25
15 15 15 16 18 18 19 19 20 21 20 20 16 11 7 4 4 10 7 13 9 13 9 9 2 2 3 2 2 4 3 6 5 4 5 9 10 9 3 4 4 3 3 24 26
15 16 17 18 18 19 19 20 20 22 21 20 17 11 5 5 2 5 5 15 12 14 6 6 1 1 2 1 1 3 3 4 8 11 9 8 15 10 6 4 9 11 18 16 20
16 16 17 17 18 19 19 20 21 22 22 19 16 10 5 2 3 1 9 16 13 14 7 5 1 1 2 2 3 2 6 3 8 11 7 7 7 7 10 9 7 17 20 16 16
16 17 18 18 19 20 20 21 22 22 21 18 14 9 3 2 6 3 15 16 14 12 9 4 3 2 1 2 4 4 3 4 8 11 9 7 11 8 13 5 16 19 16 15 11
17 18 20 20 20 21 22 23 23 22 20 17 11 7 3 3 2 7 14 15 11 13 8 5 5 5 2 2 2 4 7 11 6 6 1 8 4 6 2 13 16 17 11 10 10
20 19 21 22 22 23 23 24 24 23 18 13 6 4 1 9 3 9 11 10 13 15 5 6 5 1 1 7 2 5 7 10 6 4 4 7 3 2 5 11 17 14 11 9 7
22 22 22 22 23 24 26 26 28 20 12 6 2 2 6 5 5 11 12 8 7 13 5 4 4 3 2 2 8 5 2 4 2 3 3 2 4 2 10 18 12 10 8 9 9
23 24 24 23 24 25 26 29 16 8 2 2 3 2 8 1 6 12 12 6 8 9 7 8 3 1 3 4 5 5 4 2 8 2 1 4 4 5 9 16 13 9 7 11 11
24 25 25 23 24 25 26 22 5 4 4 3 1 2 3 3 5 11 13 7 3 2 2 1 5 3 3 4 4 3 3 5 6 1 2 3 4 2 4 13 14 11 12 11 7
24 25 26 23 22 23 24 4 4 3 1 5 2 3 4 8 6 9 11 7 1 4 3 2 3 7 9 7 3 3 3 7 11 5 4 3 9 12 8 3 7 7 9 8 1
25 26 26 24 20 18 10 4 4 8 9 8 13 8 15 4 4 1 14 5 4 5 3 5 6 6 6 5 5 5 4 8 9 4 4 2 5 3 6 7 7 9 9 8 3
25 26 26 25 17 4 10 4 18 9 2 8 6 6 6 12 7 6 10 5 4 5 4 5 6 3 5 3 4 4 5 5 6 4 2 3 4 3 1 1 4 8 7 2 8
26 26 25 27 2 14 5 16 15 2 4 7 4 8 6 8 4 12 16 6 2 8 5 5 8 7 1 6 6 5 5 6 5 3 2 3 3 4 5 7 7 9 8 6 6
26 26 23 18 11 5 7 15 9 2 3 3 4 1 2 9 5 2 10 4 8 6 6 8 2 2 4 6 5 10 4 4 1 2 2 2 4 5 1 7 10 9 9 10 6
26 25 22 9 12 9 11 11 2 5 6 6 4 5 6 3 3 4 4 4 4 3 3 8 3 2 5 6 5 10 2 6 5 4 3 4 4 3 4 7 2 6 13 8 10
27 22 19 13 3 2 14 3 5 3 5 6 3 3 2 6 6 4 7 5 6 2 5 5 6 5 5 4 4 5 6 4 5 5 5 2 2 7 6 8 7 16 10 8 6
29 23 11 12 5 4 2 5 4 3 5 6 5 3 4 2 2 3 6 5 5 4 2 3 8 3 2 8 7 5 8 6 5 3 5 3 3 4 7 9 6 6 8 7 6
27 12 8 6 14 7 5 3 8 5 4 7 8 4 6 6 2 4 9 8 8 9 8 5 6 4 3 3 5 2 3 5 7 2 2 3 5 6 5 4 8 13 12 10 12
18 8 6 2 15 7 4 5 4 4 4 4 3 3 4 6 3 3 7 4 5 10 5 4 7 7 4 3 2 6 6 3 3 3 3 4 4 5 5 6 7 10 12 15 16
5 3 7 13 16 5 4 6 4 4 7 5 1 3 3 2 0 1 4 4 5 5 13 5 5 14 3 3 5 1 1 6 5 4 6 3 6 7 9 8 8 9 12 12 19
5 3 4 18 4 1 2 4 4 2 5 5 3 6 4 4 2 2 5 4 5 4 8 8 5 7 11 6 3 4 7 6 5 5 2 4 6 4 9 8 9 9 12 13 19
2 2 4 4 3 1 4 4 2 2 2 2 3 4 3 2 5 4 4 5 3 2 4 6 4 5 10 6 3 3 0 4 5 4 6 6 6 1 5 4 3 6 12 12 11
2 2 4 4 0 2 2 3 3 4 6 5 6 3 3 3 6 4 2 5 9 7 7 7 4 8 12 9 4 4 3 4 5 3 4 6 5 4 7 9 7 6 7 12 12
3 0 2 2 2 3 2 2 3 4 3 1 4 1 3 5 2 5 2 5 7 5 5 4 5 6 2 3 4 4 4 8 5 5 6 4 7 8 16 12 10 8 7 9 8
2 2 4 2 3 4 5 4 5 4 3 3 4 11 5 5 8 7 3 2 7 6 6 4 2 1 3 4 1 3 4 4 2 4 2 0 8 4 9 6 5 7 5 8 7
5 3 3 3 4 2 1 4 4 5 4 2 7 4 5 1 8 13 8 5 6 2 2 2 2 3 2 1 0 4 3 3 1 1 3 3 5 6 9 10 9 8 5 7 5

GFSSW_925_spd_012.txt.gz
Wind_Speed
13 14 14 15 15 16 17 17 17 18 18 16 14 10 9 7 8 7 5 7 3 6 5 3 0 2 2 3 1 3 4 1 4 3 5 3 2 2 3 5 2 6 5 4 24
14 15 15 16 17 17 17 17 17 18 19 17 16 11 9 5 4 8 7 7 8 11 7 2 2 3 3 2 1 4 4 8 7 5 5 4 5 3 2 2 3 2 4 20 24
15 15 16 17 17 17 17 17 19 18 18 17 15 10 7 5 1 5 3 12 13 11 2 3 3 2 3 2 0 2 4 7 6 9 6 5 5 4 7 5 6 8 10 14 19
16 17 17 17 18 18 18 18 20 19 17 15 14 8 5 2 2 1 6 15 10 11 3 3 3 2 1 1 1 1 6 4 4 6 5 7 3 5 8 9 7 10 18 14 13
18 18 18 18 19 20 20 20 20 19 17 13 11 6 1 2 5 0 14 14 12 12 4 3 2 1 1 2 4 2 4 5 9 7 7 7 11 6 7 2 6 14 17 14 12
20 20 21 20 21 22 22 23 23 22 18 12 6 2 1 2 3 7 15 15 11 11 6 3 3 3 3 1 2 3 6 8 8 5 1 6 5 8 1 8 13 15 13 13 14
22 22 22 22 22 23 24 24 25 25 15 7 1 1 1 6 1 11 13 11 8 11 4 5 1 2 1 5 1 4 7 7 5 4 2 5 2 7 6 10 15 14 12 11 11
23 24 24 24 23 23 25 27 27 15 6 2 3 2 5 2 3 11 13 7 6 10 2 1 2 1 1 2 7 3 3 5 4 5 3 5 9 3 6 14 13 12 9 8 11
24 25 25 25 23 23 25 28 12 7 5 6 2 2 5 1 5 10 11 5 7 8 4 4 2 2 5 4 5 7 2 2 8 4 1 1 7 3 2 4 7 8 8 7 1
25 25 27 25 22 22 24 20 3 3 3 3 1 2 1 2 4 10 11 10 3 4 2 2 5 3 4 4 4 2 0 3 5 6 1 4 7 1 5 5 8 8 6 5 5
26 27 27 26 21 19 19 5 5 3 2 4 2 2 4 6 5 5 9 6 4 6 3 3 3 6 8 5 2 1 2 3 5 7 2 4 5 4 5 5 8 9 6 7 6
26 27 27 24 20 11 9 6 5 5 7 6 7 6 8 0 3 3 13 5 4 4 3 5 5 8 3 3 4 2 2 6 8 2 2 2 5 4 2 3 6 4 6 5 5
26 27 27 24 11 3 5 3 12 3 2 7 5 4 5 11 7 6 10 5 4 5 5 5 1 7 4 4 4 3 4 4 6 5 2 3 3 5 2 2 6 5 3 2 4
25 26 27 26 2 11 2 10 13 6 5 6 4 5 4 8 3 8 11 6 3 10 7 4 4 4 1 3 6 2 5 3 5 1 2 2 4 5 3 5 5 7 1 1 0
24 25 23 18 9 2 5 14 6 2 3 1 2 1 3 8 6 1 7 4 8 6 6 6 2 3 2 4 6 7 2 3 2 2 3 3 4 7 5 6 7 8 5 5 4
23 22 20 8 10 7 9 11 2 5 6 4 2 2 4 2 2 3 4 5 3 5 0 5 2 3 6 3 6 5 3 7 5 3 3 3 4 6 3 4 4 4 7 9 5
25 20 17 11 2 4 11 2 4 3 5 5 3 4 3 3 2 3 6 6 6 4 2 4 5 4 6 4 1 4 6 3 4 4 5 1 1 9 3 5 5 6 6 10 8
24 19 10 10 3 3 2 5 4 2 5 5 4 3 2 3 5 3 7 5 2 5 3 2 8 3 3 8 7 4 7 5 4 3 4 1 4 5 4 6 7 3 10 9 10
23 8 5 2 15 4 5 3 7 5 3 6 4 6 5 4 3 3 7 7 8 9 8 5 5 4 3 4 7 3 3 3 7 3 2 3 6 9 2 4 4 7 8 7 7
14 6 4 5 11 4 4 4 3 4 4 4 2 2 4 5 3 3 6 3 6 10 4 5 4 4 3 2 2 4 6 3 2 4 3 4 5 5 5 5 5 7 9 8 4
4 2 11 8 7 5 4 6 4 4 5 4 1 2 2 3 1 2 3 2 3 4 8 7 5 5 4 3 7 2 2 5 5 4 6 2 6 8 9 9 14 12 9 9 7
4 3 5 2 3 1 3 5 3 2 3 3 0 2 1 3 3 2 3 4 2 2 7 6 5 4 10 5 1 3 5 6 5 4 2 4 6 2 6 6 8 5 6 3 4
2 1 2 5 3 1 4 3 2 1 1 2 2 1 2 2 3 3 2 1 3 1 5 7 2 2 9 6 1 4 4 4 5 3 6 6 6 3 5 5 7 11 9 4 6
2 2 3 3 0 2 2 1 1 2 3 3 3 2 3 3 3 4 3 3 8 3 5 6 3 7 7 8 3 4 4 5 6 4 4 6 5 6 8 8 6 5 7 8 6
3 0 1 1 2 3 2 5 2 4 5 6 2 4 2 2 3 4 3 5 5 3 1 4 5 4 5 4 4 3 5 6 4 5 5 4 7 7 11 13 7 7 7 10 9
2 2 4 0 2 0 2 2 2 3 1 2 3 6 3 5 0 4 5 3 5 5 4 2 1 2 3 2 8 5 6 7 5 4 3 3 8 4 4 7 6 8 9 11 11
5 2 2 2 2 2 1 0 1 2 3 4 3 2 3 3 5 12 8 9 6 5 2 4 2 3 3 3 0 2 6 6 4 4 6 5 6 2 2 6 6 6 9 12 10

GFSSW_925_spd_015.txt.gz
Wind_Speed
13 12 12 13 14 14 15 15 16 16 16 16 15 11 10 9 8 6 6 5 1 11 2 5 4 2 2 2 2 1 2 3 2 2 4 2 2 4 6 7 3 5 3 4 18
13 13 13 13 14 14 15 16 17 16 16 15 14 12 10 9 6 7 5 6 5 7 4 4 4 2 1 2 2 2 2 4 2 3 6 5 3 5 6 7 4 5 6 17 22
14 14 14 14 14 14 15 16 18 17 17 15 14 12 11 8 3 2 4 7 9 9 4 4 5 2 1 0 1 1 1 2 3 10 8 9 6 4 4 6 9 10 13 18 21
15 14 15 15 14 15 16 16 18 18 17 14 12 11 8 3 1 3 3 9 13 8 6 3 3 2 2 1 1 3 3 3 3 3 5 8 3 3 10 9 2 9 18 19 19
17 16 16 16 15 16 17 18 19 19 18 13 10 8 3 2 3 4 9 11 9 7 3 3 3 1 2 3 2 3 2 5 8 11 10 8 10 7 9 13 5 9 17 19 19
18 18 18 18 17 17 17 18 20 21 18 11 7 3 1 2 4 3 11 11 7 7 4 2 2 2 1 1 3 4 8 10 6 5 3 4 0 4 1 5 9 15 16 17 18
20 20 20 20 19 18 19 20 22 21 13 5 4 1 2 3 2 9 10 6 6 6 3 1 3 3 2 3 4 5 6 3 6 6 3 3 4 8 3 4 8 14 14 16 12
21 22 22 21 20 18 18 20 19 11 4 4 5 3 4 3 2 10 10 5 4 6 3 2 3 2 2 4 3 2 0 6 3 8 2 3 9 1 4 8 10 12 13 13 10
22 23 23 22 19 18 18 18 6 5 6 6 3 1 2 1 4 10 9 3 5 6 0 1 2 2 1 1 2 3 6 3 5 4 5 2 11 3 5 7 9 10 11 9 9
23 24 25 23 19 18 15 11 1 1 2 2 1 2 2 2 4 9 10 10 3 5 2 2 2 1 2 3 4 4 1 2 4 1 6 8 13 3 5 9 11 10 9 7 7
23 24 25 23 19 14 10 3 2 2 1 3 1 2 3 2 7 5 7 6 4 2 4 2 4 6 4 4 4 2 2 5 5 4 4 4 10 7 3 8 7 7 6 6 6
23 24 25 22 18 7 5 5 4 2 6 4 8 6 6 2 3 4 10 5 3 5 3 2 6 4 3 4 2 2 3 6 9 1 3 5 9 5 4 6 6 7 8 7 7
24 24 24 23 9 3 5 8 7 5 3 4 4 4 4 9 4 10 12 5 5 6 7 4 3 8 5 4 6 4 4 2 4 8 1 3 4 3 1 5 6 6 6 8 8
23 23 23 22 2 8 2 4 8 9 3 2 3 3 5 5 5 7 16 6 3 11 6 5 3 5 3 3 6 2 6 5 8 4 4 3 4 4 2 9 5 9 11 10 10
21 21 19 16 9 3 2 10 3 3 1 1 3 2 2 7 9 5 8 3 9 7 5 2 6 6 5 3 7 3 2 4 4 3 3 2 4 2 3 4 3 8 12 14 12
21 19 16 8 8 5 7 8 4 1 4 2 3 3 7 4 2 4 9 3 3 5 1 4 1 3 4 4 7 1 2 2 2 1 5 1 3 3 3 1 4 0 11 15 13
23 16 13 9 1 3 8 2 2 4 3 2 2 2 3 7 4 5 13 12 7 5 5 3 6 3 5 5 4 5 2 2 3 3 3 2 3 6 4 2 2 5 9 14 12
21 14 6 8 2 2 2 2 3 2 3 3 2 1 3 4 5 4 12 11 5 3 3 1 2 4 5 9 4 9 7 4 3 2 1 1 4 1 1 6 4 8 10 13 12
18 5 1 3 6 2 2 3 4 3 3 4 1 2 2 2 3 7 7 9 9 11 6 4 3 2 5 3 8 4 5 2 4 1 3 1 4 6 2 4 2 7 11 12 11
9 2 5 6 8 2 3 2 2 3 3 1 0 1 2 2 4 9 8 2 5 13 7 4 4 2 1 5 4 4 8 3 1 4 4 2 4 4 4 8 7 12 13 10 9
2 2 11 11 3 1 4 4 3 4 2 2 1 1 2 2 2 3 5 2 2 4 8 6 5 2 2 5 5 3 3 2 1 2 3 2 3 5 3 7 10 8 8 8 7
3 2 2 8 2 1 3 3 2 1 1 2 1 1 2 3 1 2 2 1 2 5 8 6 3 5 6 1 1 2 2 5 4 4 0 3 4 3 5 7 9 9 10 9 9
2 1 2 4 2 2 1 1 1 0 1 1 1 2 2 1 1 1 1 1 2 4 5 8 4 3 3 3 3 5 5 4 4 2 6 5 5 3 4 6 5 11 11 11 12
0 2 2 3 1 1 2 1 3 2 1 2 1 1 2 2 2 2 1 1 5 1 1 9 4 5 7 2 2 4 6 8 4 4 5 7 7 7 7 8 9 10 13 15 13
3 2 2 3 1 2 0 0 2 2 2 3 3 4 1 1 1 2 0 4 1 1 3 4 4 5 11 9 8 4 8 10 7 5 4 4 7 8 5 4 12 10 13 16 14
2 1 1 2 1 1 2 1 2 0 1 2 3 5 2 3 1 1 7 1 2 3 2 1 1 2 4 3 10 11 13 11 7 5 5 4 8 5 3 4 11 10 12 13 14
4 1 2 2 1 2 3 3 2 2 1 0 4 3 1 1 7 11 9 10 6 4 3 1 2 3 5 2 4 5 13 13 8 8 5 7 3 3 1 6 11 12 12 13 14

GFSSW_925_spd_018.txt.gz
Wind_Speed
11 12 12 13 13 14 14 15 16 16 17 17 16 15 12 10 8 3 6 1 5 8 4 3 3 4 5 2 3 3 5 5 5 2 6 6 3 2 1 7 4 6 4 10 19
11 11 12 13 13 14 15 15 16 16 17 17 17 16 13 12 5 7 4 4 3 10 4 4 5 7 4 2 2 6 5 4 5 6 8 6 4 2 6 6 4 7 7 17 21
13 11 11 13 13 14 15 15 17 17 17 17 17 16 15 8 5 6 3 5 10 8 4 4 5 6 5 4 1 1 6 2 3 5 9 9 6 5 8 5 6 10 13 17 19
13 14 13 13 13 15 15 16 17 18 17 17 16 16 14 3 1 5 4 8 12 5 6 6 5 5 5 4 1 5 2 2 5 8 10 10 8 6 9 6 6 4 15 17 17
15 15 15 14 14 15 16 17 17 19 18 16 12 12 6 6 4 5 8 10 9 3 5 4 5 3 5 2 3 6 1 4 7 9 9 5 7 8 7 4 7 7 15 16 16
17 17 16 16 15 15 15 17 17 19 17 12 8 8 5 4 4 3 8 8 5 6 5 2 2 2 1 1 6 3 7 8 5 3 2 8 3 3 4 4 5 10 12 13 16
17 18 18 17 16 15 16 17 18 17 12 8 4 2 4 5 3 5 6 2 4 3 5 3 3 4 1 4 3 6 10 6 4 5 5 9 13 3 4 1 4 9 9 11 14
18 19 19 18 17 16 16 17 17 11 8 2 2 1 4 2 1 5 5 4 3 4 3 3 3 2 4 4 8 8 7 11 9 5 5 7 7 6 2 2 4 8 8 12 12
18 19 20 19 17 16 16 15 7 2 3 4 0 4 2 1 4 8 6 3 6 5 2 1 4 3 4 7 7 8 12 3 2 3 6 3 10 5 1 2 4 8 9 11 11
18 19 19 18 17 15 14 10 2 1 1 0 2 5 4 3 6 7 6 6 4 9 5 4 4 6 5 7 6 4 7 5 7 2 6 5 7 3 1 4 5 9 9 11 10
19 20 19 18 17 12 7 2 5 5 8 5 2 3 4 5 7 8 8 9 9 10 7 4 7 5 4 1 3 2 5 7 6 3 7 4 8 6 1 5 6 8 9 11 10
19 20 20 18 15 5 4 3 4 5 6 6 9 6 5 1 6 11 11 10 10 10 5 6 8 2 3 4 6 8 7 7 5 2 7 6 10 4 3 4 4 8 10 13 12
19 19 19 17 7 3 2 3 6 3 6 5 5 7 6 9 6 16 16 8 10 10 10 9 7 4 8 8 9 8 8 2 6 7 7 6 14 5 5 4 5 7 10 13 13
19 18 18 16 1 4 3 2 8 5 5 8 6 5 8 7 7 13 19 8 6 10 5 7 7 8 6 6 8 7 2 4 7 7 6 3 7 5 2 3 7 10 11 12 13
19 18 14 12 8 3 1 6 2 4 6 6 6 6 7 13 11 10 18 8 8 7 7 6 9 12 10 8 9 4 1 6 7 10 6 9 7 2 4 3 1 9 11 10 12
20 17 13 5 4 4 5 7 4 5 5 6 6 9 13 14 8 10 14 8 1 6 7 2 2 4 5 5 8 3 7 7 7 9 10 1 5 4 2 3 1 2 8 12 12
22 14 10 5 1 5 6 5 6 6 3 7 6 8 12 13 10 15 18 16 10 8 11 11 13 7 9 10 9 10 10 8 7 7 4 3 6 6 4 2 5 2 8 12 11
20 11 5 6 4 6 6 6 7 0 2 3 2 5 11 13 11 11 16 16 17 8 2 7 8 11 9 14 9 12 14 10 7 8 2 5 5 2 1 2 3 4 6 12 12
13 1 2 1 5 4 8 9 3 3 2 1 3 9 7 10 6 12 14 16 13 15 6 6 5 6 6 1 7 8 9 11 10 7 9 7 3 8 4 4 4 5 10 12 11
5 2 2 5 4 8 9 9 2 0 1 2 6 4 8 12 10 13 14 9 11 12 14 2 4 7 4 4 4 7 2 7 9 8 8 5 3 2 4 5 6 6 10 10 9
2 4 5 5 2 6 10 7 4 4 0 2 3 4 2 5 8 14 13 6 6 12 14 9 7 8 6 10 8 8 10 8 7 5 8 5 5 5 3 1 6 8 12 12 12
4 3 2 2 7 4 9 4 1 8 4 2 1 1 1 2 6 7 9 1 3 8 8 14 7 9 12 4 5 8 10 9 8 11 9 8 4 6 2 2 5 10 13 13 11
2 2 2 4 6 9 3 7 3 8 5 4 4 2 1 3 4 3 5 5 2 6 10 9 7 9 10 10 7 11 12 13 9 7 9 9 8 6 4 4 5 12 14 14 14
3 3 4 4 1 6 7 9 9 2 3 3 2 3 4 5 1 4 8 6 2 1 4 5 5 10 11 7 5 14 13 14 14 11 10 10 10 4 5 5 8 12 15 15 15
2 2 5 5 5 4 7 3 11 7 4 7 6 8 7 7 8 6 4 5 5 5 2 5 7 10 12 9 7 12 7 13 15 17 7 3 3 6 4 3 7 12 16 16 16
3 3 3 2 2 5 4 4 7 5 6 9 10 6 8 9 7 7 2 3 1 4 3 3 6 6 11 7 8 11 13 11 15 10 10 8 7 7 3 2 7 14 17 17 17
4 1 4 4 5 8 7 7 6 3 3 3 1 7 8 2 5 7 7 7 7 4 2 3 6 7 13 3 8 10 13 14 17 14 13 12 4 3 2 1 6 12 16 17 17

GFSSW_925_spd_021.txt.gz
Wind_Speed
12 11 12 13 13 13 14 15 15 16 17 18 17 16 16 15 12 4 6 2 3 8 3 4 8 10 10 11 9 12 5 6 5 9 8 7 4 7 3 8 2 3 9 15 19
11 12 12 12 13 14 15 15 16 17 17 18 18 17 17 18 8 11 2 6 7 7 6 7 6 8 11 7 5 9 13 14 13 7 8 4 4 4 5 11 6 7 9 18 20
12 12 13 13 14 14 15 16 17 17 18 18 18 15 16 13 8 7 2 5 7 8 7 7 6 9 11 7 4 11 9 7 7 7 5 7 2 3 3 6 15 11 13 16 18
13 13 13 14 15 15 16 16 18 18 19 18 17 14 16 4 1 5 4 8 9 4 6 5 8 10 10 9 3 10 6 3 6 3 5 8 7 6 2 8 7 9 16 16 16
15 15 15 15 16 16 17 17 18 19 20 17 13 11 6 8 6 2 5 9 5 4 7 6 8 8 10 2 5 9 3 3 3 5 7 8 11 5 7 4 8 11 14 17 15
15 16 16 16 16 17 18 18 19 20 19 14 9 8 5 9 3 6 7 6 4 6 3 7 2 5 7 6 9 5 6 8 8 3 6 8 9 1 7 2 10 9 12 14 15
15 16 17 17 17 18 18 19 19 19 16 11 5 4 9 2 3 7 8 3 3 6 4 1 3 9 2 10 4 10 11 14 12 4 6 12 18 5 4 3 7 10 11 11 15
16 17 18 17 17 18 19 20 18 17 12 7 2 4 7 3 4 7 7 5 5 5 4 3 6 11 9 6 11 13 16 14 10 1 5 12 7 8 3 7 8 9 10 12 14
17 18 18 16 18 18 18 17 15 10 6 2 4 6 5 4 10 11 9 6 6 6 3 5 11 12 6 12 14 15 13 18 5 6 4 7 10 11 1 3 9 9 10 13 13
18 18 18 17 17 18 16 15 10 6 5 6 8 7 7 7 12 10 8 6 7 7 7 9 8 10 11 10 11 7 12 7 4 4 3 12 8 7 7 4 6 10 10 12 13
18 19 19 17 17 16 10 6 6 7 12 10 1 6 4 5 7 11 11 10 8 8 12 9 10 12 10 4 11 9 7 8 7 2 6 15 5 13 5 6 7 9 9 11 12
19 19 19 17 17 9 8 7 8 6 9 15 12 7 4 7 8 12 14 11 9 12 11 6 13 1 2 6 8 8 9 10 4 1 8 12 11 10 3 2 4 10 9 12 11
20 20 20 15 11 4 8 5 6 7 7 11 11 14 11 11 11 16 16 15 10 13 10 16 9 3 7 9 10 11 10 6 8 4 14 11 18 12 8 5 5 6 11 12 13
20 20 19 15 4 4 7 1 6 4 6 14 10 9 15 11 11 11 19 11 9 11 10 11 4 5 9 10 8 15 6 4 9 10 9 2 11 12 10 9 9 7 7 11 14
21 20 16 12 12 7 4 4 5 4 7 13 11 9 11 14 12 13 18 12 12 9 5 5 7 9 9 8 5 3 3 7 9 11 12 11 7 3 8 5 7 5 10 7 12
21 19 13 4 7 8 5 5 5 7 9 9 10 13 16 20 10 13 15 13 9 10 11 12 1 7 12 6 8 4 8 12 12 13 12 13 4 11 5 9 3 5 8 10 13
22 15 10 7 0 3 6 8 7 10 6 10 12 17 19 15 16 13 18 17 11 11 13 14 13 10 7 9 10 10 11 10 11 11 9 8 5 9 7 6 2 3 10 13 14
19 11 7 11 6 5 8 8 11 13 8 4 3 13 17 18 18 17 17 17 20 14 11 11 14 17 11 14 10 11 12 11 15 10 5 6 3 3 6 2 3 3 10 14 14
11 4 8 5 8 7 7 11 11 9 4 7 7 12 14 15 11 17 18 19 18 17 12 8 6 8 4 7 11 14 11 15 17 18 12 14 7 8 8 2 5 7 10 14 14
7 8 7 5 7 10 9 18 8 5 2 8 11 11 13 13 12 17 17 17 18 16 15 3 6 10 10 7 9 12 9 9 9 15 16 8 5 4 9 8 11 7 11 12 12
6 5 5 6 10 8 12 19 16 4 6 5 10 5 11 12 16 15 12 4 13 15 13 15 6 7 7 11 14 9 11 12 16 10 10 4 6 10 5 7 12 8 11 12 12
8 4 6 9 8 11 13 16 4 7 9 8 4 7 4 6 9 12 16 9 5 8 17 16 8 10 14 10 6 11 12 12 9 13 11 11 4 20 8 9 4 9 12 13 13
4 2 5 10 8 10 13 7 3 13 10 9 9 5 3 5 6 9 8 12 4 9 4 10 7 10 13 11 13 11 14 13 9 12 11 12 2 9 10 1 4 10 13 12 13
5 5 4 7 9 9 15 11 12 7 10 8 6 2 7 8 5 6 7 5 4 9 9 5 11 11 14 4 12 14 14 13 13 12 13 16 13 12 17 11 7 9 13 13 13
4 2 5 7 10 11 6 7 16 10 13 10 9 11 10 8 10 7 12 9 9 5 5 9 12 14 17 18 12 11 12 14 13 15 17 10 6 17 6 7 10 10 13 14 15
6 5 3 3 4 7 7 11 12 14 7 10 14 13 11 9 10 10 11 9 10 12 13 10 8 13 16 15 14 13 12 14 16 13 18 22 5 29 7 8 4 8 14 14 15
9 6 6 6 8 9 9 10 10 4 7 10 10 13 8 6 9 9 11 6 7 7 6 8 10 11 13 17 20 14 15 15 16 14 16 12 7 8 7 9 3 6 11 14 14

GFSSW_925_spd_024.txt.gz
Wind_Speed
13 13 13 14 14 14 15 16 16 17 18 18 18 17 17 17 13 5 7 2 2 7 11 13 14 15 18 16 19 9 3 9 6 16 13 11 10 10 4 12 9 10 14 22 24
13 13 14 15 15 15 15 16 17 18 18 20 19 17 17 19 6 10 4 5 8 9 8 10 10 10 11 14 4 12 6 7 13 11 7 11 2 3 17 21 15 7 19 24 24
15 14 14 15 16 16 17 17 18 18 20 21 19 17 17 16 9 5 1 3 5 6 8 12 13 11 15 12 8 9 9 17 2 6 6 12 4 2 13 14 24 14 16 18 21
16 16 16 16 17 17 18 19 19 19 21 21 19 15 17 3 2 4 4 4 5 4 13 12 9 10 13 5 1 11 22 6 8 3 6 10 8 9 7 15 28 20 18 17 17
17 18 18 18 17 18 19 19 20 20 21 19 16 13 7 8 4 5 6 6 4 9 12 8 9 10 13 6 3 10 5 0 3 4 5 5 9 5 4 17 14 18 18 16 15
17 19 20 20 18 19 20 20 20 19 20 17 13 11 5 11 6 8 8 6 8 6 4 8 8 11 9 5 8 6 6 9 8 8 5 5 17 1 9 4 14 16 17 16 16
18 20 20 20 19 20 20 20 20 19 17 14 10 7 10 7 2 7 7 7 2 9 6 3 8 9 8 7 11 5 11 12 15 11 4 14 14 13 4 7 16 13 12 16 15
19 20 20 20 20 22 21 20 18 17 14 10 8 4 7 3 4 7 9 6 5 6 8 4 8 12 12 12 8 11 14 14 15 8 6 6 12 7 4 11 11 10 11 11 14
20 21 20 20 21 22 21 20 17 16 12 8 7 6 11 3 9 11 10 9 6 7 6 7 9 12 14 10 12 16 12 15 6 7 4 3 8 11 6 6 8 8 6 10 12
21 22 22 20 20 22 20 18 19 14 8 6 12 9 10 9 10 14 12 7 7 6 8 8 8 11 11 11 13 12 11 10 17 3 9 6 12 4 8 3 11 13 8 9 11
22 23 23 20 18 20 21 9 5 4 9 10 8 11 7 4 7 10 12 9 11 6 10 12 9 12 16 11 10 10 13 12 9 1 4 9 13 3 7 3 5 16 11 10 11
22 24 23 20 18 16 13 6 8 7 9 14 18 13 2 6 10 12 13 10 11 11 13 10 11 16 3 7 8 10 10 10 10 3 3 11 12 12 5 7 1 15 15 12 13
22 24 22 19 18 9 10 12 8 9 7 14 17 18 11 12 13 14 16 16 11 12 14 14 2 6 2 5 8 11 10 11 6 10 9 14 15 17 11 11 7 2 17 11 14
21 22 21 20 8 9 11 1 7 5 5 13 14 12 17 12 15 15 20 14 9 13 13 10 14 2 5 9 11 13 2 1 7 10 12 1 9 7 13 12 12 11 10 13 15
21 21 18 14 14 7 6 6 7 6 5 12 16 11 14 15 4 15 19 17 16 11 8 12 12 5 9 10 4 11 4 8 9 11 14 15 8 9 8 8 14 12 13 13 16
21 20 16 3 8 12 10 8 8 6 10 8 10 12 17 16 17 15 16 18 11 13 10 16 2 7 11 8 7 11 6 10 12 12 12 14 13 6 7 8 1 11 15 17 14
21 18 13 10 4 5 8 8 5 9 15 12 15 15 20 17 20 12 18 17 14 10 12 12 13 10 7 8 8 10 9 9 10 12 8 7 13 10 9 12 6 9 16 15 15
23 16 9 15 7 8 9 7 10 12 22 8 11 18 19 19 20 17 17 16 19 17 11 12 14 19 12 11 11 12 10 8 14 14 3 7 6 13 10 11 10 4 17 17 16
20 6 8 6 11 8 6 10 11 17 11 8 8 8 17 20 13 19 19 18 18 18 16 11 10 13 14 8 10 12 11 13 13 15 14 14 6 10 5 9 12 13 18 17 17
11 12 13 11 9 8 7 16 18 7 8 3 8 12 15 19 19 20 17 18 19 20 17 12 5 9 10 4 8 12 11 9 8 13 14 11 5 4 4 29 10 13 16 15 16
3 5 9 8 10 6 10 17 17 9 3 4 11 16 15 13 15 14 13 17 19 18 17 14 5 9 11 8 10 7 11 10 14 12 13 13 3 8 12 18 12 12 15 15 16
7 4 9 12 8 8 12 17 18 10 5 7 7 15 10 13 16 14 12 14 10 12 16 12 7 11 14 11 13 13 13 11 7 11 12 12 10 17 17 16 11 13 12 15 14
4 3 7 13 7 11 15 21 22 10 8 7 7 14 5 10 1 7 12 11 8 4 7 3 9 10 12 12 15 8 12 14 13 11 14 5 4 14 9 5 0 12 11 12 13
5 4 5 6 11 15 15 19 16 5 14 9 11 11 8 9 8 8 4 6 4 4 8 6 10 8 12 1 1 15 11 13 15 10 13 13 2 9 13 18 24 16 12 12 13
4 4 6 6 11 13 14 11 12 12 10 9 8 10 9 8 13 9 11 6 6 1 4 4 9 12 15 18 17 15 16 17 14 16 15 16 5 9 6 19 12 31 10 11 12
6 6 11 9 4 8 11 11 9 17 11 14 11 11 12 9 11 7 11 15 5 10 7 11 9 11 16 19 20 19 19 14 16 18 15 15 11 7 10 6 21 24 11 11 12
14 14 6 6 5 6 10 9 12 16 10 6 4 13 13 7 7 10 11 7 9 7 4 7 7 8 14 16 15 15 17 14 15 16 17 16 5 20 19 12 25 12 13 12 14

GFSSW_925_spd_027.txt.gz
Wind_Speed
14 14 14 14 14 15 16 16 17 18 18 19 19 19 17 17 15 5 4 3 5 10 14 15 17 15 17 5 8 7 6 8 8 16 5 8 22 19 15 11 8 4 16 21 30
15 15 15 15 15 16 16 17 18 20 20 20 20 19 17 18 6 8 9 10 9 9 10 12 11 11 4 5 3 4 5 10 10 11 4 7 22 11 5 9 8 17 20 26 27
16 16 16 16 17 16 17 18 19 20 21 22 20 19 16 14 4 3 6 7 5 4 7 13 18 9 8 3 2 3 4 0 7 4 7 7 14 10 13 3 5 19 19 17 22
18 18 18 18 18 18 18 18 19 19 21 21 20 18 17 1 3 3 3 2 2 1 9 12 8 6 4 6 6 6 9 3 4 2 7 7 6 8 13 9 14 15 20 14 14
19 20 19 19 19 19 20 19 19 19 19 19 18 17 5 3 5 5 5 4 4 4 10 10 9 7 6 7 4 3 9 11 6 3 5 0 7 5 11 13 15 14 19 15 11
20 20 20 19 20 21 21 20 19 18 18 17 16 14 3 5 3 5 5 4 4 13 18 9 6 9 7 8 5 6 8 7 9 8 2 10 4 9 10 19 16 16 16 15 14
21 22 21 20 22 23 22 20 19 17 16 14 13 9 4 9 2 3 8 9 10 11 7 10 8 8 10 10 9 7 3 9 9 11 4 7 5 5 8 22 21 19 17 15 13
21 22 22 21 22 24 23 21 20 17 14 12 11 3 6 6 8 9 9 16 7 10 13 11 6 6 4 8 8 5 6 6 6 3 6 8 6 7 8 17 18 19 17 14 10
21 22 22 22 22 25 24 22 21 18 13 9 6 1 7 5 6 12 12 14 13 8 12 10 5 5 7 5 6 6 7 7 2 9 4 3 3 7 10 11 11 13 9 14 13
22 22 22 22 22 24 25 23 19 16 3 4 8 5 5 8 11 15 12 14 3 6 6 6 3 3 5 1 6 6 2 6 5 5 5 4 6 6 9 11 14 11 11 16 15
22 23 22 21 20 21 27 10 2 2 3 7 4 6 5 9 12 11 14 3 9 5 6 8 1 7 13 10 4 7 8 7 3 5 4 2 6 10 7 9 14 12 11 14 14
22 23 22 20 19 18 17 4 6 8 8 12 16 17 24 9 5 7 13 5 7 7 8 6 9 12 9 2 5 6 7 9 8 3 6 5 8 11 5 7 18 15 12 14 9
22 23 23 20 19 10 8 12 11 14 4 8 13 10 12 5 8 9 10 8 8 9 10 9 9 11 2 4 6 5 5 8 4 7 9 4 8 8 6 8 16 14 11 13 14
22 23 22 23 8 11 6 5 9 15 3 6 7 13 15 7 8 22 20 8 6 11 10 8 12 6 3 4 4 6 8 2 6 6 4 2 6 8 6 8 10 16 9 15 17
21 22 19 17 14 7 10 13 11 7 2 7 10 12 8 10 2 7 21 8 12 12 5 10 6 5 4 7 7 8 5 6 6 6 5 11 4 7 5 6 5 13 6 17 16
21 21 21 4 9 9 14 14 9 1 6 1 5 8 10 10 14 7 8 6 8 11 10 10 8 3 6 8 5 6 5 6 5 1 3 6 3 4 2 4 2 20 8 17 16
23 21 19 12 5 6 11 6 1 4 6 5 6 9 10 9 15 11 10 8 7 3 6 9 8 3 6 5 4 2 4 3 5 3 6 6 3 7 6 11 9 14 18 15 16
26 19 14 19 11 7 10 1 3 8 12 8 6 12 14 10 13 15 10 8 10 8 5 7 6 10 7 6 5 6 8 5 3 2 5 3 5 2 14 13 23 6 14 15 15
25 8 5 10 12 4 1 3 6 5 2 13 14 11 10 14 8 11 10 11 11 12 8 3 6 9 11 6 6 4 3 8 2 4 4 4 3 3 13 9 12 12 17 16 15
15 6 14 8 9 9 1 5 8 9 12 10 11 5 2 13 13 12 10 10 12 14 10 9 6 5 8 3 0 2 3 4 4 2 5 5 1 4 7 8 7 7 11 10 14
4 3 15 16 13 1 4 7 6 15 16 6 9 7 6 12 9 9 13 11 16 15 12 9 6 9 1 3 6 3 4 3 4 4 3 3 5 7 12 11 8 10 11 14 15
6 3 12 17 2 3 4 3 5 15 17 3 6 6 6 8 7 9 8 2 6 17 7 10 5 4 8 7 11 9 9 7 5 6 3 4 5 6 5 14 7 14 27 12 15
4 3 8 11 3 6 6 11 16 18 18 2 5 6 7 5 5 9 4 7 14 8 4 3 2 2 9 9 7 4 5 2 1 2 4 1 5 3 6 10 14 14 15 11 14
3 2 1 3 5 6 5 7 13 15 13 5 10 8 7 4 5 6 9 6 6 6 6 4 3 4 6 2 3 3 6 6 4 2 4 4 4 1 4 2 3 6 6 13 11
3 3 4 3 5 9 7 9 14 11 5 4 8 7 7 4 8 5 3 6 3 3 4 4 2 5 7 8 9 12 10 11 8 10 6 9 9 6 4 3 2 2 11 10 12
3 4 6 8 9 8 7 10 12 12 6 6 5 9 7 3 5 6 8 6 4 3 3 3 2 4 5 6 9 15 18 16 11 8 6 14 7 6 4 7 9 3 3 6 9
10 11 4 8 7 3 4 6 5 8 8 7 12 3 4 12 10 8 5 5 3 3 5 2 2 1 5 7 9 7 8 3 5 13 7 3 9 11 8 9 2 4 7 5 9

GFSSW_925_spd_030.txt.gz
Wind_Speed
14 13 13 14 14 14 15 16 17 18 18 19 20 19 18 18 18 6 4 3 4 9 12 12 7 11 3 3 1 2 5 3 2 1 6 5 10 1 5 13 2 6 8 21 31
15 15 15 15 15 16 16 17 18 18 18 19 19 18 17 19 9 6 5 7 10 10 6 6 6 11 4 4 4 3 3 6 5 4 3 6 17 9 6 6 6 10 19 28 30
17 17 16 16 16 17 18 19 18 18 19 20 20 17 17 13 3 5 5 7 6 5 5 6 8 2 3 3 3 6 8 9 8 14 7 10 7 2 13 1 9 20 22 20 23
18 18 17 18 18 19 20 20 19 19 18 19 19 17 15 3 2 2 2 2 1 3 5 4 3 0 2 3 6 3 4 5 5 4 4 10 6 5 5 8 15 22 23 17 16
19 18 18 19 20 21 21 20 20 19 18 18 17 15 5 3 6 3 2 4 4 3 4 1 3 2 3 4 2 3 4 4 9 8 1 5 7 7 5 12 17 18 18 18 14
19 19 19 20 22 23 21 20 19 19 17 16 15 12 2 2 4 3 3 4 5 5 6 4 4 2 4 3 0 6 2 2 4 2 2 5 3 10 5 19 20 21 19 17 17
20 20 21 21 23 24 24 21 21 19 16 15 12 7 1 9 4 4 5 4 6 9 4 11 8 7 6 7 4 7 1 6 8 6 5 3 3 2 16 20 21 20 18 17 17
20 21 21 21 23 24 25 22 22 20 14 13 11 3 5 2 8 10 4 9 12 13 11 13 9 3 2 4 9 6 5 3 8 4 7 6 6 5 18 20 18 20 18 16 13
20 21 21 21 23 25 25 24 23 16 11 9 3 3 8 6 9 12 10 11 9 11 10 12 3 1 6 3 5 6 4 5 8 4 5 4 5 4 16 18 18 17 17 15 11
21 22 21 22 22 25 25 25 13 4 0 1 2 3 6 4 7 10 14 13 5 3 5 1 3 2 3 5 3 5 5 4 4 6 4 3 3 3 14 18 19 16 11 13 14
22 23 22 21 21 23 25 7 6 4 1 5 4 4 6 9 6 6 15 5 2 4 3 3 3 6 8 7 8 6 1 3 3 7 4 6 4 4 6 13 11 9 13 14 13
22 23 23 21 19 18 12 2 4 4 7 10 13 11 22 14 5 3 10 4 2 4 2 5 5 11 7 7 7 1 2 6 5 5 3 3 5 7 7 14 17 16 14 16 8
22 23 24 21 17 4 10 8 17 15 0 8 7 6 6 9 8 7 8 6 3 4 6 6 10 5 6 6 3 3 4 4 6 3 2 2 8 6 4 6 10 13 16 16 17
21 22 23 25 4 12 6 20 19 11 4 7 6 8 5 6 5 13 14 6 4 9 4 6 10 8 7 2 3 3 1 3 4 5 1 5 4 8 4 4 11 12 15 15 14
21 21 20 17 13 5 12 17 15 3 2 4 4 6 9 9 2 3 13 4 7 10 4 7 6 3 3 5 4 8 2 3 4 5 5 5 4 6 1 5 3 4 11 14 15
21 21 21 9 10 7 19 13 4 5 5 5 5 7 7 4 6 4 4 5 3 3 3 10 6 3 7 5 4 1 6 9 6 4 3 7 6 5 2 7 8 11 10 12 13
23 21 20 13 4 9 15 4 5 3 6 4 3 8 9 8 11 4 4 7 5 2 5 7 6 6 2 1 7 6 7 4 5 4 5 5 3 7 9 5 7 11 10 7 12
25 18 12 17 10 7 7 5 3 6 6 5 3 2 8 6 8 6 6 6 4 5 2 2 7 5 2 6 6 4 8 5 4 2 5 6 4 4 6 9 12 13 21 8 25
20 10 7 9 9 6 5 3 7 6 2 7 9 5 7 5 5 6 9 9 10 8 7 4 6 4 6 6 9 3 2 6 6 1 3 4 1 5 6 8 14 15 15 23 1
17 8 6 4 14 7 4 6 6 4 7 5 1 4 7 10 6 7 8 7 7 12 9 6 4 5 9 7 2 6 5 3 4 1 1 5 3 5 5 8 11 9 5 1 5
6 4 5 12 15 5 4 7 5 4 7 4 5 4 4 2 4 6 9 5 11 11 10 7 5 11 0 1 7 3 2 6 5 5 5 1 6 5 3 3 3 3 3 7 9
7 2 17 22 3 1 2 4 7 6 5 5 4 4 3 4 2 2 10 10 6 9 9 9 6 6 3 7 2 3 4 5 5 4 2 4 5 4 7 8 6 5 1 6 15
3 3 12 9 2 2 6 6 4 5 6 5 5 2 1 2 4 3 6 6 2 5 8 6 1 0 7 7 6 2 1 4 5 3 4 5 6 5 5 7 3 2 3 5 8
2 3 4 4 2 2 3 5 4 5 11 6 6 3 5 5 5 4 6 4 5 4 3 7 4 8 7 6 4 3 6 5 4 3 3 6 4 5 7 5 3 2 3 8 8
2 2 2 3 5 6 4 4 5 5 5 5 3 3 3 3 5 6 5 6 6 10 5 5 4 3 4 2 2 1 5 8 5 4 4 11 10 13 11 10 14 14 9 8 13
2 3 4 3 5 4 8 5 6 7 4 5 5 2 9 5 2 3 3 5 1 7 5 6 1 2 5 4 7 4 8 8 2 6 1 5 4 1 8 3 15 15 12 11 6
7 6 2 5 6 6 5 6 4 3 3 5 5 6 8 3 3 5 2 1 2 3 4 3 3 3 3 4 5 4 4 3 6 4 3 3 5 8 8 5 7 14 11 6 4

GFSSW_925_spd_033.txt.gz
Wind_Speed
13 14 14 14 13 15 16 16 17 18 19 20 21 20 19 18 17 6 5 3 2 8 11 12 6 17 3 3 2 3 3 3 6 3 1 1 3 5 5 9 3 5 5 15 27
15 14 15 16 15 16 17 18 17 19 20 20 21 21 19 20 8 7 4 5 5 8 5 7 6 10 4 4 4 4 3 3 1 2 3 7 4 8 5 5 3 8 16 29 29
15 16 16 16 17 18 19 18 18 19 20 20 21 21 21 12 3 4 3 5 5 3 1 4 5 1 3 2 1 1 4 3 6 6 2 4 3 2 10 3 6 17 18 20 24
17 17 17 18 19 19 20 19 18 18 19 20 19 20 17 4 2 3 2 2 1 2 2 2 4 4 4 6 2 2 8 4 6 2 5 9 6 5 7 5 12 19 21 17 18
17 17 18 20 21 22 21 20 18 18 18 18 18 18 6 3 6 3 2 2 3 2 2 2 3 2 2 3 4 5 6 7 13 4 7 5 11 6 5 11 17 19 19 19 16
19 19 19 21 22 23 22 20 19 18 18 17 15 14 4 3 2 3 3 3 2 0 1 3 2 3 1 4 1 5 8 8 4 3 2 6 4 7 4 15 18 19 18 16 17
21 20 20 21 23 24 24 22 21 19 18 14 11 8 1 9 3 5 4 4 3 3 3 2 3 3 1 5 1 4 4 6 4 0 1 7 2 4 10 17 19 18 16 15 14
21 21 22 22 24 26 25 23 22 21 15 9 9 1 6 2 4 9 6 7 6 10 10 10 4 3 2 4 7 4 5 4 7 3 4 7 9 3 14 18 17 17 15 14 11
21 22 23 24 24 27 25 23 23 15 8 5 1 2 8 6 5 13 11 5 6 10 6 10 5 3 6 3 6 7 2 4 9 4 4 3 6 5 13 15 15 15 14 14 10
22 23 23 24 24 26 24 22 5 4 3 1 0 2 6 1 4 8 15 11 3 5 6 5 5 3 4 5 3 4 4 5 6 5 2 4 5 5 15 15 17 14 11 11 10
22 24 24 24 23 22 24 5 6 4 2 5 2 4 5 10 5 6 11 5 2 7 2 4 5 3 5 5 4 3 4 6 5 5 5 2 3 5 13 8 8 10 9 9 12
22 23 24 25 22 18 9 4 5 4 8 7 9 7 14 4 4 3 9 4 2 2 2 6 4 8 4 5 6 6 5 6 5 3 0 2 7 2 10 20 19 16 11 12 7
21 23 24 24 18 5 9 2 19 5 2 8 6 6 5 11 7 7 9 5 3 3 3 5 6 3 3 4 5 3 3 3 5 6 6 5 8 4 4 3 5 1 8 10 14
21 22 23 24 3 13 4 17 16 4 5 7 5 8 6 6 5 10 11 6 2 6 6 5 5 4 5 6 7 3 5 2 2 4 2 4 4 6 7 3 6 9 11 11 10
21 21 20 18 14 5 9 16 8 3 3 3 4 2 2 10 3 3 8 4 7 4 5 6 2 7 4 6 5 8 3 2 3 4 2 3 4 7 4 2 5 11 15 13 13
21 21 20 9 10 8 15 10 2 5 6 6 4 4 5 2 2 3 4 4 3 3 3 7 3 5 6 4 4 3 4 7 5 3 3 5 3 5 2 4 6 3 7 9 8
23 20 18 11 3 4 16 3 5 3 5 5 1 1 3 6 4 3 5 4 6 4 2 5 4 4 4 1 3 7 7 4 4 5 5 1 3 7 7 5 4 9 11 14 7
23 17 12 14 5 5 4 5 3 5 6 5 4 0 6 3 3 5 5 4 2 4 3 3 6 2 1 4 6 3 7 5 4 2 5 4 1 6 3 6 8 9 14 9 5
19 9 6 5 12 6 5 3 7 6 4 6 8 0 3 4 2 4 7 7 8 7 7 5 5 3 3 4 7 3 2 4 7 3 3 3 4 5 6 7 7 4 4 10 7
14 6 4 2 14 7 4 6 5 4 5 4 2 2 1 5 7 7 8 5 5 9 5 6 2 3 5 4 4 7 7 3 3 2 2 4 3 4 2 2 3 5 4 5 4
4 3 3 11 8 5 4 6 4 6 4 1 2 3 4 2 7 6 7 4 9 7 6 5 4 6 3 1 7 2 2 7 5 4 5 1 6 6 10 9 8 6 3 2 3
4 3 3 16 3 1 2 4 3 4 3 4 2 5 4 2 2 1 7 9 6 9 10 8 5 4 9 1 3 3 4 5 5 3 2 4 6 4 5 7 8 8 8 4 2
2 2 4 4 2 2 5 5 3 3 5 3 3 2 3 3 1 3 2 3 3 9 10 8 1 2 9 7 4 7 3 6 5 3 3 4 5 2 4 6 8 7 8 9 5
1 2 4 3 1 5 1 5 4 4 6 5 5 3 4 3 4 2 5 3 6 4 9 9 4 7 7 7 4 4 4 4 5 3 4 5 4 5 8 7 6 6 6 2 0
3 0 2 2 2 2 3 3 3 4 3 6 2 4 4 1 3 5 4 6 5 7 4 5 5 3 3 5 4 3 3 4 4 4 4 3 5 5 10 8 7 6 8 5 9
2 3 4 2 4 4 5 3 7 7 5 4 3 3 4 5 4 1 1 5 2 6 4 3 2 3 3 3 5 3 4 4 4 2 1 1 2 6 2 1 3 3 6 7 11
5 3 2 3 5 3 1 4 6 4 3 3 3 5 5 5 6 5 2 2 1 1 3 3 5 3 3 2 4 4 2 3 5 4 2 1 5 4 2 4 7 6 6 9 10

GFSSW_925_spd_036.txt.gz
Wind_Speed
14 13 14 14 15 15 17 18 18 19 19 20 21 22 21 20 18 7 4 2 3 9 13 10 4 12 4 3 3 3 4 1 4 4 3 4 4 4 3 5 1 1 5 7 26
15 14 15 15 16 17 18 17 17 19 20 20 21 22 23 22 8 4 2 3 6 7 7 8 5 8 3 3 2 4 4 6 4 3 3 8 7 10 4 4 2 4 11 26 26
15 15 16 17 18 19 19 18 18 19 19 20 21 21 24 14 3 3 3 5 5 3 2 5 4 1 3 2 1 2 3 1 3 4 5 7 7 6 9 5 7 10 15 17 22
17 17 18 19 20 21 21 19 18 19 19 20 20 21 19 4 1 2 3 2 1 1 3 4 3 3 3 3 3 3 5 4 4 2 4 5 6 4 9 5 9 17 19 16 15
17 18 19 20 21 22 21 20 19 19 18 19 19 19 7 4 5 5 2 2 1 4 4 4 4 1 2 2 5 1 3 3 3 7 5 6 9 5 8 1 14 15 16 16 14
19 19 20 22 23 24 23 21 20 19 18 17 14 14 4 2 4 4 2 0 1 3 5 2 2 2 3 2 1 4 6 8 4 3 3 7 4 6 2 10 14 17 16 14 13
20 20 21 22 24 24 25 22 21 19 17 13 9 7 2 10 5 4 2 2 3 2 3 3 6 3 2 4 3 2 6 6 2 4 3 7 3 8 7 12 15 15 12 13 13
21 22 22 23 24 25 24 22 22 20 12 6 5 2 5 4 7 6 5 4 4 5 6 7 4 2 2 3 7 6 5 5 6 1 4 4 7 6 12 16 16 16 13 13 11
22 23 23 24 25 26 23 22 19 9 3 1 1 2 8 7 5 7 9 3 5 2 5 4 3 3 5 4 5 7 2 3 10 2 1 4 6 4 11 13 12 14 13 12 9
23 24 24 24 24 25 23 17 1 4 5 4 2 3 5 1 4 4 8 8 2 5 5 7 5 3 4 4 3 1 4 4 6 5 2 2 4 1 8 10 10 9 10 10 11
22 24 24 24 23 23 21 3 6 3 3 4 2 3 5 9 4 3 5 6 2 7 2 4 5 2 3 2 4 2 2 4 5 5 2 3 2 3 8 6 9 10 10 9 11
22 23 24 23 23 15 9 6 6 3 7 6 6 6 10 2 4 3 9 4 3 2 2 6 2 5 2 3 1 2 3 5 6 3 3 4 1 2 6 10 12 11 11 9 6
22 23 24 23 16 4 5 5 13 3 1 8 5 5 5 11 7 6 7 3 3 4 3 4 3 3 3 3 2 3 4 3 4 5 3 3 7 5 2 6 6 6 8 7 10
22 22 23 23 3 12 2 11 13 9 5 7 4 7 5 7 4 11 12 6 1 7 7 4 5 2 2 4 6 1 5 1 2 4 1 5 3 6 5 8 7 4 7 5 15
23 21 19 17 13 4 6 16 3 3 3 3 3 2 1 9 4 3 6 4 7 5 5 5 2 1 3 4 5 6 3 2 3 3 3 6 4 7 5 6 6 6 9 15 14
22 21 17 9 9 6 10 11 3 5 6 6 0 2 4 2 2 3 3 3 4 3 1 6 3 3 5 1 4 6 5 8 4 3 4 4 4 6 3 5 6 6 11 15 14
24 18 15 9 2 4 13 3 5 4 5 5 2 2 2 2 3 3 5 4 5 4 2 3 3 3 3 2 3 6 6 3 4 5 5 3 1 8 6 4 6 9 9 11 12
22 16 11 11 3 3 2 5 3 5 5 5 4 2 6 6 3 5 5 5 3 4 3 4 4 4 3 4 6 2 7 6 3 2 4 4 2 5 4 5 3 6 7 9 11
19 8 6 2 10 4 5 3 7 6 3 6 7 1 3 2 4 3 7 6 8 8 6 4 4 3 3 3 6 3 2 4 8 3 3 3 6 5 4 3 4 5 5 6 5
12 6 4 5 8 5 4 6 4 4 5 2 2 1 1 2 4 7 7 5 5 10 6 5 0 2 2 4 5 4 6 4 3 3 2 4 4 5 5 8 5 5 4 3 2
4 3 10 8 3 5 4 6 4 6 4 1 2 3 4 2 5 4 8 5 6 4 6 5 2 5 1 1 5 2 3 7 5 4 5 1 6 6 4 3 4 6 6 6 6
3 3 5 2 4 1 3 4 4 4 2 3 1 4 4 3 3 5 9 6 5 8 10 7 4 4 8 2 1 1 5 6 5 3 1 3 5 2 5 7 8 10 7 3 5
2 1 1 4 2 2 4 4 3 2 3 2 3 5 1 3 3 3 4 2 3 9 10 7 0 2 8 5 3 5 3 5 6 4 4 5 5 4 3 4 8 5 4 4 4
2 2 4 4 1 3 2 4 4 3 5 4 4 2 2 2 1 3 3 2 4 2 3 10 4 7 6 7 5 3 4 4 5 4 5 5 5 5 7 8 6 3 3 2 3
3 1 3 2 2 2 1 3 3 5 3 3 3 6 3 2 3 3 2 5 4 6 4 4 7 5 2 5 3 6 5 6 4 6 5 4 6 8 7 8 4 5 2 2 5
3 2 3 1 3 1 2 2 3 4 5 4 4 6 6 6 6 2 1 2 1 5 4 2 3 4 3 2 5 5 2 6 4 4 2 3 6 6 4 4 1 6 5 2 2
5 3 2 2 4 1 2 3 4 3 7 7 4 2 4 4 3 1 2 1 3 2 2 3 5 3 4 2 3 3 1 2 3 0 1 5 4 5 5 3 3 6 2 6 6

GFSSW_925_spd_039.txt.gz
Wind_Speed
14 14 15 15 16 17 19 18 17 18 19 20 21 22 22 23 14 3 3 1 2 8 9 5 8 8 14 6 4 3 2 2 3 6 5 10 11 6 4 8 3 1 2 5 19
15 15 16 18 18 18 18 17 17 18 19 20 22 22 23 21 6 2 2 3 4 7 3 6 1 1 5 5 4 2 0 1 1 2 4 13 14 13 6 8 3 2 7 19 20
16 16 17 18 19 19 18 18 18 19 19 20 21 21 24 12 1 2 5 3 4 3 2 4 3 1 2 1 2 2 1 4 4 5 3 10 7 10 7 7 9 10 16 19 19
17 16 17 19 20 20 19 19 19 19 19 19 20 20 18 4 1 2 4 2 1 3 3 2 1 1 2 2 0 2 2 4 2 3 5 9 10 8 11 4 3 11 18 19 16
17 18 19 20 21 20 20 19 19 18 18 18 17 17 7 2 1 4 2 2 2 4 5 3 3 1 2 2 1 0 2 2 4 4 3 8 13 8 11 3 9 17 17 18 16
18 19 20 21 22 21 21 20 20 19 18 16 13 12 2 3 2 2 1 1 2 5 4 3 3 2 1 1 2 3 6 5 2 2 5 8 6 9 5 11 14 17 19 17 18
19 19 20 22 22 22 22 21 21 19 17 12 7 6 0 8 2 2 1 0 2 3 3 2 3 3 1 1 4 4 6 6 5 3 1 7 4 13 8 14 17 16 15 15 15
19 20 20 23 23 23 22 21 21 18 12 5 3 3 5 3 6 4 3 1 2 3 4 5 2 1 2 1 3 1 1 3 3 2 1 7 11 8 12 17 17 17 14 13 15
20 22 21 22 22 24 22 22 16 8 3 1 2 3 6 6 3 2 6 1 2 3 4 2 4 3 0 1 0 5 2 3 5 5 1 6 9 4 10 12 15 15 14 13 13
20 21 21 21 21 22 20 12 2 3 3 3 2 2 4 1 3 2 4 3 3 2 2 4 4 0 2 3 7 3 1 2 5 3 3 5 10 1 8 11 14 15 12 13 13
20 21 20 20 20 19 15 2 3 2 2 4 1 3 4 8 4 1 3 6 2 4 2 3 3 5 4 3 4 3 2 3 5 3 4 2 5 1 7 10 12 13 12 12 6
19 20 20 19 19 9 7 5 3 1 6 5 7 8 9 2 4 1 7 5 3 4 3 2 4 2 2 4 4 2 1 3 5 5 2 4 1 5 1 3 7 8 10 11 10
20 20 19 19 10 4 6 6 9 4 3 5 5 5 3 10 5 5 9 4 3 4 4 4 3 4 5 3 4 2 4 2 2 3 3 7 1 2 4 5 8 3 13 12 16
20 18 18 17 2 7 2 6 10 12 2 3 3 2 4 5 4 6 10 3 2 6 5 4 1 3 2 4 7 4 7 3 1 1 2 6 4 4 5 7 8 7 10 14 15
19 18 16 13 9 2 1 12 4 4 2 2 1 2 2 7 3 4 3 3 6 5 4 2 5 4 3 3 9 2 4 4 2 3 2 5 2 2 5 5 9 5 11 15 15
19 17 13 6 6 4 5 6 3 1 5 2 0 3 5 4 1 3 4 3 2 4 2 3 2 3 2 2 2 9 5 5 3 1 3 2 3 1 4 5 4 3 11 14 14
19 13 10 6 2 4 8 1 2 4 3 2 2 2 2 6 4 4 11 10 6 5 7 2 4 3 3 3 5 3 3 2 3 3 2 2 3 2 6 6 6 8 10 12 10
17 11 6 7 3 2 1 2 3 2 4 2 2 3 5 9 9 5 8 10 4 3 3 7 7 6 5 4 4 3 2 3 1 2 0 2 1 2 6 6 2 5 7 11 13
16 4 2 4 5 4 2 4 6 5 2 4 4 3 2 3 3 10 11 8 11 11 4 5 5 2 2 2 1 5 4 3 6 1 3 1 3 8 5 2 6 5 8 9 10
8 2 5 6 6 3 2 4 3 3 4 2 2 1 1 0 6 8 9 6 7 13 11 4 3 1 2 3 8 1 8 4 1 4 3 2 3 4 5 4 7 7 9 7 3
3 2 9 10 3 2 4 4 3 4 3 2 1 3 2 2 1 4 4 3 8 9 9 7 2 3 2 3 6 5 4 5 4 2 2 3 2 4 7 6 8 9 10 7 4
2 2 2 6 2 1 2 1 2 3 1 2 2 3 2 2 3 3 7 5 5 11 11 6 3 6 6 1 2 2 5 5 4 5 1 2 2 2 4 7 6 6 6 4 2
2 1 2 3 2 2 0 2 3 2 2 2 3 4 1 1 3 4 4 0 4 10 10 9 3 4 3 2 2 3 3 4 7 2 6 4 2 3 5 3 2 2 3 2 0
1 2 2 3 1 2 2 1 3 3 5 4 4 2 2 3 3 3 2 1 1 6 2 9 4 5 7 2 3 4 5 7 2 5 8 4 1 5 5 2 3 4 1 2 2
3 2 2 2 2 2 2 1 2 4 3 3 3 9 6 3 2 4 2 2 2 1 3 6 8 6 4 4 3 4 10 9 5 7 5 7 6 3 6 4 2 4 6 6 3
3 2 1 2 0 2 1 1 3 3 4 4 6 6 7 7 4 2 2 1 1 1 3 0 5 6 6 4 8 5 7 6 4 6 2 3 4 5 3 1 6 6 5 3 1
4 2 3 1 1 2 2 1 4 2 7 13 9 7 6 7 4 3 1 2 1 2 3 3 6 5 5 3 9 5 7 8 3 2 2 5 0 5 6 4 5 5 1 2 4

GFSSW_925_spd_042.txt.gz
Wind_Speed
12 13 14 15 16 15 15 16 16 17 18 19 20 20 21 22 7 1 3 2 4 1 1 8 12 11 13 8 9 5 6 1 7 1 5 8 7 4 3 6 4 3 3 10 19
13 13 15 17 17 16 16 16 17 18 18 19 20 21 21 19 1 5 1 1 2 1 5 10 12 14 8 8 4 7 8 5 4 4 7 3 7 8 6 6 6 6 8 18 19
14 14 16 18 18 17 17 17 18 18 18 19 19 20 22 11 6 5 3 0 3 1 4 3 5 12 14 7 4 2 2 2 2 5 6 3 8 8 8 5 5 8 14 18 19
15 16 17 18 19 18 18 18 18 19 19 18 18 17 17 2 1 3 3 2 1 1 4 6 8 13 12 8 2 8 1 1 3 2 3 3 5 9 9 4 5 8 16 19 18
17 17 18 19 19 19 20 20 19 19 19 18 17 15 6 6 4 3 2 2 1 2 2 1 5 4 10 2 3 7 2 2 4 3 5 4 7 8 8 6 4 14 17 16 15
17 17 18 19 20 20 21 21 21 20 19 17 13 12 6 6 2 2 1 0 1 2 2 2 3 4 4 2 7 3 4 3 2 2 4 7 7 8 6 8 10 16 17 15 14
17 17 18 19 19 20 21 22 21 20 18 13 7 6 6 5 0 2 2 2 1 2 1 3 5 6 1 6 1 5 10 7 4 2 5 7 8 10 7 12 13 15 15 16 14
17 18 18 20 20 20 20 21 20 17 12 6 4 3 5 2 2 3 4 4 3 2 3 1 5 6 5 2 5 6 7 10 9 5 3 9 11 6 10 12 13 16 15 15 15
17 18 17 18 20 20 19 19 15 8 6 2 3 5 3 1 4 2 5 4 3 3 1 3 4 4 5 11 10 10 9 2 2 3 6 9 13 9 5 10 11 12 12 14 15
17 17 17 18 19 20 17 14 6 5 3 3 4 5 5 2 1 1 4 4 4 4 7 7 5 9 9 11 12 9 9 4 5 6 9 8 12 2 3 5 6 10 14 14 15
17 17 17 17 18 17 13 5 5 6 8 8 3 5 0 2 3 7 6 8 6 7 10 2 9 12 17 11 5 3 7 7 4 3 7 5 6 2 2 3 5 9 13 14 13
17 17 17 17 16 8 5 3 4 4 7 7 11 10 11 5 4 7 8 8 8 11 5 6 11 3 1 4 6 9 11 9 3 2 6 5 2 4 3 4 2 8 12 16 15
17 18 17 16 10 4 4 4 6 1 6 4 6 7 5 10 7 8 13 9 9 10 11 13 4 3 7 8 10 14 14 5 8 0 5 8 9 7 4 3 4 6 11 15 15
18 17 17 14 0 5 2 3 7 6 5 9 6 4 7 5 7 9 13 8 7 9 5 9 7 7 8 11 13 14 9 4 5 7 3 4 10 9 3 4 5 2 6 11 11
18 18 15 10 7 3 2 8 1 4 5 5 6 3 3 11 5 11 13 9 8 7 6 4 10 12 10 12 11 1 5 6 6 6 6 6 8 4 4 5 5 3 2 3 8
19 18 13 5 4 4 4 6 3 6 6 5 4 7 9 14 7 6 12 9 4 5 7 7 1 5 8 3 7 8 8 6 6 6 11 5 5 6 4 6 4 1 3 6 8
21 16 10 5 1 4 5 5 6 9 3 7 4 5 10 11 14 10 15 16 10 9 12 12 12 8 7 8 7 12 10 8 6 8 3 5 5 5 5 5 4 2 3 6 8
19 13 6 7 5 4 6 7 9 3 5 2 2 5 7 10 14 12 13 14 16 9 3 9 12 15 12 13 9 16 11 8 4 4 3 4 6 5 4 3 2 2 4 6 7
14 2 1 2 5 4 7 11 7 4 2 3 6 7 8 9 5 15 15 15 13 14 8 8 10 6 4 5 8 8 10 5 5 1 7 5 4 7 6 4 4 4 4 5 6
3 3 2 4 4 7 8 13 4 3 3 3 7 1 5 7 11 11 13 12 13 15 15 3 6 10 8 7 4 6 8 6 8 5 7 7 3 3 4 4 5 4 4 6 5
3 4 3 4 2 6 10 10 5 2 3 3 1 3 3 3 9 11 8 7 16 14 16 12 8 9 6 12 13 7 9 7 4 5 3 5 6 3 1 3 2 4 6 8 7
3 3 4 1 7 4 9 3 0 4 4 3 4 4 3 2 4 7 10 6 2 12 16 13 9 10 13 7 3 7 11 12 10 10 6 7 6 5 3 4 1 6 8 7 5
1 2 4 3 5 8 4 6 3 5 4 4 4 3 2 3 4 6 3 2 4 11 10 12 9 9 11 8 5 8 10 11 5 2 7 8 6 6 2 3 4 8 8 7 4
3 4 4 4 1 3 5 7 7 6 9 9 7 6 8 9 5 5 6 5 4 10 7 6 13 13 11 13 6 9 12 13 15 8 11 11 7 8 6 6 6 6 6 5 7
2 2 4 5 6 3 4 0 6 6 8 4 8 14 12 7 10 10 8 7 6 5 5 10 12 16 15 3 5 7 12 13 13 12 8 6 7 8 4 4 2 7 8 9 8
3 3 3 3 2 6 5 5 7 6 6 9 11 7 7 13 12 9 5 4 6 7 8 9 10 14 17 13 13 9 8 11 9 6 4 2 5 4 3 4 6 7 7 7 5
3 0 4 5 5 6 3 1 1 2 9 13 6 7 11 8 10 7 8 3 3 6 9 8 11 9 16 9 12 14 13 14 12 10 5 7 8 3 4 6 6 5 3 3 4

GFSSW_925_spd_045.txt.gz
Wind_Speed
13 14 16 16 16 15 15 15 16 18 18 19 20 20 19 19 11 5 6 5 4 5 5 7 10 13 13 14 18 16 11 12 9 7 10 11 14 5 5 13 6 6 11 17 20
13 15 16 17 16 17 16 16 17 18 18 19 20 20 20 21 7 16 5 4 8 6 8 11 11 14 11 14 10 11 10 6 10 7 9 12 6 9 7 12 9 8 14 19 20
14 15 16 17 18 17 17 17 18 19 19 19 20 20 20 16 9 9 5 5 6 7 9 9 13 10 16 17 10 15 5 4 7 8 6 5 6 6 4 15 12 13 15 16 16
15 16 18 19 18 17 18 19 19 19 20 19 19 19 21 3 3 7 2 3 5 6 8 10 11 15 16 15 4 13 2 4 7 3 1 3 4 6 6 15 9 15 17 16 16
15 16 18 18 19 18 19 20 19 20 19 18 17 16 9 10 5 4 3 5 5 8 11 11 14 15 18 15 3 13 5 3 4 3 7 3 1 2 4 13 10 14 17 17 14
16 16 18 19 20 20 21 20 20 20 19 16 13 12 7 13 3 4 3 6 6 9 7 11 10 8 15 6 11 3 4 5 5 5 5 10 5 10 8 9 11 15 16 17 15
17 17 18 20 20 22 21 21 21 19 16 12 9 7 10 8 1 3 5 6 3 5 7 4 7 12 9 13 7 11 12 16 13 2 8 6 13 13 7 10 13 14 14 15 14
17 17 18 20 22 22 22 22 20 17 12 9 7 7 10 2 5 7 7 8 8 7 8 4 9 12 10 11 10 16 19 13 9 1 5 9 14 32 11 9 11 12 13 14 14
17 17 18 19 22 22 22 21 18 12 8 6 6 8 9 3 9 10 9 9 7 8 8 6 12 14 13 13 16 15 2 24 10 5 3 7 14 13 3 7 8 11 13 14 14
17 17 18 18 20 22 21 19 16 11 7 7 11 8 8 5 3 4 7 8 8 7 8 10 11 14 14 14 16 14 15 23 3 1 6 12 10 10 7 5 6 12 13 14 15
17 18 18 18 19 19 19 9 7 6 13 14 2 10 2 4 5 10 9 10 10 10 13 12 11 15 20 18 21 13 12 10 6 2 9 10 10 3 4 6 4 4 10 12 14
18 19 19 18 17 11 11 7 7 6 9 12 13 12 7 4 6 9 9 10 12 13 14 7 13 16 12 10 9 10 12 12 8 3 9 13 9 5 6 1 6 6 12 11 14
18 19 19 17 13 5 6 5 7 6 7 12 12 14 13 14 13 12 13 13 10 14 14 14 7 4 5 12 12 14 15 14 7 3 11 11 17 11 5 3 1 4 4 10 13
18 19 19 16 6 4 6 3 7 3 6 13 10 9 9 9 16 15 14 10 9 12 13 12 16 4 9 14 13 15 17 13 6 9 13 3 8 12 7 4 3 7 4 7 13
18 19 16 12 12 7 4 5 4 4 6 9 11 5 9 14 5 16 14 12 13 11 6 15 13 11 14 14 13 16 5 4 10 13 13 12 7 6 9 8 7 9 10 12 13
18 19 14 3 6 8 5 6 5 7 10 8 8 11 14 18 12 8 13 13 10 10 11 19 1 12 17 15 9 12 7 7 10 13 13 14 3 9 9 9 5 13 13 10 12
18 16 11 7 1 4 6 10 7 10 6 8 10 11 16 16 19 14 15 17 14 11 13 15 14 12 12 8 12 12 13 10 11 11 9 8 4 5 8 9 6 10 12 12 13
18 12 7 10 6 6 9 9 12 12 20 4 4 9 11 14 17 18 14 16 19 17 15 13 14 16 13 16 11 15 17 11 11 7 6 7 5 3 9 8 9 12 13 13 13
13 4 9 5 8 8 8 12 12 15 5 2 11 12 14 11 13 18 18 17 18 19 12 7 14 16 15 14 15 15 15 15 10 9 8 5 10 8 9 10 8 12 12 11 13
7 7 7 4 7 11 9 16 15 2 6 7 14 11 15 14 14 16 18 16 17 16 14 10 11 12 14 8 9 13 6 10 8 11 13 5 3 8 10 14 10 11 12 10 10
6 5 6 6 9 8 11 17 18 6 5 10 12 12 14 6 10 16 13 14 15 15 12 17 8 11 10 12 15 11 11 9 15 6 6 1 11 12 10 6 10 7 13 10 10
9 5 8 9 8 10 12 17 4 5 10 12 6 10 9 6 9 17 13 7 15 16 17 18 9 13 12 15 21 18 12 16 10 11 8 11 8 3 10 9 1 13 10 9 7
4 2 6 10 7 9 12 5 6 10 10 11 11 10 2 9 5 11 10 9 2 13 11 14 9 10 15 10 9 11 16 10 9 10 9 11 5 10 10 8 5 12 11 8 7
5 6 5 7 9 9 14 11 14 12 14 8 8 9 8 10 8 7 9 3 6 12 9 6 13 13 12 15 12 18 18 18 16 12 14 9 12 0 8 11 7 9 8 8 6
4 3 4 7 10 10 1 5 11 13 11 12 14 16 15 12 12 12 13 9 9 5 9 10 12 16 19 18 13 6 13 16 18 18 16 10 16 7 1 7 8 8 6 6 6
5 4 4 2 3 5 6 11 11 10 9 9 14 14 18 15 12 8 7 9 12 14 12 16 13 15 18 19 19 10 13 11 16 18 15 9 15 8 10 9 8 8 7 6 4
3 4 6 7 9 9 9 7 4 5 9 13 11 12 11 6 9 13 7 9 11 9 8 12 13 14 17 20 19 16 17 13 13 14 12 12 17 18 11 10 7 5 3 4 2

GFSSW_925_spd_048.txt.gz
Wind_Speed
14 15 16 17 16 16 16 16 17 17 17 18 18 19 19 21 18 8 9 3 4 4 5 6 9 13 16 14 15 14 5 7 8 20 9 24 16 5 16 8 6 10 14 20 23
14 16 18 18 17 17 18 18 18 19 20 19 18 20 20 22 14 15 8 7 6 7 6 11 11 10 10 15 15 14 5 24 23 12 8 22 22 4 18 24 5 11 16 21 23
14 15 17 18 17 18 18 20 19 19 20 20 20 20 19 19 8 5 9 8 9 10 12 15 18 15 16 15 19 7 10 25 23 7 7 6 31 30 22 9 11 14 16 17 19
15 17 18 19 19 19 20 20 20 21 21 21 20 20 21 3 2 7 6 6 8 10 13 16 13 15 15 18 20 12 10 14 8 6 4 7 7 23 21 12 16 17 18 18 16
17 17 18 19 20 20 21 20 21 21 20 19 18 18 9 7 4 8 5 5 8 10 15 14 15 15 16 18 21 7 9 2 6 5 5 6 3 4 18 13 13 17 18 17 15
18 18 19 20 22 23 21 21 22 21 20 17 15 14 6 13 5 7 6 8 12 16 16 14 13 16 14 16 17 7 13 10 4 5 4 6 9 5 8 9 10 14 15 14 14
19 19 20 22 23 23 22 21 22 21 19 14 12 9 11 14 2 4 6 11 9 11 13 13 10 11 13 18 14 13 15 12 7 11 2 10 11 14 16 23 9 9 11 13 11
19 19 20 22 24 24 23 22 21 19 16 12 11 5 7 4 5 8 10 12 9 11 11 9 8 14 18 18 16 12 18 11 8 33 2 7 5 8 16 23 21 9 10 10 10
20 20 21 22 24 25 25 22 20 18 14 10 9 9 16 4 9 14 14 13 11 11 11 8 9 15 16 17 15 15 16 11 7 29 9 7 12 18 24 28 7 9 9 8 10
21 21 22 22 23 24 25 22 20 18 10 8 15 10 10 10 7 4 10 9 7 11 13 10 11 13 15 15 15 5 16 15 18 25 2 8 9 14 3 5 8 12 11 10 11
21 22 21 22 21 21 25 11 5 4 10 14 5 12 5 6 4 10 13 10 13 11 12 15 12 14 18 19 19 21 19 16 10 37 2 9 5 4 8 3 3 5 12 11 12
21 21 21 22 20 17 16 7 7 7 10 15 19 18 13 4 8 12 13 10 13 13 15 12 12 14 17 18 20 15 8 13 16 14 5 9 12 3 6 1 7 6 9 11 22
21 21 21 20 20 11 10 9 8 10 7 16 20 17 16 15 14 14 13 13 15 14 15 16 17 13 12 12 10 13 13 13 13 5 4 9 13 12 7 3 2 8 7 11 25
20 20 20 20 10 10 11 2 7 5 6 15 18 11 16 15 17 18 17 14 12 15 14 14 16 7 9 11 14 14 15 14 13 10 9 7 10 7 9 13 9 11 7 15 19
20 20 18 16 15 6 6 6 8 6 6 7 16 5 13 16 13 20 18 14 15 14 10 13 12 14 10 12 12 12 13 12 4 8 12 16 8 13 16 3 17 15 16 20 17
20 19 18 3 8 13 10 8 8 6 11 6 7 10 15 19 19 9 17 14 11 14 14 14 17 7 12 11 12 11 15 11 8 11 11 15 11 9 7 12 16 17 16 12 11
20 18 16 12 5 5 8 9 6 9 13 13 9 13 17 18 18 13 14 16 14 11 14 15 16 11 14 14 16 8 13 8 9 11 12 7 8 6 15 10 13 17 15 14 12
20 19 12 15 8 10 9 8 11 10 22 7 4 13 17 18 20 20 16 15 18 20 13 13 14 19 14 16 10 13 16 12 12 6 5 14 7 5 15 14 17 17 15 14 13
20 10 8 8 12 10 7 12 11 16 14 17 11 13 12 13 16 19 21 18 18 18 17 15 16 10 18 13 16 16 11 18 18 16 5 7 5 6 11 15 18 16 13 13 13
13 13 18 11 9 10 8 16 17 20 8 9 7 11 14 17 16 17 17 19 19 18 18 18 11 16 15 13 15 18 10 10 9 9 12 9 13 11 8 12 17 17 16 13 13
5 6 9 8 10 7 10 16 19 23 4 5 10 16 20 19 16 18 17 18 17 20 15 13 12 15 11 10 14 8 11 10 14 8 1 7 3 5 13 23 12 14 15 12 12
9 7 10 11 7 9 13 19 15 16 9 8 11 15 18 13 15 14 14 15 14 14 16 12 9 13 19 15 14 17 15 16 9 9 8 9 9 17 13 5 10 17 12 10 10
4 6 9 12 7 11 17 21 20 9 8 12 11 13 15 13 9 12 16 6 7 4 3 12 10 12 14 16 14 16 20 13 12 11 15 5 6 1 16 17 14 14 11 8 7
5 3 5 6 11 16 15 17 11 7 15 12 14 13 14 11 14 10 17 2 2 9 9 8 9 9 14 14 11 14 15 16 16 9 10 4 9 12 18 13 18 9 10 8 4
4 6 5 5 10 13 13 13 15 15 11 12 12 11 10 9 14 14 17 17 6 5 8 6 9 12 16 19 18 18 18 22 19 17 16 8 13 3 5 11 15 3 4 8 6
5 6 10 10 5 6 6 8 11 11 13 13 14 15 17 15 16 15 16 13 14 10 13 11 9 11 17 19 21 20 8 6 31 16 15 14 9 5 3 5 7 4 4 7 6
11 12 4 9 7 9 10 13 14 12 12 6 10 12 14 12 14 18 14 13 11 10 10 11 10 10 14 17 18 19 20 14 13 10 12 9 12 17 3 4 11 7 8 8 7

GFSSW_925_spd_054.txt.gz
Wind_Speed
13 15 17 18 16 17 18 19 19 20 21 22 22 22 23 23 23 13 7 7 3 8 4 1 7 11 11 5 6 5 4 4 10 8 6 9 4 1 4 13 5 8 10 15 24
14 16 17 18 18 18 17 18 18 19 20 22 23 23 22 23 22 11 13 10 6 6 4 4 5 4 3 5 4 5 5 10 10 13 8 13 5 3 5 5 7 8 17 28 27
16 17 18 19 19 20 19 18 19 19 20 22 23 22 22 20 4 6 3 14 12 9 7 6 10 1 3 3 4 4 6 2 9 16 13 11 3 1 5 2 9 17 18 15 20
18 18 20 20 22 21 20 20 20 19 20 21 22 20 20 5 3 4 4 12 12 9 7 5 3 2 2 5 4 4 10 12 17 6 11 10 6 5 6 6 19 24 22 16 15
19 20 21 22 23 23 23 22 21 20 19 20 20 18 7 3 8 8 7 10 10 9 8 3 3 2 4 5 8 5 12 9 23 12 11 11 11 8 6 5 22 23 21 16 16
20 21 22 23 25 24 25 24 23 21 19 19 18 15 2 3 6 10 10 9 10 12 6 8 7 5 5 4 2 4 11 13 6 12 9 6 5 4 6 6 23 23 21 17 20
21 22 22 24 25 26 27 25 24 22 20 18 14 8 2 13 4 11 12 9 12 16 5 13 13 3 3 7 5 7 7 7 4 3 6 5 2 7 1 9 21 19 18 17 13
22 22 23 25 26 27 28 26 26 24 21 15 10 2 6 13 13 15 17 16 16 18 21 22 12 3 2 3 9 7 4 6 6 6 8 7 6 13 6 10 11 20 17 20 16
23 22 24 26 27 27 29 27 27 24 16 9 2 2 9 14 9 17 20 18 16 16 20 19 2 2 7 3 6 6 3 6 7 7 2 6 8 7 8 10 11 16 15 17 13
23 23 24 25 26 28 29 28 18 6 1 1 0 3 6 4 7 17 21 20 7 4 5 4 5 3 4 5 5 5 2 7 7 6 7 7 9 12 10 11 14 17 17 16 15
23 24 24 25 24 27 30 10 6 4 0 6 4 4 11 11 19 5 5 6 4 2 1 4 3 7 13 10 10 6 5 9 6 3 1 8 4 12 3 6 10 14 14 13 14
23 25 25 24 24 24 15 2 5 4 8 10 14 13 29 17 9 10 7 2 3 6 4 6 6 13 6 8 9 7 8 11 4 9 4 10 10 4 8 8 12 17 15 15 11
24 25 26 24 23 8 13 10 23 20 2 7 8 7 9 11 10 12 9 5 6 4 6 7 13 4 6 10 9 5 9 7 9 3 6 4 6 6 6 4 11 9 13 13 15
23 24 26 28 7 15 10 20 20 6 4 8 6 9 7 7 8 10 14 9 5 11 7 7 11 12 9 8 7 3 9 6 8 1 5 4 5 5 6 8 6 12 15 14 13
23 23 24 22 16 7 11 22 19 3 2 6 6 5 6 11 3 3 20 5 9 9 6 12 5 7 3 7 3 7 6 3 3 2 3 3 5 5 5 5 6 9 12 12 12
25 23 25 11 14 12 20 18 5 5 6 6 2 6 6 5 6 4 4 4 4 8 3 9 4 4 7 4 3 4 3 7 5 3 3 4 4 5 6 9 4 4 11 13 12
26 24 25 20 6 4 20 5 4 4 4 6 4 1 8 9 5 7 5 3 7 3 5 7 9 6 5 4 6 6 7 4 5 5 6 1 2 8 7 6 6 11 12 11 8
29 26 18 23 18 9 9 5 4 6 8 5 6 6 4 4 7 7 4 6 5 4 3 3 9 3 3 6 7 4 8 6 4 3 5 4 4 5 9 9 14 21 17 12 7
31 16 12 18 11 14 4 3 8 6 3 8 9 2 4 3 5 7 10 8 9 10 9 6 8 3 6 5 10 7 2 7 6 1 3 3 2 4 8 17 21 23 3 6 6
17 10 10 8 13 12 4 5 5 5 6 6 2 3 7 7 6 4 1 6 8 12 6 8 4 6 10 2 4 10 6 0 3 2 5 5 4 6 2 13 14 9 8 1 3
5 3 5 15 16 5 3 6 6 12 5 3 7 3 2 2 1 2 3 5 4 9 11 7 5 18 3 2 6 1 2 4 5 5 5 2 4 2 11 14 11 9 9 9 8
8 2 8 23 3 2 3 5 4 11 6 7 6 7 3 1 3 2 2 4 9 7 9 9 7 7 14 2 5 6 7 6 5 8 3 5 4 5 4 9 12 10 15 13 6
3 3 9 21 3 3 5 5 6 12 10 5 5 5 3 1 2 3 4 7 13 10 2 1 1 2 9 7 5 2 3 5 4 4 4 5 5 2 7 6 11 13 8 5 4
2 3 4 3 1 3 2 6 5 6 13 7 6 2 7 6 1 4 5 4 11 7 9 5 3 6 7 6 2 4 6 3 6 3 3 5 6 7 11 14 13 9 11 9 5
2 4 4 2 5 7 5 5 6 5 3 6 3 1 2 2 7 5 5 8 9 9 9 4 1 2 5 4 4 1 4 9 3 4 5 12 16 20 21 20 18 19 8 7 9
1 1 4 4 4 2 8 6 6 5 3 6 4 5 1 1 1 4 3 1 3 7 7 6 3 3 4 6 5 2 5 7 6 5 5 12 6 17 17 2 6 10 12 12 11
5 5 3 5 5 5 3 8 5 3 1 3 5 3 6 2 2 3 4 4 5 1 3 3 3 4 5 4 6 5 3 1 4 4 2 5 6 19 11 13 13 15 15 13 12

GFSSW_925_spd_057.txt.gz
Wind_Speed
17 18 19 19 20 20 19 20 19 20 20 22 23 23 23 24 24 15 5 6 4 9 8 13 8 8 9 4 6 3 3 2 4 3 6 6 3 7 2 8 4 8 7 16 30
18 19 19 21 21 22 20 21 20 20 21 22 22 22 22 25 20 13 12 8 6 12 9 10 5 9 3 4 3 4 3 9 8 7 6 1 7 7 5 5 3 5 16 32 33
18 19 20 21 22 22 21 22 21 21 21 22 22 22 22 19 4 6 5 15 9 10 7 5 5 5 4 4 4 4 5 7 9 16 16 5 6 7 10 4 6 20 18 22 26
20 21 21 22 23 24 23 23 23 22 22 22 22 21 21 6 1 3 4 8 12 9 6 3 1 2 3 4 2 4 9 5 7 9 6 8 4 3 4 5 14 22 23 20 18
21 22 23 24 25 26 24 25 23 21 21 21 21 18 9 5 7 7 4 6 9 9 6 3 2 3 2 4 7 1 5 9 12 8 9 8 4 5 3 4 15 16 20 17 16
22 23 23 25 27 27 27 26 24 23 22 20 18 13 3 4 4 9 8 8 9 10 4 6 5 4 5 4 1 5 8 12 5 3 3 6 4 3 3 14 15 16 16 14 16
22 23 24 26 27 28 29 28 25 24 23 19 13 7 0 13 2 6 9 12 10 11 5 10 4 2 2 4 3 5 7 8 4 6 5 4 3 6 6 16 18 17 11 12 11
22 23 25 26 28 29 30 29 27 27 23 14 6 1 7 7 9 13 13 19 16 14 18 20 7 4 4 2 8 6 4 6 3 3 4 8 7 8 12 18 17 14 12 10 11
23 24 25 27 27 29 31 29 29 22 13 3 3 3 9 11 9 10 15 16 10 10 13 16 4 3 6 3 5 6 4 4 10 3 4 5 5 2 16 18 17 15 12 11 11
24 25 25 27 27 29 30 30 12 4 5 4 1 1 6 2 7 15 13 16 6 4 7 2 5 3 4 5 4 4 4 4 6 5 5 6 6 7 17 18 19 16 11 12 13
25 26 26 26 26 27 29 10 6 4 1 5 4 5 5 9 14 7 9 8 3 2 4 4 4 4 11 8 4 3 6 7 16 10 6 5 6 7 11 13 14 15 11 11 10
24 26 28 26 24 24 13 3 5 6 8 10 12 9 24 4 5 10 2 3 3 4 2 5 5 9 5 5 5 6 8 13 11 13 0 3 2 2 2 8 14 16 11 11 8
24 25 28 26 23 7 12 6 18 13 3 8 6 7 6 14 10 12 7 2 4 3 3 6 9 4 4 7 5 5 6 12 12 4 4 3 5 4 2 5 5 5 5 6 11
25 25 26 29 5 14 8 15 22 2 4 8 5 9 6 8 6 10 14 8 2 9 6 6 6 7 5 7 6 6 11 9 5 4 3 3 5 4 5 6 2 10 8 8 8
25 24 24 23 17 7 8 21 13 4 3 5 5 1 3 10 7 5 7 5 9 6 6 10 4 3 5 8 5 10 4 7 2 3 2 3 4 6 4 6 3 6 8 8 6
26 25 25 12 13 14 14 18 2 5 7 7 3 2 5 3 5 1 4 5 4 5 3 9 3 4 7 6 5 3 5 6 4 3 2 3 4 5 3 6 9 19 21 19 3
27 25 27 20 5 3 20 4 4 4 5 6 3 3 2 3 2 5 5 5 6 3 5 5 6 4 4 5 3 7 7 4 4 5 5 3 1 5 8 4 20 23 25 26 17
30 28 20 21 14 4 5 5 4 5 7 6 5 6 2 2 4 4 4 4 4 4 3 5 8 4 4 5 4 1 7 6 4 3 5 2 3 4 3 10 18 20 18 20 22
30 14 11 15 13 11 5 3 8 7 3 6 8 5 7 6 4 2 6 6 8 10 9 6 7 5 6 4 6 2 3 6 7 3 3 2 4 3 2 6 10 11 12 5 10
19 9 8 7 13 12 4 5 4 5 5 5 2 3 6 6 6 5 5 3 5 9 2 7 3 6 5 2 1 5 6 3 3 3 3 4 3 5 10 12 10 9 9 7 4
7 4 2 13 15 5 4 6 5 10 2 2 2 3 5 4 2 3 4 2 2 5 8 6 4 9 3 4 5 2 1 6 6 4 6 2 6 6 15 10 10 9 11 10 8
6 2 2 23 4 1 4 6 5 6 3 5 4 8 7 6 2 2 1 1 8 3 4 5 6 7 11 5 3 3 4 6 5 5 1 4 5 3 7 6 7 9 13 4 5
3 3 9 5 3 2 4 4 6 5 8 5 4 4 2 6 3 3 3 3 8 7 1 4 1 2 10 6 4 1 2 5 5 3 5 5 5 1 1 6 9 12 9 4 2
2 2 3 3 1 5 0 5 5 6 8 6 7 3 2 1 4 1 4 2 7 6 4 7 3 5 7 7 2 5 3 4 5 3 4 5 3 6 9 12 16 15 6 3 5
1 3 2 2 5 4 4 3 4 5 4 7 4 7 6 4 1 3 2 5 5 8 6 4 3 2 4 3 3 2 4 6 4 5 5 5 9 9 18 21 19 10 5 5 6
1 1 3 3 3 3 5 4 8 10 6 3 3 3 4 5 6 3 2 0 3 6 5 5 1 4 1 1 3 3 4 2 5 4 3 5 7 7 5 4 6 9 6 5 5
3 3 2 3 4 2 3 4 6 4 2 1 1 5 6 5 6 5 6 3 4 1 1 3 3 3 4 4 1 3 2 2 2 2 7 5 9 3 5 11 14 10 8 8 6

GFSSW_925_spd_060.txt.gz
Wind_Speed
17 18 19 20 21 21 20 19 20 20 22 23 24 26 26 26 23 10 5 4 9 16 14 23 10 11 10 3 5 2 3 3 4 3 6 1 3 3 1 6 4 6 6 7 21
19 19 20 21 23 23 21 21 22 23 23 23 24 25 26 27 20 6 5 11 10 17 16 16 6 10 3 3 2 3 3 7 7 6 6 4 4 8 3 4 2 4 7 23 22
21 21 21 22 24 25 24 23 24 23 23 23 24 24 25 22 4 4 3 14 13 17 7 6 8 7 3 3 3 4 6 5 8 10 9 5 5 4 8 5 7 10 16 15 17
21 21 22 23 25 26 26 25 24 23 22 22 22 23 23 7 1 1 4 15 12 15 7 5 4 4 3 4 5 3 10 5 7 4 5 4 6 6 8 7 8 18 21 16 15
22 22 23 24 26 26 26 26 25 24 23 22 20 18 10 5 7 6 2 13 13 10 6 3 3 4 3 3 3 5 5 3 9 9 6 6 5 7 8 0 14 16 16 16 14
24 24 24 25 27 27 27 27 26 26 25 22 18 11 2 4 2 5 4 12 9 10 5 8 5 6 4 4 1 4 6 9 7 6 3 7 4 5 3 10 16 18 17 13 13
25 26 26 27 28 29 29 28 27 27 27 22 13 3 2 13 4 6 4 6 6 7 4 6 5 2 2 5 3 5 7 8 5 4 3 7 3 8 7 14 17 17 13 12 8
24 25 27 28 29 30 29 27 27 29 24 14 4 2 6 6 8 11 10 10 11 8 12 10 8 3 3 4 8 6 4 5 6 4 5 2 6 13 8 16 15 16 12 13 8
25 26 26 29 30 30 30 27 29 17 9 2 2 3 9 8 7 4 10 9 5 6 8 7 2 2 4 4 5 6 4 3 8 4 2 4 5 7 9 11 14 15 12 12 8
26 28 27 28 29 30 29 28 7 2 4 4 3 2 6 2 3 7 4 10 5 2 2 4 5 3 3 5 3 3 4 5 6 3 2 4 9 9 9 9 13 12 11 10 10
27 28 28 28 27 28 28 6 6 3 4 6 3 4 5 7 7 3 1 5 3 6 1 2 4 3 8 6 5 3 4 6 13 3 4 6 5 10 12 6 9 10 11 11 9
27 28 29 29 28 23 9 4 8 3 8 8 9 9 18 2 5 6 6 4 4 5 2 5 3 8 2 3 4 5 5 9 12 2 3 3 6 2 3 3 3 7 7 8 6
26 28 28 28 25 6 10 4 11 3 2 8 6 7 5 13 10 10 9 4 5 4 5 7 6 5 3 4 4 4 5 6 10 7 1 3 7 6 2 9 11 14 13 7 5
25 26 27 30 4 17 6 5 20 8 5 8 5 8 5 7 5 9 14 7 2 10 7 5 4 6 4 5 7 4 7 11 1 3 3 3 4 5 8 10 14 14 15 11 13
25 25 25 23 17 7 4 18 8 3 3 5 4 1 2 7 3 4 5 5 11 7 7 8 4 3 4 5 6 9 1 2 4 3 2 3 4 6 3 6 9 14 16 14 13
25 26 26 12 13 15 13 19 3 5 7 6 4 2 3 3 5 2 4 5 4 5 2 8 3 5 7 3 7 1 4 8 5 3 3 4 4 5 1 5 4 9 10 14 16
28 26 26 20 5 7 19 3 4 4 4 5 3 4 3 4 4 4 5 6 7 5 5 4 4 4 4 4 2 5 6 3 4 4 6 3 2 7 6 7 12 16 14 17 5
30 27 18 21 11 5 5 5 4 5 7 5 4 5 2 4 1 4 5 3 1 5 4 6 8 6 4 8 7 3 7 6 4 3 5 2 4 4 3 4 9 15 18 4 4
30 15 12 9 11 10 5 3 8 7 3 6 5 6 6 4 1 2 5 7 9 9 8 6 7 4 5 3 7 3 4 3 7 3 3 3 5 6 3 4 9 12 10 7 5
19 9 7 5 9 11 4 6 4 4 3 4 2 2 4 6 5 4 3 3 2 9 4 5 3 4 4 3 4 4 5 3 3 4 4 4 3 5 8 12 14 12 15 4 5
6 4 9 6 12 5 4 7 6 6 4 2 2 4 3 4 1 2 1 3 3 1 6 6 6 6 2 2 6 2 1 6 5 4 6 3 6 7 14 16 15 13 12 7 6
6 2 6 14 3 1 3 6 3 5 3 5 2 5 4 3 4 1 1 1 6 2 5 4 5 5 11 2 2 3 4 6 5 4 1 4 6 3 6 11 10 13 7 7 7
2 3 3 4 3 2 4 4 5 3 5 3 5 7 4 4 2 3 1 3 6 4 2 4 1 1 8 6 2 4 4 5 5 3 6 6 6 1 3 8 11 11 5 6 7
1 2 2 2 0 3 0 4 4 4 7 5 6 3 2 2 2 1 4 3 8 3 5 7 3 4 7 6 4 3 3 4 6 4 5 5 6 7 7 10 11 14 4 5 6
1 3 2 2 3 2 2 3 5 3 3 6 3 7 6 5 2 1 1 5 4 8 3 4 2 1 3 4 2 2 4 4 3 5 5 4 7 9 9 13 10 3 4 6 5
1 2 4 3 3 0 3 3 5 5 6 4 4 7 7 6 8 7 3 2 3 5 4 3 2 1 3 7 6 1 3 4 2 3 1 1 5 7 6 4 7 11 8 6 7
3 3 2 3 4 2 3 3 5 4 6 6 3 4 5 5 4 2 4 1 1 1 2 3 2 3 3 3 4 4 3 3 2 2 5 3 6 6 5 7 11 9 9 10 9

GFSSW_925_spd_063.txt.gz
Wind_Speed
19 19 19 21 22 21 20 21 22 23 22 22 22 24 24 24 21 6 6 7 14 25 22 20 8 9 10 3 5 2 3 4 5 4 5 5 9 5 3 7 5 7 3 3 19
21 21 20 21 22 23 21 21 23 23 23 23 23 23 24 26 15 7 4 10 15 27 22 20 10 12 3 3 3 3 2 3 4 8 6 6 11 10 7 8 6 7 3 16 20
22 22 22 21 23 24 22 23 23 24 23 23 24 23 24 21 3 0 3 13 16 22 16 10 14 8 4 3 5 4 4 8 11 13 9 10 9 10 9 10 11 14 13 16 18
22 23 23 24 25 25 24 24 24 25 24 23 23 22 22 6 1 3 2 14 18 13 17 10 8 4 3 4 5 4 10 12 8 15 7 4 3 6 14 8 11 12 18 18 17
23 23 24 24 26 26 26 26 25 24 24 23 21 19 9 4 5 4 6 15 21 13 7 7 7 4 5 3 2 8 6 7 11 10 4 5 8 5 9 6 9 16 18 18 15
23 24 25 26 27 27 27 28 27 26 25 23 18 12 2 5 2 1 10 17 15 11 6 7 4 5 4 4 3 3 13 16 3 2 3 1 4 3 1 12 15 17 19 16 15
24 24 26 26 28 28 28 27 28 27 26 20 12 3 2 12 4 2 8 10 10 10 4 6 4 5 1 5 2 5 9 12 5 5 4 5 6 5 3 11 15 15 16 13 12
25 26 26 28 28 29 28 28 28 27 20 12 3 4 6 4 5 8 9 9 10 10 6 4 4 3 3 4 2 3 2 5 5 8 4 4 11 10 10 12 14 15 15 13 12
25 26 27 29 29 29 28 28 25 12 6 4 2 3 7 3 6 5 13 7 7 7 3 3 2 1 3 2 4 3 7 5 5 6 1 3 12 8 10 12 12 14 14 13 10
26 27 27 28 29 29 28 24 7 2 2 2 1 3 5 1 1 2 6 8 3 4 4 2 2 3 2 3 9 3 5 5 10 3 9 12 14 14 2 9 11 11 9 11 12
26 28 27 28 28 29 25 6 3 3 2 5 1 5 5 7 8 4 4 8 5 3 5 1 5 5 7 4 2 3 5 10 16 7 6 5 10 11 6 5 9 12 11 11 10
28 28 28 27 27 20 10 4 5 3 8 7 10 13 15 7 6 6 7 7 6 7 4 3 6 7 2 5 4 4 8 14 14 5 6 3 6 8 10 3 9 13 14 15 12
28 30 29 27 23 5 9 5 11 2 4 7 6 7 4 13 10 12 11 6 5 7 8 10 6 4 5 5 7 9 9 12 11 4 2 5 4 2 5 5 4 11 14 16 16
28 28 30 28 4 17 2 2 20 8 3 5 5 4 4 6 6 9 17 7 4 12 7 7 4 8 7 7 6 10 6 12 9 4 4 2 4 1 2 3 4 9 14 16 19
27 28 29 23 16 5 2 15 7 3 3 2 3 1 4 7 2 5 3 6 13 9 7 5 6 8 8 5 8 6 2 4 3 4 2 3 4 0 5 7 8 10 12 17 20
30 28 30 13 11 11 9 14 4 3 8 3 2 3 3 6 3 3 6 2 2 7 4 6 2 4 6 4 9 2 2 2 2 1 5 3 4 4 5 4 6 10 14 15 13
32 30 24 16 5 7 13 2 4 5 2 1 1 3 2 3 6 7 9 12 13 8 13 11 10 4 5 6 4 3 3 2 4 4 6 2 4 5 5 7 11 11 13 11 7
33 30 17 19 8 5 0 3 7 5 7 3 3 7 3 1 4 6 7 9 4 4 4 11 9 10 9 12 7 7 4 3 5 4 5 2 3 4 5 6 9 13 11 10 6
32 17 11 5 8 10 3 9 6 6 1 4 4 4 2 1 2 3 8 7 11 10 8 6 5 2 5 3 6 6 5 2 5 1 4 2 4 11 8 9 7 10 12 14 10
22 9 5 8 4 8 4 9 4 3 3 1 3 1 2 4 2 1 6 2 3 10 3 7 6 3 2 5 4 4 8 3 1 4 6 3 4 6 7 10 10 12 15 13 10
6 4 9 4 11 3 7 5 6 7 4 3 1 3 2 3 4 2 2 2 2 3 5 7 7 4 3 7 8 4 4 3 2 2 5 4 4 6 10 7 13 14 14 10 10
5 3 5 9 2 1 4 5 2 6 2 4 2 4 5 5 4 2 1 1 3 4 6 5 4 9 14 2 2 2 4 6 5 5 1 3 4 3 7 7 11 14 11 9 8
5 3 2 3 3 3 2 3 3 6 5 3 4 7 4 4 3 3 2 2 6 2 3 7 3 6 4 4 3 5 5 4 4 1 7 4 3 2 5 8 9 13 9 9 8
3 2 2 1 1 2 0 2 3 3 9 6 8 6 4 5 4 3 1 1 3 3 4 4 2 3 6 2 1 5 7 8 5 4 6 6 3 4 4 9 9 10 9 9 9
2 1 2 2 4 4 2 2 9 6 4 4 4 12 10 6 5 4 3 2 2 3 2 0 2 3 1 3 3 3 10 12 8 3 5 7 7 8 13 10 10 6 7 8 9
2 3 4 3 3 3 4 3 4 5 5 4 8 5 13 6 6 7 4 2 1 2 2 1 1 1 1 1 2 1 2 3 5 2 3 4 2 11 11 10 9 5 9 12 14
3 3 3 2 2 2 2 1 4 6 7 11 8 6 10 16 6 2 2 3 2 2 2 2 1 1 3 6 2 4 2 2 4 6 4 1 5 15 14 14 13 11 8 12 14

GFSSW_925_spd_066.txt.gz
Wind_Speed
19 20 20 21 22 22 21 21 22 21 21 22 22 21 21 22 19 4 9 6 11 23 20 18 10 8 9 5 5 5 5 7 12 12 11 6 4 4 1 6 6 6 2 8 21
20 20 21 21 23 23 22 22 23 22 21 22 22 22 21 22 9 10 6 9 13 25 22 17 10 11 4 3 3 7 6 10 10 10 14 9 6 5 6 8 8 8 7 16 21
21 21 22 22 23 23 23 23 24 23 22 22 22 22 20 17 8 4 4 6 16 24 15 8 7 8 7 4 2 4 9 15 13 12 14 13 7 8 11 8 9 11 14 17 20
22 22 23 24 25 25 25 25 25 23 24 23 22 20 18 3 2 2 5 10 22 14 13 9 7 7 7 6 1 9 13 11 15 14 11 8 6 4 11 5 5 8 17 19 18
22 23 24 26 26 25 25 26 25 25 24 24 22 17 8 7 3 2 8 16 24 11 16 10 9 8 11 7 7 11 13 14 15 15 8 6 5 4 4 2 4 12 17 17 16
22 23 25 27 28 26 26 26 26 26 25 24 19 11 5 10 4 5 15 22 16 14 13 11 7 7 9 10 9 11 15 19 11 7 2 7 3 2 6 7 7 12 16 16 15
23 24 25 27 28 27 27 27 27 27 25 20 14 4 8 10 5 10 17 18 14 13 9 9 7 9 3 9 5 10 14 16 3 5 7 8 10 2 3 8 10 12 14 13 12
24 24 26 28 29 28 28 27 26 25 19 13 5 2 7 3 7 11 14 12 13 14 9 4 6 8 9 6 11 11 15 15 8 3 3 10 10 8 4 7 9 12 14 12 11
26 27 26 27 29 28 29 28 24 14 6 2 1 5 7 4 7 12 16 11 15 11 8 3 7 8 6 13 15 14 14 15 11 1 10 6 14 5 3 5 9 12 14 14 14
26 27 27 28 28 29 27 24 12 6 3 3 4 6 7 3 4 6 12 12 11 11 8 9 8 10 11 11 14 16 13 12 10 3 12 14 11 6 3 4 9 11 13 16 17
28 28 27 28 28 26 23 7 6 6 8 11 2 8 2 2 5 9 10 12 12 13 15 12 11 13 14 10 9 9 11 18 15 14 10 14 9 5 5 5 9 13 14 16 17
29 30 28 27 28 16 11 5 5 5 9 11 16 18 21 10 6 10 11 11 12 17 16 8 16 13 5 7 10 11 14 16 15 7 9 13 6 3 3 2 7 13 14 16 15
27 30 29 27 21 6 8 2 6 6 7 8 12 13 14 14 13 17 16 15 14 16 16 18 10 3 9 13 13 15 15 13 15 8 12 11 11 9 5 4 5 11 12 14 15
25 29 30 30 3 14 2 0 12 4 6 9 8 7 7 10 9 20 22 15 13 16 16 13 15 12 15 14 13 15 8 6 12 11 15 10 8 9 6 6 6 8 11 11 13
27 27 28 25 14 6 3 12 9 4 6 4 10 5 6 13 2 11 20 19 20 17 10 15 10 11 17 18 11 12 3 8 12 12 17 11 8 4 6 9 9 9 9 10 11
28 28 28 8 9 11 10 11 4 7 11 4 5 10 11 14 11 6 10 13 15 22 15 20 4 8 11 9 10 6 10 11 9 12 11 16 7 12 6 6 1 7 9 9 9
29 30 24 11 4 6 12 5 6 11 3 8 6 9 9 12 15 15 14 17 15 16 17 18 18 15 10 14 12 9 12 10 9 10 12 7 6 9 10 2 4 4 7 8 9
33 29 12 11 7 6 5 7 12 10 19 4 4 8 11 7 12 16 18 19 23 22 16 20 18 20 16 21 15 17 16 11 9 11 9 7 7 5 4 3 3 5 6 9 9
30 11 7 3 4 8 6 13 11 14 4 8 10 10 10 7 5 9 18 19 19 21 20 14 16 5 8 17 18 15 11 13 11 9 9 13 3 10 14 12 7 8 11 12 13
18 10 4 3 4 10 8 18 13 2 8 5 11 3 8 4 8 8 13 10 12 15 20 11 10 10 10 8 6 13 6 10 10 15 12 10 4 9 7 6 7 11 13 14 13
7 5 5 1 9 6 11 16 16 7 6 5 3 5 6 2 6 6 6 6 6 9 13 15 11 9 10 13 14 9 13 10 12 5 9 11 8 4 7 4 4 9 12 14 14
6 4 4 5 6 6 12 10 4 11 13 11 7 8 8 8 7 5 6 3 3 6 10 16 11 14 13 5 4 6 9 15 11 14 11 9 10 7 6 3 1 4 10 11 9
6 4 3 2 5 8 10 10 11 12 12 10 12 7 9 9 5 5 2 4 4 5 6 8 9 12 15 8 7 11 13 12 11 7 11 10 8 6 4 5 5 2 7 7 6
4 3 4 5 5 6 4 10 12 9 13 14 16 13 12 11 11 7 5 4 0 2 3 5 4 12 12 11 8 18 15 14 14 11 13 12 14 13 10 10 11 0 7 7 7
3 1 3 1 8 9 8 9 10 9 8 6 10 18 16 15 14 13 12 6 6 5 3 2 5 5 6 3 5 7 13 16 17 18 10 10 8 10 9 10 10 8 1 6 8
4 4 4 8 6 8 5 8 11 9 9 10 12 10 14 17 15 11 12 7 4 4 2 1 1 4 8 4 4 8 7 9 13 6 9 5 9 9 6 9 11 11 7 1 7
4 4 4 3 5 5 3 5 7 7 7 13 10 9 11 13 17 5 5 4 2 1 1 2 2 5 8 2 6 9 5 7 6 3 5 10 7 7 7 9 11 13 12 9 6

GFSSW_925_spd_069.txt.gz
Wind_Speed
20 20 21 21 22 22 22 23 24 22 21 21 22 23 23 24 23 7 11 6 8 14 13 10 10 10 10 13 9 15 14 9 10 8 10 8 6 7 4 11 3 3 7 19 21
21 21 23 23 23 22 22 23 24 23 23 22 22 22 24 25 16 17 9 10 9 19 16 14 10 9 11 8 5 10 12 10 10 10 10 8 1 1 3 11 7 7 9 22 22
22 22 24 24 24 24 23 23 23 23 23 22 22 22 22 22 12 4 7 8 12 19 14 14 8 10 15 9 7 9 11 11 9 11 11 10 6 4 5 6 13 12 13 18 19
22 23 24 24 25 25 24 24 25 24 24 23 23 22 20 7 5 5 1 8 14 18 14 14 12 13 16 13 3 10 14 11 10 10 9 10 10 3 3 5 7 11 17 18 15
22 24 25 25 25 25 25 26 25 26 24 24 23 19 11 9 9 2 5 12 21 15 16 14 14 13 17 14 11 13 14 14 15 9 8 9 5 7 3 4 4 14 17 18 16
24 25 26 26 26 26 26 26 26 26 25 24 19 14 10 15 3 6 12 19 18 17 17 15 12 11 14 17 15 16 15 19 19 4 3 9 12 4 6 6 9 13 17 17 17
25 26 27 28 28 28 27 26 26 26 24 21 15 6 12 15 1 9 15 19 17 16 13 14 15 13 16 15 16 13 17 18 16 5 9 10 17 12 7 7 10 13 15 16 15
25 26 27 29 29 29 28 27 26 24 21 15 8 6 11 3 8 12 17 17 16 13 14 7 9 14 18 16 21 18 19 17 18 3 9 6 10 10 5 8 9 12 15 15 15
26 26 27 28 29 30 30 27 25 21 12 7 5 9 17 7 13 18 20 18 17 15 14 9 12 15 16 14 17 17 16 17 21 11 6 12 12 6 5 7 9 11 14 15 14
27 27 27 29 28 29 29 24 21 14 7 8 13 9 18 12 13 16 23 21 15 15 14 13 13 15 14 13 15 16 19 18 14 9 7 12 15 5 3 7 10 12 13 15 15
27 28 28 28 30 25 23 11 8 7 14 15 6 13 3 8 6 12 16 19 17 15 17 19 15 16 17 16 13 15 14 17 15 12 13 15 15 14 1 8 9 12 13 14 15
27 28 29 28 28 14 11 9 6 8 11 17 21 21 22 6 7 15 20 17 17 19 19 18 17 16 16 9 10 13 15 16 15 15 15 15 17 10 4 7 7 12 13 14 15
27 28 29 28 18 6 12 6 6 12 8 20 22 23 21 23 21 18 18 21 17 20 18 18 18 5 10 10 15 16 17 15 15 13 12 15 16 16 11 7 6 10 10 14 15
28 29 28 32 7 15 7 3 9 8 7 19 22 21 20 17 23 26 25 21 22 21 18 18 16 18 12 13 16 17 16 16 11 10 12 16 15 18 14 12 9 7 9 12 14
28 30 28 19 15 9 8 12 11 6 7 9 25 10 18 22 19 24 28 19 25 20 16 17 15 13 15 17 18 17 14 8 12 13 16 19 11 10 11 11 12 10 6 6 14
28 28 30 9 12 14 11 12 10 8 12 11 7 13 18 21 24 6 18 25 20 24 20 21 19 11 14 13 15 13 9 14 17 14 14 17 17 12 12 15 4 11 5 8 10
30 29 25 13 8 7 12 9 8 11 13 24 13 15 22 24 26 23 18 21 20 19 23 25 21 17 14 13 11 14 14 12 13 12 12 11 13 9 10 7 2 4 8 9 11
34 27 13 12 8 9 11 9 17 15 23 9 9 14 19 22 21 30 26 22 26 27 18 21 22 22 19 20 17 17 16 13 13 11 10 12 9 10 4 3 3 3 6 10 13
32 15 13 9 7 9 8 13 17 15 20 10 18 13 19 21 11 18 22 26 27 26 25 22 23 22 26 23 20 20 18 17 19 17 10 10 4 12 12 7 7 9 9 12 13
22 16 13 5 5 9 9 17 19 23 7 8 14 18 18 21 16 21 16 21 23 24 24 23 26 19 12 11 19 22 16 13 12 16 16 12 9 7 9 7 9 8 13 14 15
11 6 6 4 8 8 11 16 19 25 5 13 18 18 17 15 9 14 19 20 12 21 19 21 20 19 10 12 17 12 16 15 17 14 13 13 11 8 4 4 4 8 12 14 15
10 6 5 6 7 9 13 18 17 16 12 13 15 16 17 15 9 18 15 8 3 13 13 19 14 12 17 19 19 21 19 20 13 17 13 12 13 5 3 10 4 6 10 13 13
5 9 5 7 8 10 11 14 13 13 16 18 16 18 17 15 13 17 17 11 3 10 6 14 13 13 17 17 13 10 18 10 19 15 16 10 7 9 12 10 7 3 10 10 8
5 4 6 6 11 9 13 8 13 16 15 18 18 17 17 16 14 12 12 3 0 7 11 5 10 14 16 18 14 22 19 17 16 12 13 15 16 13 9 9 8 5 11 10 7
5 2 5 3 6 8 8 13 13 12 10 13 11 19 18 17 17 16 15 18 9 6 5 7 12 13 18 18 15 20 21 22 21 17 16 5 12 12 13 10 11 9 7 8 9
6 5 9 11 11 9 6 7 16 13 14 14 13 16 16 18 18 16 17 13 13 13 11 7 9 11 12 16 12 17 11 12 16 19 17 21 11 3 8 8 14 12 9 5 3
7 13 7 10 10 9 5 8 11 13 14 14 17 9 13 8 11 17 17 12 4 9 3 5 8 7 15 17 15 15 14 14 14 11 8 4 14 10 9 12 12 10 10 8 6

GFSSW_925_spd_072.txt.gz
Wind_Speed
21 22 22 21 21 21 21 21 22 22 22 23 23 24 27 28 27 10 12 13 12 7 9 5 11 14 17 18 19 14 10 13 12 9 11 8 3 7 2 11 9 5 11 21 22
23 23 23 22 23 22 22 23 23 23 23 23 23 24 25 27 22 20 19 12 10 9 11 14 11 12 11 19 12 10 8 11 7 8 9 12 3 4 2 17 3 14 21 23 23
24 24 25 25 24 24 24 24 24 24 24 24 24 23 24 24 12 9 10 11 12 12 16 15 17 12 14 19 16 9 12 12 12 8 10 12 4 9 2 8 16 18 17 19 20
24 26 26 26 26 26 26 25 24 24 23 24 24 24 22 8 7 6 7 7 9 12 17 17 16 15 16 19 19 6 13 10 14 13 6 12 8 6 6 8 16 22 20 19 17
24 25 26 27 26 27 27 26 25 25 24 23 23 21 12 9 17 2 5 7 10 14 18 17 17 17 16 15 19 17 13 14 12 18 5 6 7 12 5 10 7 21 19 19 16
25 26 27 28 28 28 29 27 26 25 25 23 20 16 6 16 2 2 7 11 12 16 19 17 15 17 18 17 18 18 19 15 16 21 12 5 13 3 11 5 11 19 17 18 17
26 27 28 29 30 30 29 29 27 25 24 22 17 8 11 18 11 4 11 12 15 17 16 18 18 17 17 18 21 21 18 17 19 21 10 7 13 1 11 4 10 15 14 16 15
26 27 29 30 29 31 31 29 27 25 23 18 13 5 9 19 15 16 14 15 16 16 17 17 10 13 18 17 21 22 22 15 18 21 6 7 14 8 14 10 9 11 14 14 15
26 27 29 30 30 31 32 29 25 24 21 12 7 9 17 4 17 18 18 19 18 18 16 15 10 14 17 17 16 17 16 20 21 18 5 6 13 10 5 12 10 10 10 13 13
29 28 30 30 30 32 31 26 23 23 10 8 15 10 19 21 20 19 21 22 17 14 14 15 11 13 15 14 13 18 16 17 16 13 14 10 13 11 8 6 8 13 11 13 15
30 31 32 32 29 28 27 15 5 5 10 15 11 12 22 6 10 15 24 21 19 18 18 17 14 15 20 19 20 19 17 18 17 16 11 10 13 12 17 6 7 13 13 13 15
30 32 34 33 31 21 14 8 7 9 12 18 23 26 31 28 12 18 18 21 21 21 20 19 19 21 20 19 18 13 13 16 16 16 13 15 17 15 19 4 9 10 15 15 16
30 32 32 34 25 12 13 15 9 13 9 23 22 26 26 26 21 18 20 20 21 22 20 21 21 23 23 17 17 13 16 17 17 16 14 14 14 16 19 8 6 8 14 17 16
30 31 31 36 10 20 16 8 12 14 8 18 24 30 30 29 29 29 27 22 23 25 24 20 21 21 17 13 13 16 18 19 16 16 11 14 13 15 18 15 14 12 9 17 15
31 32 31 28 17 11 17 16 15 12 7 11 18 34 30 32 28 24 32 26 26 25 22 22 22 20 17 19 13 16 17 16 14 11 15 17 11 14 13 16 15 15 13 10 17
34 32 34 12 13 18 17 16 13 7 13 13 21 10 25 27 27 28 24 28 26 27 25 25 22 20 17 18 16 16 17 18 12 13 14 18 16 15 11 10 7 13 7 8 14
36 34 33 16 10 13 14 12 7 10 8 20 22 20 17 20 23 26 28 28 25 23 22 27 26 24 21 11 14 13 15 11 12 13 13 20 17 11 8 18 12 20 15 11 9
39 35 24 16 10 12 13 9 14 12 21 18 25 22 22 19 23 24 27 24 25 27 19 21 22 26 23 20 16 16 14 12 15 14 12 11 7 9 7 6 13 9 14 12 11
39 22 16 17 11 8 7 11 14 15 21 21 19 21 22 18 16 23 28 27 26 26 23 20 28 20 27 25 21 20 17 17 18 19 14 12 6 7 9 11 7 15 14 11 12
22 19 19 9 6 9 8 15 20 23 24 22 18 18 17 18 18 21 20 19 31 31 24 24 22 26 25 22 26 24 16 15 12 16 16 15 14 4 10 11 10 16 14 13 13
10 6 8 5 6 6 10 16 18 21 22 20 15 17 20 20 19 15 15 19 19 26 23 25 21 23 20 24 17 16 15 16 18 13 13 12 10 6 5 6 9 12 14 16 15
8 6 9 4 6 7 12 17 18 21 21 17 11 16 21 22 14 17 8 15 26 23 24 22 16 17 24 21 22 16 20 19 11 14 13 12 10 14 9 8 8 6 14 17 15
5 10 14 6 8 11 16 17 14 16 17 14 17 17 17 20 19 17 17 10 20 20 13 12 8 9 20 16 12 18 20 19 18 14 18 13 9 12 18 14 8 11 11 15 15
5 5 6 5 10 15 14 15 15 9 13 15 17 20 19 17 20 17 18 20 16 10 12 9 10 14 13 17 17 11 22 18 17 11 15 17 5 14 15 21 18 3 11 10 8
4 4 12 6 7 9 14 15 12 16 13 13 11 17 18 18 18 19 20 18 16 5 6 6 10 15 15 18 14 13 13 19 19 18 15 13 13 10 14 18 13 7 8 10 8
5 10 11 13 15 15 12 12 11 14 15 17 14 11 17 16 18 20 19 18 14 7 14 15 10 12 18 19 18 14 19 23 25 22 20 16 10 14 12 12 8 7 6 5 8
16 16 8 10 15 14 7 11 10 11 11 21 14 15 14 18 15 14 19 18 17 5 2 7 9 8 15 4 24 7 17 17 9 14 6 5 16 17 14 12 11 9 9 10 10

GFSSW_925_spd_075.txt.gz
Wind_Speed
24 23 24 23 24 24 24 24 24 23 23 24 24 25 27 28 28 12 6 11 10 14 9 10 11 16 24 14 17 16 5 6 8 7 8 7 6 6 6 15 6 3 10 19 30
24 24 24 24 25 25 26 25 24 24 24 25 25 26 27 29 25 13 19 14 14 10 8 10 13 14 5 10 9 4 3 11 9 4 3 10 4 16 6 10 2 15 20 27 29
24 25 25 25 26 26 27 26 25 25 25 25 24 25 25 25 6 4 4 14 15 12 13 14 21 14 13 10 16 13 5 9 14 4 4 6 11 7 17 3 11 22 20 17 22
25 27 27 27 27 27 27 26 25 25 25 25 25 25 22 9 4 1 5 8 8 8 9 11 11 9 9 9 17 10 14 6 10 9 10 2 5 5 7 9 19 22 22 17 16
25 26 27 28 28 29 29 28 26 26 25 24 24 24 11 5 9 15 7 9 9 10 14 10 12 9 12 12 14 9 15 12 10 12 14 8 4 6 9 16 18 23 21 17 14
26 27 28 28 28 30 30 30 27 25 24 23 22 19 4 9 13 11 6 9 9 11 11 14 7 11 12 11 9 10 18 20 15 15 15 17 6 5 2 22 21 22 19 16 14
27 28 30 30 29 31 31 30 29 27 23 21 20 10 5 19 11 7 9 9 9 13 10 21 21 10 9 11 10 13 14 18 11 14 16 16 4 6 8 21 23 22 19 16 14
28 30 31 30 31 33 33 31 29 27 25 20 14 2 8 20 22 26 23 11 11 18 20 24 21 6 3 7 10 11 10 8 18 18 20 5 7 6 11 12 18 21 19 17 15
30 31 32 32 31 34 36 32 30 30 24 14 5 5 9 15 16 27 25 18 20 19 22 24 12 4 6 6 7 8 11 15 20 22 20 7 5 4 8 13 15 18 17 17 16
32 33 34 34 33 35 36 30 27 20 2 2 9 5 10 12 19 21 23 22 11 11 14 10 4 4 5 3 8 11 7 10 15 19 8 7 8 9 4 13 14 14 16 17 19
33 35 36 36 34 34 32 18 7 2 4 8 4 6 19 27 27 22 26 17 13 11 11 9 5 8 12 14 17 17 17 12 8 9 7 8 3 5 6 4 11 14 16 18 20
32 34 37 37 35 27 16 4 15 11 9 11 18 23 27 28 24 20 21 12 10 14 9 7 11 15 17 19 19 18 12 7 9 11 7 9 9 7 6 8 8 17 15 18 20
33 36 36 38 31 7 20 23 18 23 7 18 23 18 20 19 23 24 11 11 10 14 14 15 15 19 20 20 20 11 6 6 9 14 10 6 7 6 9 4 8 19 19 18 24
34 36 35 43 8 28 13 25 22 25 5 7 8 12 13 22 22 26 27 15 12 18 18 14 19 22 21 18 21 7 6 8 11 8 5 4 5 8 9 11 8 11 16 16 22
34 36 35 32 18 9 15 22 28 16 5 9 10 15 9 16 25 18 30 18 17 15 11 18 22 18 15 15 10 8 8 10 11 8 4 7 2 9 6 10 9 11 16 18 24
35 37 42 19 15 23 22 23 16 1 7 8 15 22 18 18 22 22 20 20 18 19 15 22 20 19 15 17 11 7 5 7 6 3 5 9 5 12 10 11 5 7 10 19 22
37 37 40 20 8 14 13 10 2 4 8 10 10 18 22 12 24 23 25 22 15 13 18 18 21 22 19 16 10 5 3 2 5 4 10 8 5 17 5 11 13 18 16 20 23
40 39 26 20 17 10 10 2 5 9 11 14 22 23 18 16 8 18 18 17 20 18 8 17 18 20 23 17 9 7 7 6 8 6 10 5 8 18 14 6 16 15 15 18 23
41 28 15 22 11 6 1 3 4 6 11 18 24 20 22 20 15 9 9 12 19 22 18 14 18 18 23 22 15 8 8 8 3 6 3 6 11 7 16 16 11 13 14 13 21
30 13 12 4 13 9 2 5 8 17 21 19 19 20 18 17 15 15 8 13 13 13 14 18 11 13 16 15 20 12 9 6 2 4 7 7 6 5 5 10 18 14 14 10 16
8 4 6 11 10 1 3 6 15 19 19 17 18 19 17 17 16 16 7 13 14 14 20 12 7 12 17 20 12 5 10 4 6 6 6 4 6 6 4 10 13 14 12 13 13
7 3 10 4 2 3 7 7 10 18 15 17 15 12 8 11 13 15 18 10 14 15 16 6 5 13 19 22 15 12 12 16 6 8 4 5 6 9 6 6 4 19 15 9 14
5 4 13 11 3 6 9 15 19 11 11 12 12 13 13 10 10 11 17 19 11 16 6 6 4 5 2 9 14 9 9 7 6 5 11 5 5 4 9 10 12 10 10 15 14
4 4 2 3 5 8 12 14 16 17 13 12 9 9 11 12 13 9 15 16 10 22 11 7 6 2 4 7 6 7 6 9 5 4 9 7 6 6 7 9 17 19 25 33 9
3 2 6 4 9 15 14 14 13 17 13 11 10 10 9 9 9 10 16 17 14 19 7 5 6 10 10 9 10 12 12 21 15 7 7 9 9 6 5 8 19 23 24 6 25
3 4 7 9 10 13 14 10 16 14 4 8 10 18 15 9 8 13 13 8 8 15 9 2 3 7 7 10 11 12 10 10 9 13 14 7 9 3 5 7 13 21 18 6 16
12 11 4 7 8 9 6 5 17 15 2 4 11 12 15 12 9 15 10 8 10 8 4 3 2 5 5 7 8 6 17 13 13 19 6 5 5 5 13 17 11 8 12 11 9

GFSSW_925_spd_078.txt.gz
Wind_Speed
24 24 23 24 24 25 25 23 23 23 24 25 24 25 26 27 28 16 8 14 7 6 9 4 9 12 10 5 6 3 1 8 6 7 3 8 5 4 5 12 3 6 15 26 32
25 25 25 25 26 26 26 25 23 24 24 25 26 26 27 30 22 11 10 8 11 8 9 8 5 5 3 6 3 4 4 7 7 6 6 12 12 9 4 4 7 14 23 37 37
26 27 27 27 27 28 28 27 26 24 24 25 25 26 27 24 5 5 5 6 11 12 10 9 11 3 4 4 1 2 3 9 18 6 2 4 12 12 10 2 9 27 26 23 30
26 27 28 28 28 29 29 28 27 26 25 24 24 24 24 8 4 2 6 4 10 11 9 5 3 2 3 6 2 8 10 7 9 11 9 7 7 5 10 9 19 26 27 22 22
27 28 27 27 29 31 31 30 29 26 26 24 22 21 10 4 10 18 18 9 11 11 7 3 3 2 4 6 9 3 9 11 13 16 17 5 9 3 9 18 22 23 23 23 20
29 30 31 30 31 31 32 31 30 29 26 25 21 15 2 6 8 12 9 9 9 10 5 8 6 5 6 5 3 5 9 14 11 16 12 6 9 6 1 25 25 24 22 21 21
28 30 31 32 33 35 35 34 32 30 28 23 19 7 2 18 7 8 11 9 10 13 5 15 21 1 5 8 5 5 9 14 14 10 11 4 12 6 19 26 27 23 22 21 21
31 31 33 32 33 35 36 37 34 32 31 22 11 3 7 18 22 26 24 20 15 14 17 15 16 5 4 5 9 7 3 5 11 11 19 5 11 7 23 25 24 23 21 20 19
33 34 35 35 35 37 38 36 32 30 16 4 2 5 9 16 11 20 21 20 23 20 17 19 9 7 3 3 6 6 8 8 17 15 7 5 14 8 21 24 23 22 21 19 16
34 36 38 39 38 39 36 32 16 6 9 5 1 3 8 8 8 23 22 23 10 5 6 3 1 3 2 5 7 7 7 6 10 16 9 9 8 6 18 23 23 22 20 18 18
34 35 37 39 38 39 27 16 8 5 12 7 12 8 17 31 37 14 22 7 8 4 6 6 1 7 13 9 12 7 8 14 19 19 6 7 6 11 9 19 19 20 19 17 19
33 36 39 40 42 21 18 4 3 12 10 9 14 19 29 30 15 26 14 5 8 14 5 1 9 18 12 12 12 12 13 17 16 15 3 9 10 9 6 8 16 20 18 18 16
33 36 38 41 32 7 26 9 28 32 4 12 10 8 8 13 17 23 5 3 9 11 13 12 19 11 10 15 13 14 8 14 14 6 4 2 9 6 7 3 12 20 23 22 24
32 35 37 44 9 32 16 24 25 20 5 7 4 7 2 3 6 17 26 8 5 17 18 11 16 14 16 13 13 13 19 16 9 1 5 5 6 8 8 9 6 16 21 22 23
33 34 37 35 20 11 16 25 28 3 4 6 6 4 3 8 4 9 33 6 12 9 8 15 14 14 14 21 14 15 20 21 11 3 2 6 2 8 5 7 6 11 22 23 24
34 35 41 21 19 17 19 26 7 5 6 5 4 11 20 15 5 8 6 7 7 11 9 10 9 15 16 19 14 11 6 3 5 4 4 5 4 14 5 9 6 10 19 24 22
36 37 38 19 6 12 17 5 5 3 6 5 11 16 19 8 13 8 7 9 6 5 8 6 9 11 12 11 16 4 5 4 3 3 8 6 2 13 8 10 15 13 22 24 23
41 40 32 22 13 7 6 5 2 4 7 12 12 19 3 10 12 15 3 7 6 5 5 9 15 10 20 10 13 7 8 6 7 4 9 3 6 11 14 17 18 16 27 24 22
38 30 17 3 5 4 5 4 6 4 4 8 16 5 6 19 7 9 8 4 6 4 9 11 10 16 16 21 9 13 4 9 5 1 2 4 8 10 8 7 5 13 19 22 20
27 14 14 7 9 6 5 5 5 4 7 9 5 5 14 16 9 7 6 7 10 5 3 4 4 7 18 7 20 8 8 2 2 3 8 5 4 6 7 1 8 7 15 15 15
9 4 5 14 15 5 2 6 7 11 10 5 13 9 11 7 4 6 5 9 10 8 5 1 4 7 7 6 17 4 4 5 3 4 7 3 7 6 8 10 12 17 15 19 19
6 2 7 14 3 0 2 4 6 19 25 15 7 8 4 2 5 6 5 3 14 5 5 2 3 3 10 16 10 2 5 6 8 10 1 5 7 5 4 5 5 9 7 4 8
3 3 7 4 1 3 6 7 9 9 7 7 4 6 3 2 3 3 7 9 12 8 3 4 2 5 10 7 9 6 9 6 4 4 16 10 8 6 4 15 13 14 12 12 11
2 4 4 4 1 3 5 7 10 10 8 4 3 7 8 7 2 4 6 6 11 6 12 6 0 4 4 12 9 4 2 2 6 4 6 8 6 5 5 13 13 11 10 13 10
1 3 1 4 4 6 2 5 8 8 7 6 8 5 3 6 7 8 6 10 15 8 3 1 4 2 8 11 7 2 6 9 8 11 2 6 2 3 1 7 5 15 16 16 13
1 3 4 4 5 6 3 6 16 8 7 8 6 11 6 1 1 11 10 6 6 8 4 3 4 3 3 9 7 11 11 11 15 9 6 6 10 15 4 5 7 4 6 5 5
4 5 3 4 5 4 2 10 14 16 8 9 3 4 8 5 8 14 11 10 10 5 5 1 2 0 5 6 8 7 8 16 13 11 1 6 6 8 16 10 6 8 10 6 14

GFSSW_925_spd_081.txt.gz
Wind_Speed
24 25 25 24 23 24 25 24 23 23 23 24 25 26 26 29 29 16 7 13 6 8 8 13 10 9 9 4 6 4 2 4 4 3 8 0 4 4 6 14 6 8 6 9 30
26 27 28 27 27 28 27 26 26 25 24 24 24 25 26 28 23 12 4 5 11 6 11 12 6 10 3 5 5 5 4 6 6 3 6 5 5 9 5 9 4 9 13 27 29
27 27 28 29 30 31 30 29 28 27 25 25 24 24 24 21 5 6 7 3 11 10 7 4 6 4 5 5 4 5 4 4 10 5 2 6 10 2 11 4 8 20 18 19 23
28 29 28 30 31 32 33 33 31 29 27 25 24 24 22 6 5 1 3 9 7 10 9 4 3 3 3 4 4 4 7 5 6 8 2 4 4 5 13 7 13 25 26 22 20
29 30 31 31 32 33 33 33 32 32 30 26 23 20 9 4 9 14 16 16 9 9 7 6 5 5 4 3 2 4 5 6 6 11 11 3 7 8 13 7 18 19 22 22 20
29 30 33 34 34 35 35 35 33 32 31 28 20 12 2 6 6 9 6 6 9 9 4 7 7 8 4 5 3 4 7 9 7 10 6 7 5 7 4 20 22 22 23 21 21
32 32 34 36 36 37 36 36 36 33 30 27 18 2 3 19 13 13 14 14 11 11 4 12 8 1 1 5 4 3 6 7 8 4 4 5 13 4 12 23 25 23 21 20 19
34 35 37 38 38 39 40 37 34 30 23 17 5 6 7 17 16 26 21 18 21 13 17 17 8 3 3 4 6 3 3 3 5 8 5 8 10 19 18 23 24 23 19 19 19
34 36 39 40 41 43 39 32 21 12 12 7 4 4 9 11 7 10 8 9 16 24 19 11 2 4 5 1 5 6 5 4 10 5 1 3 13 13 16 21 22 21 19 18 16
33 35 37 39 41 44 29 22 9 5 13 3 1 2 8 4 12 21 22 12 7 2 1 6 3 2 3 3 7 5 4 4 4 6 6 11 16 8 14 18 23 20 19 18 18
33 36 38 40 42 32 32 7 7 6 5 5 11 8 24 28 23 11 8 9 4 3 6 5 4 7 14 8 4 3 4 9 9 14 1 14 12 5 13 13 14 17 18 17 18
33 35 38 39 41 13 26 5 7 6 12 12 20 17 28 14 9 25 1 7 6 8 5 3 8 9 5 5 7 5 7 11 11 15 6 11 11 7 12 20 20 21 18 17 12
33 35 39 39 30 12 18 4 18 15 4 9 5 4 7 6 8 21 8 5 5 6 9 16 10 7 5 7 6 5 6 15 9 17 4 5 8 6 2 7 15 16 21 15 21
32 34 38 42 7 27 13 21 24 6 4 8 6 5 3 3 6 10 15 11 6 9 9 12 8 11 8 10 7 9 12 12 11 5 9 4 7 7 7 4 10 21 18 18 19
32 34 36 37 19 8 11 25 22 3 4 3 7 2 8 4 8 5 8 5 14 9 6 8 9 7 11 17 8 14 7 9 11 8 1 5 2 7 2 9 7 12 19 19 21
34 35 39 19 13 15 17 23 3 5 5 7 5 10 13 4 5 6 5 2 5 8 4 7 4 5 12 16 9 7 3 3 4 3 3 8 7 5 4 8 7 10 20 21 20
36 36 36 15 5 10 17 5 5 3 5 7 6 11 8 6 9 6 8 2 6 5 5 3 7 6 7 6 3 4 5 7 5 3 8 7 3 8 7 9 13 11 17 21 22
39 36 25 14 10 4 5 5 2 3 5 5 6 10 4 8 12 10 10 8 4 5 3 6 12 7 6 9 10 7 9 6 5 7 10 5 6 7 9 9 11 16 17 21 21
36 25 9 5 5 4 5 4 6 5 4 8 9 4 5 8 2 8 6 3 5 2 4 5 5 8 5 8 8 5 5 9 4 1 2 5 8 8 6 10 8 9 13 22 22
26 14 10 1 8 4 5 3 3 3 6 2 3 3 4 10 9 8 6 4 8 13 2 3 2 2 5 2 3 7 5 2 1 3 4 5 5 6 8 9 8 4 6 14 16
8 4 11 7 3 5 3 5 5 7 4 3 7 5 7 4 4 4 5 7 7 10 7 5 3 6 1 4 8 3 2 4 3 4 5 2 7 6 8 6 10 8 5 12 17
5 2 5 3 3 1 1 4 5 8 7 8 4 4 4 4 4 2 4 4 9 6 5 3 2 2 9 8 6 7 6 6 5 7 3 4 7 5 6 10 8 7 7 7 7
2 3 4 1 0 3 6 5 4 4 6 5 3 1 2 3 5 3 6 7 7 6 2 4 3 3 9 7 5 3 6 7 5 5 7 4 7 3 11 13 6 7 8 9 10
2 3 4 4 1 3 4 5 5 7 6 5 3 3 3 4 2 5 8 6 16 7 4 6 2 5 5 8 6 5 7 5 5 4 4 4 6 13 16 12 17 18 12 12 14
2 1 2 3 3 3 2 3 6 6 4 4 5 4 1 4 7 5 4 8 13 6 7 3 2 4 7 10 5 1 12 5 5 5 5 3 3 13 10 9 10 13 16 13 6
2 2 4 2 3 4 3 3 3 7 4 6 3 9 2 2 5 6 3 4 6 8 7 3 4 2 3 7 5 3 15 9 7 8 11 8 8 10 6 13 16 12 13 16 13
2 2 3 3 4 2 1 4 5 8 6 4 5 4 5 3 6 13 13 10 9 2 4 2 2 4 5 14 4 3 5 9 4 5 3 3 3 4 13 17 17 17 16 13 7

GFSSW_925_spd_084.txt.gz
Wind_Speed
27 27 27 26 26 27 27 27 26 25 25 25 25 25 26 28 28 17 7 8 6 17 11 21 13 8 10 4 5 4 3 2 4 4 9 4 1 2 2 5 4 6 6 6 28
28 28 29 31 30 29 29 27 27 26 25 26 26 25 25 28 23 10 3 5 8 17 20 19 7 9 3 4 3 4 4 9 6 4 7 6 5 8 3 1 3 4 8 24 28
28 29 30 31 31 32 31 30 29 28 26 25 24 24 23 21 6 4 6 4 13 14 8 10 8 8 5 5 5 5 5 4 5 7 7 5 3 6 9 6 8 8 13 14 22
29 30 32 32 33 33 33 32 31 30 29 25 22 21 19 6 5 1 7 9 5 12 6 5 3 4 4 6 6 3 7 6 5 6 4 5 2 6 9 10 8 13 18 16 17
31 31 33 34 34 35 35 34 33 32 29 25 20 15 7 2 10 13 12 6 8 12 5 3 4 3 5 4 2 5 5 5 9 9 8 4 5 6 11 4 10 18 19 17 16
32 33 34 35 36 37 36 36 34 29 28 25 17 9 2 5 6 6 4 2 5 9 5 7 6 7 5 5 7 6 5 7 7 6 4 6 7 9 5 10 13 19 19 17 17
33 34 37 37 38 40 40 35 28 29 22 18 11 5 3 14 8 7 8 8 9 11 5 10 6 3 2 5 5 5 5 7 5 1 4 4 3 3 4 11 15 17 17 16 16
33 35 37 38 40 42 40 28 26 14 10 9 3 6 7 6 10 15 15 14 13 18 18 8 8 7 5 3 7 5 3 4 6 4 2 6 7 5 6 10 13 15 15 16 17
34 35 37 38 39 42 30 31 13 4 12 8 3 2 9 8 3 3 1 8 11 9 11 4 4 4 2 4 4 4 5 4 7 5 1 3 7 5 7 13 13 15 15 16 15
34 36 37 38 39 41 33 17 7 5 6 3 1 2 5 3 12 19 23 7 4 3 1 5 3 4 3 3 6 4 3 4 5 5 6 3 8 8 5 12 16 14 13 15 15
33 34 37 38 41 30 29 6 6 5 8 5 6 4 15 11 19 6 6 7 3 3 4 4 4 6 11 9 5 3 4 7 4 5 4 4 7 13 7 7 11 14 16 15 17
32 33 37 37 39 14 14 6 5 2 9 6 9 7 18 10 6 6 9 5 4 6 3 2 5 9 10 6 5 4 6 7 6 3 2 12 12 13 6 10 17 18 15 16 10
31 33 37 36 25 11 9 9 10 7 1 8 5 4 8 5 5 7 7 5 6 4 6 10 6 11 5 4 4 5 4 6 9 4 5 6 8 6 5 6 9 12 17 11 16
31 33 37 38 7 23 8 3 21 3 4 7 6 4 5 3 5 9 7 8 2 10 7 6 8 9 6 5 8 7 6 8 6 3 5 2 5 9 5 7 8 14 12 16 16
30 33 35 35 18 7 7 18 12 4 4 10 7 5 11 1 6 5 2 3 9 8 7 9 7 7 10 15 9 10 7 9 6 4 1 3 2 8 4 5 9 12 17 20 20
32 32 37 15 10 11 13 18 2 5 3 7 5 7 10 4 3 7 5 0 3 4 4 7 5 8 9 8 9 4 3 4 4 3 2 7 6 4 5 9 6 6 14 19 18
32 33 29 13 4 9 13 3 5 3 5 7 6 10 4 5 8 5 7 8 2 4 3 4 7 3 4 3 2 4 6 3 3 2 6 3 2 8 9 11 10 11 11 16 17
35 30 12 7 10 8 5 5 4 1 3 5 5 9 4 7 5 7 8 7 3 1 2 4 7 8 4 9 9 7 9 6 5 4 6 2 4 8 11 9 9 10 9 14 17
32 14 4 11 3 2 5 4 4 3 3 7 9 4 5 3 0 7 5 3 3 4 3 2 6 4 6 6 9 5 4 7 2 4 3 4 7 9 10 11 7 10 9 12 17
21 11 6 8 5 5 5 2 2 4 4 1 2 1 3 5 6 5 4 3 9 5 4 5 4 3 2 3 2 6 6 3 3 2 4 7 5 8 12 11 17 18 17 10 6
6 3 13 5 6 5 3 4 4 7 3 5 4 3 6 4 3 4 4 8 5 11 4 3 1 7 1 4 6 1 1 2 5 5 5 8 7 6 7 8 13 18 18 9 3
4 2 5 4 4 1 1 3 4 6 1 4 3 5 3 3 4 3 4 4 11 8 8 3 2 3 6 5 4 5 8 7 6 6 4 5 11 6 8 7 10 13 14 8 7
2 2 4 0 2 3 5 4 3 4 4 4 2 2 2 3 4 1 4 8 9 9 5 6 3 5 9 5 3 2 3 5 4 3 8 6 8 7 10 10 10 12 16 13 13
2 2 4 4 1 3 3 3 5 6 4 3 3 3 4 2 2 5 5 6 14 7 8 4 2 5 4 6 4 8 8 4 4 5 6 7 6 10 11 8 9 11 13 14 14
3 1 3 2 2 2 0 2 4 6 5 5 4 2 4 3 5 3 4 6 10 1 3 3 3 3 6 5 9 5 11 17 5 4 7 6 7 2 4 8 7 11 10 10 12
2 2 3 1 2 2 2 2 2 4 3 4 2 9 4 4 6 6 4 4 8 7 5 2 3 1 4 5 3 3 9 16 9 5 5 10 7 4 5 9 11 12 13 13 13
1 1 3 2 1 1 3 1 3 4 5 6 4 4 6 6 6 14 11 12 10 4 4 3 4 2 5 6 5 6 4 8 6 4 5 2 5 7 11 13 9 9 13 14 12

GFSSW_925_spd_087.txt.gz
Wind_Speed
27 28 29 28 28 28 27 26 26 25 24 24 23 22 22 22 23 12 7 5 7 17 19 19 11 13 14 6 6 2 3 4 2 3 9 8 7 1 2 11 6 10 4 5 24
28 29 30 29 30 30 29 28 28 27 25 24 23 22 21 21 18 8 3 4 7 23 21 20 11 14 5 4 5 5 4 4 3 5 6 12 8 5 7 9 8 8 5 19 27
28 29 30 30 32 32 32 31 31 28 25 23 21 20 19 17 5 2 8 6 7 19 13 12 14 8 4 4 7 6 6 8 7 10 6 8 10 5 7 10 14 17 16 19 24
30 30 30 31 32 33 32 33 33 28 24 23 21 18 16 6 4 3 3 1 13 18 13 7 10 5 4 6 8 7 12 11 5 4 4 6 5 5 12 17 2 10 21 23 21
31 31 32 32 33 34 33 34 31 26 26 24 19 14 5 1 8 8 5 5 21 17 10 9 9 5 7 4 6 13 13 8 11 6 8 9 11 8 11 13 4 16 19 23 21
31 33 33 33 35 35 33 34 27 27 24 21 14 8 3 7 4 4 2 10 7 9 6 9 7 7 6 6 6 5 11 13 11 10 9 9 10 4 5 4 10 17 20 21 23
31 34 34 34 36 36 37 28 30 22 17 16 9 6 4 13 2 2 3 3 7 10 7 9 3 6 1 4 3 5 9 13 14 12 10 8 7 9 2 6 10 15 17 19 21
32 34 35 35 37 37 34 30 27 9 10 10 2 4 6 3 8 10 9 3 6 12 14 7 6 4 5 3 2 4 2 10 6 4 4 4 17 11 2 3 11 14 15 18 20
32 33 34 35 35 37 28 27 13 4 7 6 2 0 5 7 1 2 3 5 9 1 4 3 7 4 5 7 6 4 11 8 8 3 3 4 13 6 7 11 14 14 16 17 16
30 32 33 35 36 32 27 17 5 4 5 3 1 3 4 4 7 13 16 11 3 1 4 6 4 6 4 8 10 9 5 3 5 5 12 17 15 16 14 15 15 13 15 18 20
29 31 34 36 39 20 25 5 5 1 6 3 5 5 9 13 11 5 3 4 2 2 5 7 7 12 17 18 14 6 7 8 9 10 9 9 14 21 16 11 12 11 15 18 21
29 32 35 37 37 13 10 5 5 3 6 2 5 7 10 6 5 3 4 5 5 8 4 5 14 12 14 13 13 12 11 11 9 5 6 16 17 14 8 7 10 10 15 18 17
28 31 36 35 22 10 5 10 7 1 3 5 3 4 6 2 4 5 4 2 6 5 10 15 9 13 13 15 12 13 12 14 9 9 7 9 10 7 16 13 10 12 13 15 20
27 31 35 39 5 17 2 1 18 6 2 7 3 3 5 4 5 6 5 4 3 8 11 10 10 13 14 17 14 17 13 14 10 9 11 2 11 13 9 9 9 12 12 16 19
27 30 35 33 16 5 2 13 7 3 0 10 4 5 13 2 9 3 2 1 7 6 4 6 8 13 17 19 17 15 14 13 14 12 6 8 6 7 7 9 11 12 14 17 19
30 34 37 12 10 6 10 11 4 2 1 4 5 8 11 3 3 7 4 2 1 3 5 13 3 5 14 12 16 5 7 2 1 5 9 10 7 5 5 5 8 10 12 17 16
33 34 22 8 2 11 12 2 1 1 2 7 6 9 6 5 6 7 7 7 9 7 8 8 7 10 13 13 6 10 7 5 6 6 11 6 6 6 11 12 12 14 12 13 16
34 21 6 7 11 8 3 1 1 1 3 2 5 7 3 8 4 8 8 8 3 9 8 5 6 5 12 20 16 13 12 7 9 7 9 6 8 4 8 10 9 9 11 13 14
29 9 3 12 6 6 0 2 2 1 2 7 5 4 5 3 4 7 6 4 5 10 7 5 6 10 10 11 15 6 7 13 11 1 6 5 5 11 7 13 15 15 14 15 16
18 7 7 4 7 3 2 2 1 3 2 1 2 1 4 7 7 7 5 3 9 8 9 2 7 5 5 3 6 10 8 4 4 8 11 9 12 11 17 13 16 19 18 17 14
5 1 5 9 6 2 3 1 3 5 5 4 1 2 2 3 4 4 4 8 11 15 10 6 2 9 7 3 6 4 5 4 2 4 7 12 13 6 9 6 10 13 14 14 11
4 1 8 6 1 2 2 1 3 3 1 2 2 3 2 2 4 3 4 4 13 13 11 4 4 6 15 14 7 6 5 6 7 7 7 8 14 1 4 4 5 8 9 9 6
3 3 5 4 2 2 1 2 2 3 3 3 2 1 1 2 4 4 4 9 12 13 7 7 2 7 11 1 1 4 6 8 7 2 15 12 5 4 3 5 7 8 9 8 8
2 1 2 3 2 2 1 1 3 3 3 4 3 2 3 3 3 5 6 7 16 13 14 3 4 6 7 9 5 12 11 5 3 5 12 18 12 3 6 7 6 9 10 12 12
3 2 2 1 2 1 1 1 2 3 1 3 2 3 4 4 6 5 9 13 15 12 5 5 8 4 10 12 9 14 16 7 6 3 4 16 15 4 2 5 7 8 9 11 13
2 1 1 1 1 2 1 3 2 2 3 1 1 10 7 6 8 14 16 13 10 10 6 5 5 10 15 10 7 12 6 9 5 10 6 4 3 3 2 6 7 6 8 10 10
1 1 2 2 0 2 1 2 3 3 5 8 5 8 11 7 10 19 20 20 17 15 9 5 4 5 12 9 11 9 3 3 1 7 7 11 3 7 7 7 4 5 7 10 12

GFSSW_925_spd_090.txt.gz
Wind_Speed
27 27 27 28 28 28 27 26 25 24 22 21 19 18 19 21 22 7 10 6 5 19 21 17 13 10 12 7 10 7 7 8 4 6 9 12 16 6 3 5 8 6 1 9 26
28 28 28 28 29 29 28 27 28 27 24 21 19 17 16 19 12 13 8 8 9 25 22 20 13 13 8 9 5 10 10 13 7 9 11 12 13 8 4 5 9 9 7 18 27
28 29 29 30 30 30 30 29 31 29 24 22 20 16 12 14 10 4 1 9 12 24 16 13 11 13 11 8 9 10 15 16 12 10 13 14 14 3 6 7 10 13 14 20 23
28 29 30 30 30 30 31 30 32 26 25 24 21 16 10 3 5 5 2 4 18 17 14 14 13 13 9 10 9 14 19 17 19 12 15 14 16 14 11 12 4 11 19 22 23
29 30 31 31 31 31 32 32 29 27 26 23 19 11 2 7 9 2 3 10 23 11 15 12 10 11 13 9 9 14 19 17 16 14 12 15 17 18 18 15 3 8 20 23 21
29 30 31 32 32 33 32 33 27 26 22 18 15 3 6 11 4 3 8 17 11 13 13 14 10 9 13 14 13 15 13 16 15 15 15 16 19 12 16 5 5 12 18 20 22
28 30 32 33 34 35 35 31 27 22 11 13 9 4 7 10 2 5 8 8 6 11 12 13 12 11 3 11 9 12 14 15 16 18 17 14 16 18 18 2 5 9 12 16 20
28 30 33 33 35 34 31 27 27 9 5 10 5 2 5 3 4 7 11 14 8 11 14 14 11 15 11 11 12 13 11 13 8 4 9 7 16 14 5 5 8 9 11 15 20
28 29 32 32 34 36 27 28 12 5 6 5 1 5 0 2 4 1 5 8 5 5 6 5 12 15 12 14 15 14 15 18 9 3 8 8 13 12 5 12 16 11 13 15 19
27 28 33 33 34 29 27 13 4 3 3 4 6 5 2 7 10 11 12 11 8 6 5 10 9 12 14 15 16 18 17 12 11 6 11 16 18 14 15 15 16 13 13 16 20
26 28 32 34 38 19 23 4 3 4 2 5 7 4 5 16 1 1 3 9 11 11 13 13 12 17 21 18 22 21 18 17 13 16 11 18 13 15 16 12 12 10 10 15 18
27 27 34 35 33 16 11 5 6 5 5 1 4 7 7 6 4 4 4 5 10 15 13 10 16 18 17 17 19 20 19 20 19 16 8 14 18 15 16 12 10 9 11 14 17
27 29 34 35 15 11 7 6 6 4 5 2 2 4 6 5 5 3 3 2 8 10 12 18 19 4 12 18 21 20 21 20 20 16 14 17 18 18 9 11 8 9 7 12 17
27 31 35 37 4 11 1 3 12 4 4 4 1 3 6 6 3 0 2 5 5 9 10 11 12 16 18 21 19 23 20 18 20 18 15 6 13 15 13 11 13 9 10 12 16
28 32 35 24 12 4 2 9 7 5 4 4 2 4 10 5 8 6 4 4 8 10 6 14 6 11 16 20 19 23 20 19 16 18 18 20 11 12 10 13 13 12 10 9 14
30 35 29 5 3 5 9 10 3 5 2 1 3 6 6 2 1 6 2 4 2 7 7 12 13 12 18 16 17 17 15 18 14 14 16 18 18 13 13 9 8 8 4 7 9
34 28 9 2 5 9 8 4 5 4 4 3 4 6 3 5 1 7 5 6 8 9 9 13 10 12 12 17 14 14 15 12 14 14 16 18 19 10 10 3 6 7 7 9 10
30 12 4 3 7 7 3 5 5 2 2 1 4 3 2 8 2 7 5 3 8 14 13 9 11 7 9 12 18 16 18 14 18 14 15 9 11 12 9 0 3 4 7 8 9
24 5 2 5 6 5 5 6 3 1 2 5 4 1 2 3 4 5 4 4 7 11 12 10 10 20 8 11 12 16 10 17 19 18 14 15 12 10 9 15 8 8 9 11 12
13 5 1 5 7 6 5 3 1 2 3 3 3 3 4 6 6 6 3 7 8 11 13 7 12 15 10 14 12 13 12 14 12 18 18 14 17 11 10 15 12 13 11 13 13
4 4 3 7 5 5 5 2 2 2 3 3 1 2 2 5 7 7 4 6 12 13 15 13 8 13 16 9 15 10 10 14 17 10 9 14 13 11 8 10 10 12 11 12 13
5 4 5 5 5 2 2 1 1 1 2 2 4 4 4 4 7 6 5 7 14 12 18 10 7 12 17 18 6 3 2 13 10 12 12 14 15 6 4 2 5 7 9 9 11
5 3 1 4 4 3 3 2 2 3 1 2 3 3 1 6 5 4 7 10 11 16 11 12 9 13 15 9 3 1 8 10 11 18 19 14 16 7 3 3 6 9 8 9 7
4 3 3 2 1 5 3 3 4 2 5 3 6 5 6 9 6 7 13 8 13 16 7 6 12 14 13 20 16 12 12 10 2 8 16 18 17 7 6 7 6 6 10 10 9
1 2 3 1 3 3 4 2 5 4 4 4 6 7 6 10 11 14 11 14 14 10 9 8 13 15 19 17 18 18 16 16 11 14 8 17 28 9 5 6 5 4 4 7 10
4 3 3 2 3 6 4 4 6 4 5 5 9 4 8 9 12 14 16 17 19 16 13 14 12 15 18 20 21 18 16 15 14 10 12 13 19 4 7 2 6 9 9 9 8
0 1 4 4 4 5 4 4 3 2 6 9 7 9 11 10 11 17 19 20 20 19 17 14 10 11 15 16 16 14 10 4 6 7 8 10 16 1 4 5 8 9 9 9 10

GFSSW_925_spd_093.txt.gz
Wind_Speed
26 27 28 27 26 26 27 27 25 26 23 20 18 18 19 20 22 8 11 4 8 11 16 17 16 15 14 15 14 15 12 16 11 1 10 11 12 8 2 1 1 3 6 21 26
27 27 28 29 29 28 28 28 26 27 23 22 19 17 17 19 17 22 12 10 9 17 20 19 16 15 13 13 13 11 13 22 17 9 11 12 8 5 4 3 6 5 8 25 27
27 27 28 29 29 29 29 28 28 28 24 23 20 16 13 14 15 2 6 4 9 18 16 15 13 12 17 16 14 16 16 19 19 20 17 15 14 14 14 8 4 11 13 18 23
26 27 29 29 29 30 30 29 30 27 25 23 19 14 9 6 6 7 4 2 10 19 13 15 12 15 16 16 16 18 19 20 20 21 15 16 18 14 15 16 9 1 21 21 22
27 28 30 31 30 30 32 32 30 25 24 20 14 9 4 9 11 6 2 6 17 15 16 14 14 13 17 14 15 15 16 20 18 18 16 18 15 18 17 16 9 3 21 20 20
27 28 30 32 33 32 32 34 26 24 21 12 11 5 9 14 2 2 5 14 15 18 19 17 14 14 16 18 18 18 19 20 21 21 19 19 19 20 16 17 0 1 14 17 20
27 29 31 34 35 34 37 32 26 22 11 7 8 6 11 11 0 4 10 14 15 15 14 16 17 18 15 17 15 14 19 20 20 20 20 15 17 16 21 20 14 11 11 15 19
27 29 32 35 35 34 34 26 26 12 5 6 5 7 6 2 3 8 12 14 13 15 17 17 16 15 19 20 20 21 22 19 17 16 8 9 16 15 16 11 11 12 12 14 19
28 29 31 34 33 36 27 26 11 5 5 4 5 9 3 2 8 5 8 15 18 15 14 14 14 18 18 19 18 20 21 23 20 17 4 15 18 12 10 12 11 15 15 14 16
30 28 31 33 33 26 26 10 5 3 4 7 10 8 4 4 8 10 12 10 7 13 10 12 15 16 17 15 18 21 19 21 21 10 13 15 17 19 12 13 18 17 17 16 17
29 29 32 33 34 18 24 7 4 6 14 7 5 4 4 6 3 3 4 13 14 13 15 17 12 17 22 20 23 24 23 26 25 23 14 19 23 18 14 15 19 16 17 15 17
26 29 31 31 23 15 14 5 7 6 6 4 2 6 4 3 7 6 3 7 13 14 16 16 18 16 17 21 23 22 25 25 24 22 22 24 19 22 18 17 19 17 13 14 17
26 30 33 31 9 8 7 8 7 7 7 10 2 5 1 5 4 2 6 3 10 13 13 15 16 15 9 14 19 20 23 24 26 23 24 24 21 19 23 25 14 20 13 15 17
28 31 34 30 5 11 1 7 9 4 5 9 8 4 5 4 5 0 3 7 9 11 11 12 13 11 15 20 17 21 21 22 23 21 16 20 19 21 12 14 14 19 16 15 15
29 32 30 13 10 5 6 9 9 4 5 4 5 3 7 7 7 8 1 8 12 12 9 14 14 14 14 17 16 20 20 21 23 21 21 21 14 18 13 18 13 13 20 15 18
29 30 18 4 4 8 10 11 7 7 2 6 2 2 7 10 4 7 7 10 5 10 13 12 11 14 13 14 18 16 18 18 21 18 19 19 20 19 17 16 15 15 11 9 9
29 22 7 5 7 11 10 8 7 6 3 3 1 5 5 3 5 4 5 6 5 10 12 14 8 6 6 12 14 16 15 13 15 15 16 20 21 19 16 14 5 5 7 8 2
28 11 7 7 8 10 10 8 6 7 1 2 5 8 4 5 4 6 7 10 7 8 13 10 12 14 16 15 14 14 17 13 21 17 16 15 16 16 20 7 9 0 5 5 6
23 4 7 1 6 7 8 7 5 3 4 6 9 8 2 4 5 5 3 6 5 8 8 13 12 18 20 10 15 16 13 18 23 22 18 18 6 15 5 7 7 12 4 3 11
17 10 6 3 5 9 7 10 3 4 7 7 10 1 5 4 7 3 3 7 5 11 10 16 18 17 17 17 15 17 16 15 10 18 19 12 19 11 12 18 16 15 4 9 11
7 5 5 3 7 7 9 7 1 2 6 6 3 6 4 5 6 7 3 6 7 10 14 16 13 15 18 18 17 10 13 1 22 9 11 14 10 14 16 21 17 20 12 9 11
7 5 4 3 7 4 7 1 4 8 7 8 6 9 7 6 8 8 5 4 12 11 15 13 14 15 22 21 16 14 12 19 10 7 8 14 12 25 30 12 6 4 7 11 10
5 8 3 7 6 6 5 9 5 7 7 4 5 4 6 8 5 7 7 6 9 11 11 11 9 14 14 16 12 13 8 11 22 12 20 7 10 13 27 35 10 9 8 7 5
5 4 5 5 5 8 7 10 7 6 10 8 9 8 10 10 10 8 10 11 7 12 5 8 14 14 14 22 22 12 15 22 14 13 9 17 12 16 11 27 5 3 2 8 10
4 2 5 5 2 6 4 10 10 7 9 5 9 12 12 9 12 13 13 11 12 5 11 13 14 16 18 22 23 23 21 20 19 9 8 14 8 10 13 15 18 6 4 9 12
5 4 1 10 7 11 7 11 11 12 5 13 10 13 5 11 12 14 14 13 16 17 15 14 17 18 17 22 22 23 22 24 17 19 12 14 16 14 7 7 4 5 2 7 15
2 8 6 5 9 8 10 7 7 6 9 12 14 11 11 10 13 15 16 18 20 18 16 14 12 13 18 18 19 17 14 14 9 11 14 10 12 15 12 2 7 8 10 11 12

GFSSW_925_spd_096.txt.gz
Wind_Speed
25 25 26 27 27 26 26 26 24 25 24 23 20 20 21 22 23 10 12 8 8 12 8 8 15 18 15 17 17 18 14 15 6 15 18 12 8 10 3 10 5 7 11 24 28
26 26 27 27 27 27 27 27 26 26 24 22 20 19 19 20 19 22 23 21 14 12 12 17 15 14 13 18 14 15 15 22 20 22 17 20 14 14 11 6 11 15 21 29 28
26 27 28 27 27 27 28 28 28 27 23 21 19 17 16 13 11 7 9 9 10 11 15 19 13 12 15 16 17 19 17 21 24 23 21 19 19 16 14 14 6 21 21 24 23
26 28 28 28 28 28 29 27 30 25 21 20 17 13 12 4 5 7 8 4 5 12 14 16 15 14 15 17 18 19 20 19 20 21 21 20 18 19 14 16 15 20 25 23 23
27 28 29 29 30 29 31 31 28 21 20 18 12 11 5 8 17 9 7 6 8 13 15 14 15 15 16 15 19 19 19 19 17 20 20 21 18 18 16 15 18 16 23 21 20
27 28 30 31 32 32 31 36 23 21 20 11 8 9 5 14 1 6 6 8 11 15 16 16 14 16 18 19 18 21 22 22 21 22 22 22 20 20 17 18 16 14 22 20 20
29 29 30 32 34 33 38 28 25 22 12 5 7 4 11 16 3 3 8 9 14 17 17 17 17 16 18 21 20 21 23 19 21 23 24 22 18 15 15 11 17 15 16 19 19
31 31 31 34 35 33 34 26 24 12 4 5 6 5 7 5 6 6 10 13 13 16 15 15 18 17 16 18 21 22 25 21 22 24 22 13 15 12 12 15 14 17 16 16 21
30 31 33 34 32 35 27 24 12 5 4 6 4 9 10 1 8 10 12 13 15 16 19 18 15 17 17 18 18 18 19 23 23 21 17 12 11 14 18 11 11 13 8 11 17
30 32 33 34 32 25 25 16 8 5 5 7 13 8 11 3 6 7 10 10 11 7 12 13 11 14 16 14 16 19 19 22 22 22 24 21 14 12 11 18 12 12 13 15 14
31 33 34 33 31 18 28 9 3 5 14 13 6 10 0 4 5 9 1 9 10 9 13 14 14 15 19 19 22 23 23 24 23 23 22 24 22 17 15 16 20 15 17 15 13
31 32 35 33 21 14 14 7 8 7 10 8 6 8 6 4 7 9 4 6 10 11 14 14 16 19 21 18 19 20 23 24 24 22 22 22 24 21 21 16 20 17 16 16 18
31 33 36 31 13 10 6 8 9 10 7 10 10 8 3 6 7 4 4 9 8 13 15 17 17 17 16 16 19 20 20 20 24 22 22 22 24 20 23 16 20 23 19 19 14
31 33 34 28 8 12 2 9 11 7 5 9 8 4 7 9 9 2 4 5 9 12 14 12 15 13 14 16 17 20 20 21 21 20 19 20 17 16 18 19 20 9 12 18 15
31 32 29 12 14 7 11 12 12 6 4 3 7 5 4 6 9 7 3 8 11 13 11 15 15 14 15 16 17 19 21 21 21 21 23 22 14 15 15 16 14 13 17 19 13
31 31 25 3 8 8 13 13 9 5 2 6 1 2 9 13 9 4 10 11 12 9 16 16 14 16 16 8 12 17 19 19 19 17 16 21 19 17 16 15 18 16 14 4 15
32 29 18 11 6 14 13 8 6 6 3 3 3 5 9 9 8 3 8 10 10 6 12 16 14 7 4 10 14 17 18 12 15 13 15 18 17 14 16 17 9 5 15 10 4
35 22 11 12 11 12 11 8 6 1 1 6 8 9 11 9 9 3 10 12 6 2 10 9 12 16 17 16 20 14 16 11 18 16 18 21 12 11 16 16 6 4 10 10 1
34 13 8 9 7 7 7 7 5 10 6 9 12 10 6 7 4 6 9 8 8 8 8 11 15 21 18 17 19 16 14 18 17 19 18 16 20 8 25 11 17 14 17 5 5
22 14 16 4 5 9 7 11 11 6 7 9 12 1 12 5 5 3 4 6 4 8 10 14 19 18 16 18 15 18 13 14 8 10 11 14 19 7 22 23 22 27 23 15 25
8 6 7 4 6 7 9 12 4 3 6 7 11 8 10 7 6 10 6 8 10 9 11 16 12 16 18 16 19 12 10 7 6 3 7 5 9 10 14 14 21 20 23 23 15
8 6 7 4 7 7 10 7 4 9 5 5 6 9 11 11 8 11 12 5 12 11 12 11 9 13 20 20 15 9 5 3 5 9 12 8 13 12 15 15 11 16 19 25 27
5 10 10 4 7 8 6 4 6 9 9 7 7 5 8 8 7 9 10 12 7 9 9 8 9 14 13 17 7 17 15 5 8 10 13 4 7 21 13 11 12 12 5 24 9
5 5 6 6 9 11 13 12 11 7 6 12 11 12 11 11 12 11 12 10 10 3 3 4 11 15 14 18 19 19 22 20 14 5 13 13 16 7 17 7 4 10 12 10 1
4 5 6 7 9 12 12 13 14 15 10 5 7 11 13 12 12 11 14 14 13 1 9 9 14 16 20 23 23 23 25 23 20 20 19 17 3 4 11 11 5 6 6 11 7
5 6 11 11 15 13 11 14 15 16 13 13 11 15 12 11 8 14 14 12 12 15 15 14 15 18 21 21 23 24 24 24 23 18 23 10 12 7 7 13 4 8 2 9 6
15 11 7 9 13 12 11 14 13 8 7 13 12 14 14 11 11 12 15 17 18 18 16 16 13 14 19 20 21 18 17 17 25 10 21 13 14 13 11 9 9 8 10 5 5

GFSSW_925_spd_099.txt.gz
Wind_Speed
23 24 25 24 24 24 25 24 24 23 21 21 20 20 21 22 21 11 7 12 8 12 9 7 7 14 18 10 11 14 6 8 9 11 8 27 11 19 7 12 8 10 14 26 36
24 24 25 26 25 25 26 25 23 24 22 19 19 18 19 20 17 12 31 16 18 10 10 10 9 11 5 8 6 4 4 10 13 12 10 16 20 19 9 9 13 14 22 36 36
25 25 26 26 26 26 26 26 24 25 20 17 18 17 15 14 5 7 3 17 23 17 14 14 21 12 9 8 9 9 10 15 11 9 16 10 12 10 9 7 19 26 26 25 26
27 26 27 27 27 27 27 25 30 21 17 17 17 13 11 2 3 0 6 7 8 9 8 12 12 9 8 9 13 10 14 11 9 7 7 8 8 9 10 5 9 25 28 26 25
29 28 27 28 29 29 29 31 26 18 18 16 13 9 3 4 9 8 8 6 6 8 12 10 12 8 9 8 12 11 12 17 16 15 13 15 11 14 11 10 6 27 26 25 21
31 31 30 32 31 31 30 33 22 21 18 12 7 6 1 5 8 10 7 7 6 10 11 13 9 10 10 11 9 10 13 17 16 16 12 15 16 6 14 11 8 26 25 23 22
32 32 33 33 33 32 35 28 23 23 11 6 4 2 5 11 4 7 11 6 7 15 9 18 20 8 9 10 10 13 15 16 17 18 21 20 19 14 10 6 9 24 24 24 23
33 33 34 35 36 35 30 23 25 10 4 3 2 2 6 10 6 11 8 11 11 14 23 21 14 7 6 9 11 13 9 8 19 19 23 11 16 13 6 4 8 9 23 23 24
34 34 36 37 34 32 26 30 9 3 2 2 2 4 8 6 5 13 13 12 11 16 16 12 11 6 8 7 7 7 11 15 20 17 14 7 8 8 6 6 9 8 16 21 22
34 36 38 39 32 25 27 17 3 2 1 2 8 4 8 4 3 5 7 11 4 5 9 8 5 4 5 3 8 9 9 12 16 17 17 16 12 9 8 7 5 6 8 15 20
35 36 39 38 28 19 27 6 5 2 4 7 9 6 11 3 5 8 8 7 5 5 4 8 4 8 15 15 18 17 14 11 15 15 10 12 11 12 10 6 7 9 7 10 11
35 36 40 35 21 15 11 6 5 7 9 16 18 12 11 3 5 10 5 5 7 8 9 6 9 17 17 19 18 13 12 13 11 9 9 11 12 14 9 8 9 9 9 10 8
36 36 40 35 14 10 17 10 10 13 4 9 9 8 5 6 7 5 9 4 6 7 10 9 11 11 10 9 7 6 8 8 12 9 8 9 8 9 13 16 15 10 11 8 12
36 35 37 36 6 21 8 15 14 12 3 4 5 4 4 5 6 3 3 2 4 7 10 7 8 11 10 9 8 6 8 13 16 13 3 8 16 7 10 12 10 14 17 13 15
37 36 34 17 15 9 15 17 14 6 4 7 6 6 3 4 5 6 9 3 9 9 5 8 11 10 9 11 8 6 9 10 12 10 6 10 4 11 9 12 12 11 9 7 9
36 37 35 7 14 14 19 20 12 1 3 3 5 6 7 10 9 7 7 7 5 6 10 9 9 10 8 7 4 7 8 9 8 5 2 11 6 9 7 11 16 14 17 10 10
39 36 31 12 5 13 20 9 2 3 2 5 4 4 9 9 2 5 0 4 6 4 6 10 8 17 16 11 11 11 8 5 5 5 5 13 5 4 18 16 19 18 19 25 21
43 34 14 15 9 11 17 3 3 9 12 5 9 11 8 1 3 1 3 9 6 7 6 4 8 17 17 12 6 7 5 2 6 4 7 9 9 3 8 13 18 20 22 15 23
39 24 11 12 2 4 2 2 3 7 10 10 11 8 9 6 3 3 7 5 5 7 4 4 6 16 20 14 6 7 6 9 6 6 6 2 5 5 18 20 17 15 18 19 11
28 10 10 9 7 7 1 5 4 5 8 8 5 6 6 8 4 8 6 4 5 10 8 6 8 8 16 14 12 5 2 6 5 5 4 5 5 3 11 13 12 13 7 10 9
9 4 6 4 6 1 3 6 15 7 7 6 8 7 12 9 8 6 6 7 9 8 7 5 5 8 9 6 15 12 4 4 2 2 3 3 3 6 2 3 6 9 7 5 11
8 4 8 4 1 3 5 6 4 4 9 3 4 6 6 9 7 7 9 5 5 4 4 3 2 5 15 22 19 5 2 3 3 7 3 4 5 8 4 3 5 6 9 5 4
5 4 12 7 3 4 8 13 7 4 6 4 7 7 10 6 5 6 8 13 7 3 5 1 2 6 9 9 18 12 11 9 2 1 6 4 6 4 7 8 6 8 9 6 8
4 4 2 1 4 6 7 7 10 14 4 2 6 8 7 8 9 6 12 8 12 6 8 5 1 2 5 9 10 16 20 17 9 9 11 8 16 8 10 11 5 2 7 2 9
3 3 5 4 8 12 9 10 12 14 13 6 1 6 8 6 8 9 7 9 13 5 6 5 2 6 9 14 18 18 18 20 13 11 6 7 7 6 9 9 6 6 4 6 6
3 6 6 8 9 10 10 7 12 14 10 10 5 11 6 6 6 7 8 7 3 9 9 7 6 8 12 16 17 19 19 12 13 12 8 9 5 5 5 8 11 13 10 3 1
8 11 4 6 8 9 10 13 15 12 5 7 8 8 7 8 8 8 8 5 8 8 9 8 6 6 14 9 13 12 7 8 6 7 2 10 4 7 7 8 4 5 6 9 1

GFSSW_925_spd_102.txt.gz
Wind_Speed
24 22 22 22 22 22 22 23 23 21 22 20 19 19 19 20 20 14 7 14 7 5 7 2 4 6 6 4 5 3 1 4 7 9 11 17 17 14 5 5 4 8 10 18 36
27 24 23 23 23 22 23 23 21 25 21 17 17 18 18 18 16 13 23 21 14 9 7 6 4 5 2 5 3 5 3 8 7 11 9 19 18 19 1 6 1 8 12 34 32
28 27 25 25 25 24 23 24 23 24 17 16 16 16 14 12 4 7 9 5 15 12 10 5 9 1 5 2 5 4 6 12 14 15 17 16 11 8 1 5 7 20 27 25 25
30 28 28 28 27 26 27 24 27 18 16 16 15 12 9 3 3 2 3 6 9 11 8 3 2 3 3 4 6 3 9 8 8 5 3 6 6 10 4 7 14 26 29 27 24
31 30 29 30 30 31 28 30 21 16 18 16 11 6 2 1 9 11 6 4 7 8 6 4 1 2 4 4 8 3 6 8 10 10 11 11 13 8 15 16 17 22 27 27 24
32 32 33 34 34 33 32 27 18 21 19 11 4 2 1 3 4 7 11 7 5 6 4 5 6 3 5 4 3 5 8 10 11 14 11 8 14 4 23 15 18 26 26 25 27
35 34 36 37 37 34 32 23 26 18 8 2 2 2 0 11 1 10 11 5 6 11 4 11 9 2 4 8 6 7 8 12 16 8 9 6 13 10 19 16 20 25 24 23 22
36 36 38 39 37 33 27 28 19 4 3 3 1 3 6 8 5 15 14 12 8 9 16 16 15 4 3 3 8 7 4 5 10 12 10 5 11 20 15 3 15 22 22 22 24
38 38 39 40 36 28 26 25 3 5 4 3 2 2 8 11 3 11 13 14 10 15 17 17 6 3 6 3 6 4 5 6 11 11 8 5 9 12 10 7 4 18 22 22 22
39 40 40 41 35 24 27 7 3 4 4 1 3 3 6 2 4 3 9 16 6 3 3 5 4 2 4 5 5 6 4 6 9 15 7 12 8 7 8 7 9 8 21 23 24
39 40 40 39 28 20 25 3 5 4 1 5 3 4 12 10 4 4 3 3 1 3 1 3 2 8 13 11 14 6 7 14 17 16 3 12 10 12 9 5 8 10 14 22 24
39 40 40 38 17 14 16 5 2 6 8 9 16 10 22 15 3 4 4 4 3 5 1 4 6 15 9 11 10 12 11 12 8 6 4 8 8 8 7 7 8 8 11 15 23
39 39 39 38 11 13 6 14 15 14 2 8 6 5 6 8 5 5 9 5 5 4 5 6 12 7 9 13 12 8 6 5 6 4 6 2 9 8 14 12 9 15 10 11 12
39 40 40 37 4 18 5 18 19 15 4 6 2 6 4 4 4 5 14 4 2 3 5 5 5 5 10 7 2 5 5 5 8 7 7 4 6 8 11 11 15 23 20 20 22
39 41 41 21 13 7 13 21 23 2 3 3 3 3 1 6 2 4 6 3 6 6 2 8 7 13 12 6 7 7 5 5 3 3 4 8 4 6 11 12 20 15 19 19 22
40 41 40 9 12 7 18 24 5 4 1 2 3 2 2 3 4 1 2 3 1 2 2 6 4 4 3 6 4 5 5 7 6 4 4 8 4 4 5 6 9 9 12 18 20
42 39 26 11 5 13 18 5 4 4 7 6 2 4 3 4 3 6 5 3 3 2 5 7 1 5 12 9 10 12 8 6 5 5 6 6 3 5 7 6 4 6 5 11 12
41 36 20 13 9 12 9 5 5 4 4 2 6 7 1 2 3 3 2 4 5 3 3 3 7 8 8 3 4 7 4 4 5 3 7 6 2 5 7 6 3 6 5 7 8
38 29 9 2 3 2 5 4 4 3 3 5 8 5 6 9 5 7 5 5 5 3 5 3 4 6 7 8 2 9 6 4 2 2 3 3 6 4 3 5 9 12 12 11 5
29 16 11 4 7 3 5 3 4 3 2 5 5 4 6 7 8 6 4 3 4 4 3 2 3 3 6 7 3 6 5 5 4 3 4 5 5 4 8 7 8 11 10 7 7
10 4 5 8 9 5 2 5 5 6 3 3 0 3 4 1 3 6 4 5 3 2 7 2 3 6 5 3 7 8 6 3 2 4 4 3 6 7 2 5 5 8 8 5 5
6 3 3 10 3 1 1 4 7 9 4 2 1 2 4 5 4 3 3 2 5 2 4 4 5 2 7 9 3 6 3 4 3 8 4 3 6 7 6 1 3 4 4 2 3
3 4 9 5 1 3 7 6 4 10 7 3 2 3 2 4 4 5 6 8 8 3 4 1 2 4 9 7 5 1 6 4 3 2 5 2 6 3 3 5 7 6 7 6 4
3 4 4 4 2 3 6 5 8 6 5 7 5 2 4 5 1 4 5 4 7 5 8 6 2 5 5 7 4 8 17 19 9 1 5 5 5 6 8 8 7 9 7 4 3
1 4 3 4 5 6 2 3 5 7 2 3 6 4 4 3 6 6 6 7 6 5 5 4 3 3 5 7 7 12 17 7 3 4 3 6 5 5 5 5 5 5 6 6 6
1 2 5 3 4 6 4 3 4 7 4 14 1 5 6 5 1 3 3 2 6 6 2 2 3 2 5 8 12 15 4 2 2 2 5 4 5 1 3 4 6 5 6 6 8
4 6 3 4 4 3 2 6 13 8 8 3 4 4 6 4 4 5 4 6 8 5 4 1 2 1 5 8 9 6 2 3 3 3 4 2 6 5 5 4 3 7 7 9 7

GFSSW_925_spd_105.txt.gz
Wind_Speed
25 24 23 22 22 22 21 21 22 19 24 20 17 16 17 18 16 11 6 10 3 5 9 11 7 6 7 3 4 3 3 3 3 2 6 19 13 6 5 6 4 11 3 7 26
26 25 24 24 25 24 24 23 20 24 20 16 15 15 15 15 13 11 16 13 13 9 12 9 3 6 1 3 3 4 3 5 5 5 7 15 16 20 2 2 4 4 8 26 32
28 26 26 26 26 27 27 23 24 19 15 14 14 13 11 10 4 6 7 6 17 13 6 6 4 4 1 2 3 5 5 4 7 11 9 10 10 7 4 3 6 12 19 22 25
29 29 28 29 30 31 28 25 22 16 12 15 13 10 6 2 1 1 5 7 16 12 6 5 4 5 2 3 3 2 7 5 6 2 4 5 4 9 7 8 11 16 27 27 25
32 31 32 33 34 33 31 25 19 14 18 15 10 4 1 1 8 4 4 6 11 10 7 5 4 4 2 3 5 4 4 3 6 10 7 7 8 8 11 5 8 18 22 26 25
35 35 36 36 37 35 28 21 22 22 13 6 3 2 2 2 2 4 6 6 6 9 7 6 5 5 2 3 1 4 7 9 8 14 8 4 9 4 14 3 12 21 26 23 23
37 38 39 38 37 34 25 25 24 8 2 3 4 4 1 9 1 2 9 4 5 8 4 7 5 2 1 5 0 2 7 9 14 4 4 1 8 6 13 9 10 21 21 20 21
38 40 39 39 37 28 26 26 5 4 5 6 4 3 6 3 8 7 13 9 8 7 8 7 3 1 3 3 7 4 3 5 6 2 5 4 9 12 10 9 4 16 17 19 22
40 42 41 41 36 24 27 9 7 7 6 6 3 2 7 7 4 7 19 8 8 8 8 5 2 2 5 3 6 7 2 5 9 4 3 1 11 13 12 6 3 11 15 17 16
41 42 42 40 30 22 24 6 4 4 5 2 1 2 5 4 7 3 11 17 4 2 3 3 4 1 3 4 4 3 2 5 7 9 11 13 8 9 8 8 2 8 12 16 17
41 42 42 39 23 19 23 1 5 4 2 4 1 3 6 9 10 4 5 8 3 5 1 3 4 7 11 8 7 4 4 7 14 17 2 7 10 7 10 18 18 18 6 14 18
41 42 42 39 17 11 20 6 5 7 8 6 8 7 15 5 4 4 6 4 2 4 3 5 5 12 4 5 7 8 7 13 10 12 6 8 7 6 15 7 10 11 12 12 12
40 43 43 39 8 9 7 7 19 7 1 8 5 5 4 10 5 6 8 4 4 3 4 6 10 6 4 7 4 4 5 5 9 3 2 2 9 6 4 10 9 11 7 9 12
40 43 44 38 3 13 6 15 19 5 4 5 4 6 4 5 3 6 11 6 3 6 5 5 4 4 3 1 3 1 4 6 4 5 2 3 4 6 8 9 15 13 13 12 16
41 42 43 22 10 4 6 18 15 4 3 2 2 1 2 4 3 3 4 3 4 3 5 6 5 6 8 6 5 4 5 5 2 2 3 5 4 5 6 9 13 14 13 13 13
41 40 40 13 12 5 14 19 2 4 1 3 1 3 2 2 3 3 2 4 2 1 1 5 2 4 2 4 1 5 3 5 5 3 4 5 4 4 2 3 7 8 9 12 14
39 39 30 13 3 10 16 3 5 3 4 6 3 4 2 4 4 5 3 2 2 2 5 6 3 4 4 6 4 9 7 5 5 5 4 2 2 6 3 1 4 8 7 5 7
39 36 24 9 9 12 6 5 3 2 3 3 3 4 4 6 4 6 3 3 5 4 3 2 5 5 6 1 3 3 4 4 3 2 5 5 2 5 6 5 4 7 6 2 5
37 27 11 3 4 3 5 4 3 2 3 5 4 6 6 5 4 6 4 2 2 2 4 3 4 4 3 4 3 6 2 3 3 2 2 3 5 3 3 3 2 8 6 6 5
29 14 9 7 1 5 5 3 3 3 6 3 3 2 5 6 6 6 4 3 1 2 4 5 1 1 5 5 4 1 3 4 4 3 3 5 5 5 4 6 5 7 9 7 9
9 4 8 7 1 5 2 4 5 7 4 3 4 1 2 3 2 3 4 2 2 2 2 4 3 5 3 3 2 5 4 4 3 4 3 3 5 3 3 4 5 7 7 8 8
6 3 2 9 3 1 0 2 6 7 5 3 3 2 2 1 2 3 1 3 8 2 1 2 5 1 4 5 5 5 2 4 4 6 4 2 6 2 3 6 5 7 8 8 7
2 3 4 1 2 3 6 5 2 6 5 5 3 1 2 0 2 2 4 6 7 5 2 2 2 3 8 6 5 1 3 3 2 3 5 3 6 2 5 6 6 6 6 6 8
2 3 4 4 1 2 4 4 6 6 2 5 4 2 2 3 6 4 7 4 7 4 9 7 3 6 6 6 2 6 6 6 3 3 3 6 6 5 6 7 7 7 6 6 7
1 3 2 3 4 3 2 3 5 8 6 5 5 4 1 4 3 3 3 6 5 5 4 4 4 6 6 6 5 7 9 8 5 6 5 5 6 7 6 7 7 5 5 8 7
0 2 4 3 3 5 4 5 5 5 3 7 1 1 3 5 5 2 0 1 5 3 3 2 3 3 4 8 7 5 11 8 7 5 7 6 8 6 5 6 6 4 5 6 10
2 2 3 3 3 2 2 3 3 6 5 2 3 2 1 6 7 8 8 5 7 7 3 5 5 2 5 3 6 6 6 5 3 4 4 5 6 4 8 7 6 5 6 6 9

GFSSW_925_spd_108.txt.gz
Wind_Speed
25 25 24 23 23 23 23 23 19 18 20 18 14 13 14 15 14 9 6 7 2 12 11 17 7 4 4 1 3 2 3 0 3 4 7 7 4 3 2 3 3 6 6 5 30
26 26 25 25 25 25 24 21 19 19 16 14 13 12 13 13 10 9 10 7 7 16 17 13 6 7 1 2 1 3 3 4 4 3 7 11 6 6 2 2 4 3 4 23 32
29 29 29 28 28 28 26 23 18 16 13 11 12 11 10 9 3 5 5 6 16 18 9 5 12 6 2 2 3 3 4 4 5 7 4 6 10 2 2 3 8 10 11 18 24
32 33 33 32 33 29 28 21 16 13 11 13 12 8 5 2 3 2 8 5 19 16 9 6 4 5 3 3 3 1 7 5 6 3 3 5 4 7 6 11 9 14 19 20 21
33 34 35 35 33 32 25 19 18 18 18 15 6 2 1 1 7 2 2 13 17 17 8 5 4 4 2 3 2 4 3 4 8 9 7 4 10 5 12 12 11 5 19 22 21
36 37 38 37 36 30 23 23 22 15 6 2 4 5 2 0 1 3 7 12 8 10 7 6 6 5 1 2 2 4 4 7 7 10 4 3 8 3 5 1 6 11 16 18 21
38 40 40 39 39 26 25 25 11 4 3 5 7 5 3 6 1 1 9 3 7 6 4 5 3 3 2 4 3 5 7 8 6 2 3 3 8 5 8 10 7 9 11 14 17
39 40 41 40 34 25 26 12 8 7 7 7 5 2 5 2 5 5 10 4 5 5 2 2 5 2 2 2 7 5 5 5 4 3 2 3 7 12 16 10 11 5 9 13 16
40 42 42 42 29 24 22 6 7 7 6 6 2 1 4 4 4 4 11 4 3 3 3 1 3 3 5 3 5 6 1 2 8 2 5 5 7 9 14 11 12 5 7 9 11
41 42 42 42 26 21 16 4 5 4 3 1 2 1 2 1 3 4 7 10 2 2 4 5 5 3 4 5 3 4 3 5 5 1 7 5 5 8 10 13 11 11 8 6 10
41 43 42 43 20 17 18 3 5 4 3 2 4 3 5 9 6 3 4 7 3 6 2 3 4 5 8 6 3 3 2 5 6 5 2 3 5 6 6 9 14 12 11 9 11
41 42 42 44 14 11 17 6 3 6 7 4 6 6 10 2 3 1 10 4 3 3 2 5 3 6 5 5 6 4 2 6 7 2 2 7 3 1 6 5 4 9 12 11 10
41 41 42 42 11 10 6 5 13 4 1 7 5 4 2 8 4 5 7 3 3 4 3 5 4 3 3 1 1 2 4 4 6 6 3 3 3 1 3 3 4 6 7 9 10
40 41 42 41 4 13 3 11 17 6 4 5 3 2 3 3 3 5 8 5 1 3 8 4 4 2 5 1 3 2 5 5 4 3 3 3 4 3 3 5 4 6 9 12 16
39 39 41 27 11 4 7 16 8 2 4 2 1 1 1 4 3 2 4 3 5 4 5 5 2 2 4 3 1 4 3 2 1 3 3 5 4 6 6 8 10 8 9 10 11
38 37 39 16 10 4 13 14 1 5 0 3 4 5 3 1 3 2 2 5 2 4 3 4 2 3 2 2 2 5 3 7 4 3 3 4 4 5 2 3 6 6 9 9 12
37 37 28 14 3 9 15 2 4 3 3 5 3 5 2 4 5 2 2 5 1 4 5 5 3 5 4 5 5 8 6 4 5 5 4 2 1 7 4 4 2 7 9 10 9
37 33 21 8 10 10 5 5 2 1 2 2 4 2 4 6 4 7 3 3 6 5 3 3 4 4 6 1 3 3 4 4 3 3 4 3 4 4 5 5 3 6 6 8 10
34 26 7 12 6 6 5 4 5 2 5 6 2 6 6 5 3 4 4 2 0 2 5 3 3 4 1 2 3 4 5 1 4 2 1 3 5 5 3 3 6 8 7 7 8
26 13 8 10 3 4 5 3 2 3 4 2 2 2 4 6 5 5 3 3 2 3 2 5 1 2 6 4 5 7 2 4 4 2 4 5 5 5 5 6 7 9 9 8 7
7 4 3 15 5 5 3 4 4 5 1 3 1 2 2 2 0 2 2 2 5 1 6 3 3 4 2 3 1 4 3 6 4 4 3 3 5 6 5 4 7 9 9 9 8
6 3 10 6 4 1 1 2 4 4 4 4 1 2 2 1 2 3 3 3 7 1 2 2 5 2 5 3 3 2 4 4 4 5 4 2 6 2 3 5 5 8 9 9 6
2 3 5 6 2 2 5 4 2 7 6 6 5 4 2 2 3 4 3 5 9 4 3 4 1 2 7 6 4 2 2 4 4 3 5 3 6 4 4 5 5 7 9 8 10
3 3 4 4 1 4 3 3 6 8 2 3 3 3 3 4 5 2 5 2 5 3 7 7 3 6 6 7 3 4 5 6 5 3 3 6 9 8 6 7 8 7 9 7 11
2 2 2 2 3 3 0 2 2 6 4 5 3 3 2 3 2 1 1 4 3 4 3 4 3 5 5 6 5 5 10 11 7 7 5 12 6 9 7 6 7 5 6 9 11
1 2 4 2 2 2 1 1 1 5 2 5 2 3 0 5 6 6 4 4 5 2 2 1 3 6 6 8 7 5 10 10 12 6 6 5 8 3 4 5 6 7 6 9 11
3 2 3 2 3 1 3 1 1 2 3 3 5 1 2 2 6 4 6 3 5 5 3 3 5 2 7 4 3 6 5 4 2 1 2 5 7 4 7 9 7 7 6 10 11

GFSSW_925_spd_111.txt.gz
Wind_Speed
28 28 26 25 23 23 20 19 17 17 16 14 11 10 9 10 10 5 6 6 6 15 12 19 7 5 6 4 3 1 2 1 4 6 9 9 10 6 8 8 4 6 3 5 31
30 30 29 28 27 23 22 20 16 14 13 10 8 9 9 10 5 8 6 6 6 19 19 15 8 10 4 2 3 2 1 1 2 10 8 11 6 10 7 12 4 5 7 20 30
31 31 31 30 29 27 23 17 14 12 11 9 8 9 7 6 3 1 2 8 13 19 15 6 12 5 3 2 4 3 3 2 9 8 5 12 11 6 7 11 14 12 13 19 25
32 33 33 32 31 26 19 16 14 13 14 13 11 6 3 0 3 2 7 13 20 13 13 9 7 5 3 3 3 4 6 5 6 7 7 11 11 11 6 11 17 15 15 22 24
34 35 36 36 35 24 19 20 19 18 14 9 5 4 3 2 3 2 6 22 21 12 7 6 7 4 3 2 2 6 5 5 8 12 11 12 11 6 9 16 16 11 14 22 23
35 37 38 40 37 24 23 23 15 7 4 2 6 6 2 2 1 2 12 18 13 11 5 6 6 4 2 2 3 1 8 13 9 10 4 5 5 2 16 20 15 4 11 16 20
37 38 39 41 35 24 24 14 9 7 6 7 9 4 1 3 2 8 13 5 14 6 4 5 2 2 2 3 2 3 9 6 2 5 4 6 9 13 17 18 13 4 5 10 16
37 38 39 41 31 23 21 8 8 7 7 7 5 2 2 2 1 6 11 5 7 6 2 2 3 2 1 1 2 3 0 5 4 6 3 6 5 11 16 12 15 14 2 8 14
38 38 39 42 25 21 16 5 6 7 6 5 3 2 4 1 2 2 10 4 6 3 2 4 2 2 1 2 1 4 5 7 5 5 5 6 4 12 14 14 14 15 10 3 5
37 38 38 42 21 19 13 2 4 3 2 2 1 2 0 1 1 1 7 7 3 5 4 2 2 1 1 1 3 7 5 5 7 2 4 8 6 7 11 12 13 13 13 10 5
38 38 38 40 19 15 16 2 2 1 3 2 3 3 4 8 3 2 4 7 2 3 1 2 3 2 2 2 2 1 4 8 4 2 2 7 8 7 9 10 13 13 12 12 11
38 38 38 40 15 13 13 5 3 3 6 2 5 6 7 3 2 2 9 3 2 2 2 1 1 3 2 2 2 2 4 3 8 2 2 4 4 3 6 8 10 13 13 13 14
37 38 38 39 10 11 7 6 8 4 2 5 4 3 0 6 2 5 9 3 2 3 3 1 3 4 3 4 2 1 3 2 3 7 2 3 3 2 3 5 8 11 12 12 13
36 38 39 34 4 11 2 10 14 9 2 2 1 2 4 2 1 3 8 2 2 1 5 2 1 2 4 4 1 0 3 7 8 4 6 4 7 3 2 2 5 10 14 16 16
35 36 37 22 9 1 5 15 1 3 2 1 2 1 2 2 1 1 2 2 5 4 3 3 2 2 5 2 2 1 4 5 6 6 2 2 4 3 3 4 3 7 9 12 15
33 35 33 15 7 3 13 9 3 2 2 2 2 2 1 3 3 2 2 4 2 3 2 2 1 2 3 1 2 6 3 2 2 1 5 3 3 4 2 1 6 9 10 11 13
33 33 23 8 4 12 14 1 2 2 1 3 2 4 2 4 2 4 2 3 1 2 2 2 2 1 2 1 2 5 6 3 2 3 2 4 4 4 3 3 3 9 12 12 12
32 28 11 7 11 9 3 1 3 1 2 2 3 1 3 5 3 3 3 3 4 2 2 3 4 2 5 3 3 4 3 3 4 3 4 1 4 2 4 3 2 7 9 10 12
30 19 3 14 5 9 1 2 1 1 2 4 1 2 2 2 3 2 4 2 3 1 1 3 2 1 4 3 2 3 2 2 1 1 3 1 3 7 3 6 8 11 9 10 11
24 10 3 18 7 3 1 1 1 2 4 2 1 0 1 3 1 2 3 3 2 3 3 3 2 1 2 3 8 5 5 1 2 3 5 3 5 9 7 6 7 9 10 11 12
6 4 4 15 2 3 1 1 3 3 2 2 2 3 2 1 2 2 3 3 4 2 3 3 2 2 2 1 1 3 3 4 0 3 4 6 4 3 9 9 10 11 11 10 11
6 3 8 8 1 1 1 1 4 4 4 2 1 2 2 2 2 3 3 3 8 2 0 1 1 3 1 1 3 1 1 1 3 3 5 6 10 6 6 7 8 11 10 11 11
5 3 4 5 2 2 0 0 1 5 4 4 2 3 1 3 3 2 2 2 5 2 2 4 1 3 3 4 3 3 3 3 1 2 12 10 7 1 7 8 9 11 12 12 13
3 3 2 3 2 1 1 1 1 3 1 3 2 1 3 2 3 4 4 1 4 3 5 2 2 5 7 7 3 6 6 7 8 7 14 14 20 19 16 10 12 11 13 13 12
2 2 2 3 3 3 1 2 1 1 2 5 2 4 0 3 2 2 1 1 1 1 2 1 4 5 13 10 8 12 15 16 14 17 11 17 20 16 11 7 11 10 11 12 12
3 2 2 3 3 2 1 2 1 3 2 2 2 5 1 2 2 6 3 1 2 2 3 1 7 2 12 13 15 18 18 20 18 17 18 18 16 5 3 7 7 10 12 15 16
3 1 2 2 2 2 2 3 3 2 2 1 5 3 2 2 7 6 5 2 3 3 2 2 2 2 7 5 7 10 17 13 9 8 7 10 13 4 11 9 8 10 13 17 19

GFSSW_925_spd_114.txt.gz
Wind_Speed
27 27 26 24 23 20 19 18 16 13 11 9 6 5 6 6 7 3 9 4 8 15 16 14 9 9 9 6 6 4 7 3 1 3 6 8 13 10 9 6 4 1 6 7 27
28 29 27 27 25 22 18 14 13 11 9 7 5 5 6 6 5 11 8 8 8 20 18 17 11 11 7 5 4 9 5 4 4 7 8 9 10 11 13 12 7 3 4 16 30
30 30 30 31 29 20 15 13 12 12 9 7 5 5 5 3 6 4 3 9 12 19 13 10 9 10 8 6 5 2 7 3 7 6 10 14 14 11 10 11 13 12 7 18 23
31 31 33 35 29 18 16 17 17 16 14 13 10 5 2 3 2 2 6 11 17 13 14 10 10 9 7 7 4 9 5 7 10 12 13 14 13 11 6 11 15 13 6 18 22
32 33 34 37 29 19 20 20 14 9 7 4 5 6 4 6 5 4 6 19 21 11 14 10 9 7 8 4 4 10 9 7 10 12 11 9 4 4 7 15 13 9 4 15 17
31 33 35 39 28 20 22 12 10 7 4 4 9 9 4 5 3 6 13 19 14 11 10 8 4 4 2 4 7 6 10 12 6 2 2 4 5 4 12 15 12 8 2 9 14
33 34 35 39 28 20 19 9 9 7 7 7 9 3 4 7 4 10 13 7 13 9 6 7 4 8 0 5 2 8 10 4 2 2 3 3 7 9 12 11 12 11 6 2 6
33 34 35 37 26 20 16 7 6 7 7 7 3 2 4 4 6 11 8 7 8 4 3 4 5 5 6 2 6 5 5 8 8 5 4 5 10 10 11 10 12 13 8 4 3
34 35 35 36 23 18 15 3 4 5 5 2 1 5 8 5 4 8 10 4 8 5 5 3 6 4 6 9 7 5 0 1 5 3 4 6 5 9 9 10 12 13 12 8 5
34 35 35 36 19 15 13 2 2 1 2 3 5 5 7 6 6 6 9 7 4 8 7 7 6 7 6 8 1 3 2 2 0 4 3 1 5 6 7 10 12 13 13 13 10
34 35 35 36 16 14 9 2 4 5 4 4 3 3 5 1 4 8 9 10 6 7 6 5 8 3 5 3 4 4 5 4 3 3 4 1 1 4 5 8 10 11 12 12 12
34 35 35 35 10 11 8 4 5 4 3 2 3 5 5 2 5 9 11 10 7 5 5 7 2 3 2 3 5 4 5 2 2 1 8 6 6 3 3 7 9 11 11 12 12
34 35 35 33 5 7 9 7 5 2 5 3 1 1 2 8 5 12 12 4 4 5 6 4 9 5 4 4 6 2 6 4 8 7 9 6 12 10 6 6 6 10 10 12 12
33 34 34 29 2 5 2 7 9 5 5 7 6 5 7 4 6 4 9 3 4 2 4 2 4 1 0 3 6 3 5 7 10 10 8 4 10 9 8 4 4 8 12 13 13
32 32 31 17 7 3 6 11 2 4 5 6 7 4 4 5 6 6 6 6 4 5 6 7 3 3 4 3 5 6 8 9 12 13 10 11 7 9 7 7 3 6 9 11 13
31 30 27 9 2 4 9 7 4 6 3 6 5 6 9 6 5 6 6 4 2 4 3 3 2 2 3 1 2 8 9 13 8 9 10 4 5 2 4 3 3 7 9 10 10
31 28 16 3 5 10 9 4 5 6 4 6 5 5 5 5 7 6 10 10 7 8 9 6 6 6 2 8 7 9 10 7 5 6 3 4 7 6 6 4 4 7 10 9 9
30 21 5 3 8 7 6 5 6 3 1 3 2 6 7 4 4 6 8 8 3 7 3 6 8 7 1 4 6 4 7 5 7 6 6 6 6 4 3 3 1 5 9 8 9
27 9 3 5 5 6 6 7 3 1 0 3 6 9 7 6 3 7 3 2 2 2 5 4 4 5 3 1 5 5 2 5 8 7 8 3 3 8 5 3 3 10 8 9 10
16 8 2 9 4 7 5 5 2 2 3 5 8 4 9 6 8 8 8 3 6 2 2 3 6 6 5 4 3 6 3 6 4 7 9 4 8 9 7 6 11 11 10 9 10
6 4 3 9 3 5 6 0 3 2 2 4 4 5 4 4 4 4 4 5 1 4 2 2 4 8 5 9 4 6 9 3 6 5 8 10 2 6 5 6 10 14 11 11 12
6 4 5 7 5 1 5 1 0 2 2 4 4 3 6 4 5 5 7 2 2 1 3 2 5 9 7 6 2 6 5 7 6 5 8 10 14 5 4 6 11 11 11 12 13
6 4 3 4 5 6 4 4 2 3 0 3 6 4 4 5 4 4 5 4 2 1 0 2 4 8 11 10 8 9 8 9 7 7 12 11 9 2 5 13 10 10 10 12 14
4 3 3 2 2 6 4 5 5 2 2 2 1 5 7 7 4 6 7 5 2 4 2 1 8 9 12 13 8 10 12 11 12 9 15 15 19 16 14 14 10 10 11 11 12
1 3 4 1 4 3 4 2 8 7 2 2 5 5 8 8 8 7 5 6 6 6 4 4 9 12 12 14 16 16 18 16 19 20 19 19 20 17 14 10 8 7 8 12 14
4 4 2 4 3 5 4 6 8 4 4 5 7 1 4 8 7 6 7 5 5 7 6 2 9 11 15 17 17 20 20 21 22 21 20 18 16 7 8 10 8 8 9 11 15
4 2 4 1 3 5 5 4 5 3 4 2 4 6 8 5 4 3 5 2 3 6 6 6 8 7 14 7 9 13 19 18 14 11 12 11 12 13 12 10 7 8 8 9 10

GFSSW_925_spd_117.txt.gz
Wind_Speed
26 26 26 27 25 18 14 13 13 11 10 8 7 6 6 5 6 6 11 4 9 10 11 10 10 10 10 13 8 11 8 8 2 1 8 7 9 7 8 7 8 5 12 14 26
27 27 28 31 26 16 13 11 12 10 9 7 5 5 5 4 8 15 9 9 10 16 12 13 10 8 11 9 5 10 11 8 10 8 8 10 9 12 6 10 7 9 7 23 26
28 29 30 34 26 16 13 14 14 14 12 9 6 5 4 2 9 4 8 12 12 19 13 13 7 9 12 9 9 10 9 10 6 8 8 10 11 9 9 5 14 9 9 18 21
29 30 32 35 27 17 18 18 15 13 12 12 11 7 5 5 1 6 4 10 14 18 14 13 11 12 12 8 4 8 10 4 7 8 10 11 10 7 4 10 7 6 1 16 17
31 31 33 35 28 19 21 12 11 8 5 3 7 10 4 9 6 3 6 15 17 15 16 13 11 12 12 6 4 11 8 6 8 8 6 4 2 5 10 7 8 8 2 15 16
31 32 34 35 30 19 19 11 10 8 4 4 9 12 6 7 6 8 13 17 15 15 15 12 9 8 12 7 8 11 8 9 4 4 1 7 7 2 8 7 9 8 4 9 15
32 33 34 35 32 18 18 9 8 6 5 7 9 4 10 8 8 11 14 13 11 11 9 11 11 9 3 10 3 9 12 8 5 2 4 7 8 9 4 4 9 8 8 4 6
32 33 34 35 32 17 17 6 5 4 4 4 2 6 4 6 8 11 8 7 9 8 10 6 9 12 8 6 11 12 12 11 9 5 5 11 11 8 5 9 9 9 8 7 4
33 33 34 35 30 15 17 3 2 1 1 2 4 9 7 7 10 12 10 9 8 7 7 3 10 14 6 12 12 8 8 1 8 1 4 6 7 10 6 10 10 11 10 8 9
33 34 34 35 26 14 14 3 4 3 4 6 11 8 11 11 9 10 11 5 7 7 8 10 8 10 12 12 7 5 5 7 4 6 5 6 5 7 5 9 10 11 12 12 11
33 34 34 34 20 15 10 4 5 6 12 9 6 3 11 10 8 10 12 10 8 7 12 11 11 13 3 8 7 5 6 7 2 2 9 3 2 3 2 5 8 9 10 12 12
32 33 33 34 15 9 11 5 7 6 7 5 4 5 4 4 9 11 14 11 8 13 4 7 13 10 3 5 6 7 9 7 3 2 8 9 9 8 3 4 5 7 10 10 10
32 33 32 31 8 6 6 7 7 6 7 8 6 9 12 11 9 13 15 13 10 7 10 14 14 3 7 6 9 9 8 8 10 6 14 11 15 14 8 7 7 8 7 11 10
32 32 31 30 6 9 0 9 9 3 6 11 10 7 8 10 7 15 16 5 5 6 3 9 8 4 6 2 8 7 5 6 11 12 12 6 8 15 15 10 5 6 6 11 8
31 31 29 18 12 6 8 11 6 5 5 13 11 12 14 12 14 11 11 8 12 6 9 4 8 7 8 4 6 11 10 11 12 14 15 16 8 13 10 9 8 7 6 8 9
29 29 27 5 7 7 11 10 6 7 3 8 8 12 14 13 10 11 10 10 6 6 8 3 1 5 5 1 6 8 12 15 16 13 13 17 3 8 9 7 11 9 6 6 6
29 26 19 9 7 11 12 7 7 8 4 9 12 12 17 11 12 11 15 14 11 9 14 9 11 5 7 10 10 11 13 10 7 11 1 9 4 6 9 5 6 6 3 5 5
29 20 9 10 10 10 12 8 9 5 2 3 2 9 12 9 10 11 13 14 11 9 11 8 12 11 5 5 9 10 8 8 10 10 10 11 6 4 9 7 4 3 6 8 8
27 11 8 6 6 8 8 9 11 3 5 5 8 12 14 5 9 11 14 14 7 8 11 8 8 8 3 2 4 2 9 9 11 17 10 12 7 10 10 5 5 4 9 6 7
18 13 11 4 5 10 8 14 7 5 6 7 13 11 13 13 12 11 12 5 4 6 7 5 9 13 10 6 10 10 10 10 10 5 10 7 5 5 12 6 5 8 11 11 9
8 5 8 3 6 7 10 5 3 4 7 9 11 10 12 8 7 13 7 8 3 6 9 12 7 6 7 13 13 8 10 6 7 7 9 10 1 5 1 5 6 9 11 13 12
8 5 5 4 8 7 9 4 3 9 8 10 8 11 8 8 9 13 6 3 4 10 9 1 6 10 14 10 3 11 15 14 8 11 8 9 12 10 6 5 8 9 7 8 12
5 8 3 8 7 9 7 8 8 7 9 7 9 10 7 7 8 7 4 10 3 8 7 2 8 11 15 16 12 6 10 9 9 10 14 12 10 1 1 8 8 10 9 11 13
5 4 5 6 8 10 9 8 10 5 9 7 9 1 9 12 6 5 7 8 4 2 8 4 11 13 13 18 14 8 10 11 14 11 14 14 17 15 15 16 11 11 10 10 12
4 1 5 3 3 7 5 8 9 9 10 6 9 12 12 12 12 11 11 11 8 8 6 6 12 13 15 16 17 18 19 20 19 18 18 19 21 18 15 9 9 10 5 10 12
5 4 4 10 6 9 5 10 11 10 2 10 11 11 9 11 11 11 12 9 10 13 8 10 9 10 16 18 18 21 22 21 21 20 21 21 19 8 9 11 12 11 11 11 12
8 9 5 3 8 9 10 10 7 8 3 10 6 7 10 7 6 9 7 8 5 7 8 9 9 11 16 14 15 13 18 19 16 16 15 14 10 13 12 12 12 10 10 10 11

GFSSW_925_spd_123.txt.gz
Wind_Speed
25 26 28 30 30 18 15 14 14 12 11 9 9 8 8 9 9 7 6 10 7 13 7 4 6 16 21 9 13 14 2 6 5 10 7 8 9 9 10 15 8 9 19 26 35
26 27 29 30 32 18 17 18 15 13 12 10 8 7 6 8 7 12 13 9 9 4 6 10 10 12 5 9 6 6 2 4 6 7 7 8 4 5 8 18 21 19 21 35 33
27 28 29 31 34 20 18 16 12 11 10 11 9 6 3 5 4 6 6 17 13 9 10 14 22 10 8 7 13 7 1 5 6 7 6 4 7 4 10 8 23 27 25 24 28
28 29 30 31 34 22 17 15 13 12 10 7 9 7 2 2 3 0 8 16 11 8 6 7 9 8 7 7 10 3 7 6 5 5 4 3 3 9 10 3 25 26 27 22 20
30 30 31 32 34 25 16 15 12 11 9 5 6 7 3 3 7 5 8 9 9 9 9 9 10 8 9 9 12 5 4 6 7 8 4 4 8 9 5 6 20 25 24 23 19
31 32 32 33 34 28 17 16 9 9 8 4 3 11 1 4 4 5 8 11 8 10 12 14 8 10 7 9 7 8 5 7 6 5 3 4 5 9 1 10 11 23 21 22 21
32 33 33 33 33 31 19 15 6 6 6 4 7 5 4 9 5 8 7 10 12 15 11 21 14 6 9 10 8 8 5 8 8 7 4 3 8 5 3 14 13 9 8 16 18
32 33 33 33 33 32 20 11 4 3 3 4 4 1 6 6 14 11 12 14 16 12 21 16 11 6 6 10 11 10 5 3 7 7 5 8 3 5 12 16 12 12 7 9 8
33 33 34 33 32 31 18 10 5 3 2 1 1 3 7 8 8 12 17 18 16 15 16 10 7 5 9 7 7 6 8 6 5 3 3 6 6 7 14 16 12 11 11 9 9
33 33 34 32 30 32 20 13 5 3 3 3 9 5 6 8 12 15 12 12 7 8 5 4 3 4 5 2 5 6 7 8 8 6 3 5 8 6 12 15 12 12 12 11 11
33 34 35 32 28 32 23 2 1 1 7 9 3 6 6 17 11 13 14 8 7 3 6 9 3 7 13 10 3 7 7 7 5 7 5 4 8 9 10 15 14 13 12 10 9
33 34 34 32 30 20 14 3 4 6 8 12 18 19 6 13 6 8 15 6 5 8 8 4 9 11 3 4 4 7 8 7 1 9 7 5 6 9 9 14 16 15 13 12 9
33 34 34 32 25 8 11 3 7 10 4 8 15 14 5 7 9 10 12 8 8 8 11 9 8 4 2 5 5 4 5 4 3 6 3 4 7 7 7 13 15 15 15 13 12
33 34 32 36 6 21 8 10 9 5 2 6 8 7 10 7 7 10 17 9 7 10 9 5 4 5 5 6 1 7 9 9 9 8 3 3 5 5 10 9 13 13 12 12 11
34 34 30 24 16 8 11 15 11 3 3 12 8 6 11 9 4 10 21 8 13 11 1 8 3 7 3 4 7 3 7 7 7 7 4 10 0 2 13 10 14 14 14 14 12
36 33 32 10 14 14 21 20 14 1 6 10 7 7 9 9 9 10 7 7 5 7 8 7 2 3 3 5 4 4 6 8 7 4 3 15 8 2 9 12 10 13 14 14 12
39 30 29 17 7 11 13 8 0 4 9 8 9 10 10 9 12 10 7 6 4 2 6 9 10 7 4 4 6 6 4 4 6 5 3 10 5 6 6 14 17 14 10 9 13
40 30 15 18 15 11 16 3 4 9 9 7 10 13 10 11 12 13 10 7 10 9 5 5 9 10 6 5 1 3 3 4 2 3 6 7 3 4 14 14 11 12 10 10 9
36 17 12 16 6 8 1 3 6 5 13 10 5 3 10 13 11 10 11 12 10 11 9 2 2 11 8 5 6 4 3 4 2 4 3 4 5 8 13 10 10 9 10 9 9
26 11 11 15 20 12 1 5 6 9 13 9 5 4 4 7 6 7 5 6 8 3 9 2 2 3 6 8 1 5 4 4 4 2 5 5 2 5 6 7 7 8 8 8 8
7 4 3 11 12 1 4 6 9 17 1 4 6 9 10 9 9 4 10 9 9 6 9 5 4 8 6 3 8 0 1 4 4 4 1 3 2 5 7 8 7 7 10 9 9
9 3 13 9 2 3 6 7 6 14 5 1 3 8 8 10 9 7 4 4 8 8 9 3 3 2 9 7 8 2 8 5 5 6 2 2 5 8 9 8 10 9 9 8 8
6 4 10 8 3 6 10 18 19 8 6 3 4 6 9 6 5 6 6 6 10 7 3 5 2 2 8 8 6 3 2 5 1 3 5 4 5 3 6 7 8 9 8 8 7
4 4 3 2 5 7 9 12 15 7 3 8 7 8 7 6 6 5 5 5 12 6 6 6 2 4 5 5 6 5 8 4 7 3 5 6 5 9 6 9 8 8 8 7 5
3 3 4 4 4 11 7 10 10 9 7 3 4 6 8 5 7 6 7 5 8 9 5 5 2 3 5 9 10 9 10 10 7 6 4 7 6 2 7 8 7 7 7 7 7
3 5 6 8 9 9 9 5 8 13 5 5 7 8 8 4 5 6 6 6 6 2 5 4 3 3 5 7 9 12 12 12 12 10 9 9 6 9 7 8 8 7 7 5 8
11 10 4 7 7 7 6 7 12 10 12 9 5 3 13 9 9 8 8 7 4 6 5 6 3 2 3 6 9 7 7 10 11 9 6 2 5 6 8 8 8 9 8 8 7